GFSSE_con_sbcape_000.txt.gz
CAPE
80 780 1995 1475 1223 695 319 34 8 1 0 0 0 7 33 9 0 6 20 7 19 4 1 19 28 39 76 82 50 24 13 0 0 0 0 0 0 1 0 27 15 0 0
137 922 1880 1541 1073 761 403 55 19 0 0 0 0 4 2 6 0 5 14 13 3 0 0 0 3 6 9 8 9 3 5 8 0 0 0 0 0 0 0 22 5 0 20
685 1072 1303 1527 1075 955 501 58 17 0 0 0 0 6 7 9 26 30 25 22 14 0 0 0 0 0 0 0 0 0 3 1 0 0 0 0 0 0 0 15 0 0 0
915 1126 1130 1690 1341 1032 365 61 22 0 0 0 0 4 11 22 28 18 29 12 1 0 0 0 0 0 0 0 0 0 0 0 0 0 0 0 0 0 0 16 10 0 0
870 958 1235 1866 1797 1319 475 81 33 6 0 0 0 2 24 31 48 30 35 9 0 0 0 0 0 0 0 0 0 0 0 0 0 0 0 0 0 0 10 14 12 10 1
487 723 1570 1956 1880 1577 887 144 71 30 0 0 0 0 15 69 119 93 27 48 15 0 0 0 0 0 0 0 1 1 0 0 7 0 0 0 0 0 0 14 18 11 0
284 713 1732 1945 2022 1406 846 448 143 38 21 0 0 0 17 53 107 238 101 79 14 0 0 0 0 0 0 4 14 67 13 14 0 0 0 0 0 0 0 7 12 18 18
705 1262 1542 2011 1699 1291 1090 887 550 177 39 4 6 5 18 10 60 181 121 59 14 6 0 7 8 10 0 0 1 6 74 39 0 0 0 0 0 0 0 4 21 14 13
1190 1469 1438 1544 1343 1443 1379 1130 865 628 312 105 37 16 46 27 12 61 286 112 51 19 19 30 29 4 6 9 1 4 70 37 0 0 0 0 0 0 0 2 11 18 21
1305 1330 1152 1020 1103 871 1082 992 809 769 552 404 203 129 102 44 35 46 198 132 76 77 81 23 7 17 26 30 19 104 52 0 0 0 0 0 0 0 17 21 4 11 15
889 879 998 811 751 711 530 627 551 499 455 349 144 69 32 0 0 1 30 58 174 83 63 87 96 141 277 162 127 105 8 0 0 0 0 0 0 17 14 25 64 45 14
221 351 475 562 431 539 497 273 231 183 172 86 50 16 2 0 0 0 3 48 112 171 246 229 249 429 296 7 0 0 0 0 0 0 0 0 0 44 77 199 445 355 275
170 179 287 394 346 401 290 152 75 56 49 27 20 9 5 0 0 0 0 0 0 0 0 1 0 0 0 1 0 0 0 0 0 0 0 0 10 37 123 207 385 324 267
101 215 165 318 324 258 191 126 32 18 9 5 11 11 0 0 0 0 0 0 0 0 2 9 1 0 0 0 0 0 0 0 0 0 0 0 0 0 33 23 149 353 557
47 227 208 214 276 136 144 37 4 0 6 0 0 0 0 0 4 0 0 0 0 0 0 0 0 0 0 0 0 0 0 0 0 0 0 0 0 0 2 8 34 55 168
4 182 172 252 216 116 76 43 18 0 0 0 0 0 0 0 0 0 0 0 0 0 0 0 0 0 0 0 0 0 0 0 0 0 0 0 0 0 0 0 0 13 56
0 37 157 250 200 181 126 39 0 0 0 0 0 0 0 0 0 0 0 0 0 0 0 0 0 0 0 0 0 0 0 0 0 0 0 0 0 0 0 0 0 0 0
0 0 0 265 183 157 107 5 0 0 0 0 0 0 0 0 0 0 0 0 0 0 0 0 0 0 0 0 0 0 0 0 0 0 0 0 0 0 0 0 0 0 0
0 0 0 123 121 32 0 0 0 0 0 0 0 0 0 0 0 0 0 0 0 0 0 0 0 0 0 0 0 0 0 0 0 0 0 0 0 0 0 0 0 0 0
0 0 0 39 0 0 0 0 0 0 0 0 0 0 0 0 0 0 0 0 0 0 0 0 0 0 0 0 0 0 0 0 0 0 0 0 0 0 0 0 0 0 0
0 0 0 0 0 0 0 0 0 0 0 0 0 0 0 0 0 0 0 0 0 0 0 0 0 0 0 0 0 0 0 0 0 0 0 0 0 0 0 0 0 0 0
0 0 0 0 0 0 0 0 0 0 0 0 0 0 0 0 0 0 0 0 0 0 0 0 0 0 0 0 0 0 0 0 0 0 0 0 0 0 0 0 0 0 0
0 0 0 0 0 0 0 0 0 0 0 0 0 0 0 0 0 0 0 0 0 0 0 0 0 0 0 0 0 0 0 0 0 0 0 0 0 0 0 0 0 0 0
0 0 0 0 0 0 0 0 0 0 0 0 0 0 0 0 0 0 0 0 0 0 0 0 0 0 0 0 0 0 0 0 0 0 0 0 0 0 0 0 0 0 0
0 0 0 0 0 0 0 0 0 0 0 0 0 0 0 0 0 0 0 0 0 0 0 0 0 0 0 0 0 0 0 0 0 0 0 0 0 0 0 0 0 0 0
0 0 0 0 0 0 0 0 0 0 0 0 0 0 0 0 0 0 0 0 0 0 0 0 0 0 0 0 0 0 0 0 0 0 0 0 0 0 0 0 0 0 0

GFSSE_con_sbcape_003.txt.gz
CAPE
34 105 1790 1365 873 558 121 12 0 0 0 0 0 20 13 17 15 4 1 8 7 0 0 9 26 24 43 72 45 21 8 0 0 0 0 0 0 8 9 0 8 3 0
57 449 2059 1533 916 547 141 25 0 0 0 0 2 25 16 0 0 0 11 8 0 0 0 0 0 0 0 4 6 3 2 1 0 0 0 0 0 0 3 30 7 0 26
305 1070 1591 1926 1269 583 263 51 4 0 0 0 0 2 9 10 24 23 31 22 0 0 0 0 0 0 0 0 0 0 1 5 0 0 0 0 0 0 0 20 13 1 10
814 1224 1157 1877 1152 849 437 67 27 0 0 0 0 11 19 33 39 22 25 3 0 0 0 0 0 0 0 0 0 0 0 2 0 4 0 0 0 0 7 14 19 14 6
960 1123 1066 1740 1429 1175 476 94 34 3 0 0 0 12 31 23 43 48 10 0 0 0 0 0 0 0 0 0 0 0 0 0 4 0 0 0 0 0 6 10 20 12 19
842 953 1464 1866 1804 1446 830 160 57 4 1 0 0 0 16 57 89 43 50 88 26 0 0 0 0 0 0 1 21 40 9 4 4 0 0 0 0 0 0 7 17 25 13
589 762 1694 2174 2044 1632 957 384 98 23 1 0 0 0 10 42 61 113 128 47 20 0 0 0 0 0 1 0 4 26 88 124 4 0 0 0 0 0 0 6 19 19 12
499 999 1856 2023 1992 1639 1103 709 385 51 9 0 0 0 14 7 46 137 106 73 20 3 1 0 8 12 18 7 8 6 79 96 2 0 0 0 0 0 0 1 5 17 16
675 1306 1520 1647 1642 1235 1025 843 585 308 175 20 24 9 11 24 6 58 218 106 66 38 21 35 62 16 7 26 45 60 127 102 7 0 0 0 0 0 24 23 15 14 24
1221 1359 1389 1387 1104 965 907 911 777 612 379 276 107 46 57 26 21 29 198 122 100 92 116 82 39 66 112 121 99 216 170 73 0 0 0 0 0 39 174 169 130 93 69
1366 1331 1260 1063 956 701 752 675 685 675 447 341 125 47 11 0 0 0 20 44 112 176 111 146 213 261 377 263 190 158 39 0 0 0 0 0 5 105 219 299 276 220 187
1163 1006 1021 765 643 476 534 418 269 273 246 135 40 1 0 0 0 0 0 35 120 182 227 194 262 184 23 0 0 0 0 0 0 0 0 0 21 82 32 122 344 224 208
814 722 703 603 441 432 428 177 138 69 64 16 3 0 0 0 0 0 0 0 0 0 0 1 0 0 0 0 0 0 0 0 0 0 0 0 0 0 0 2 49 239 387
90 360 478 387 320 316 198 111 84 16 8 0 0 0 0 0 0 0 0 0 0 0 0 0 0 0 0 0 0 0 0 0 0 0 0 0 0 0 0 0 0 12 223
25 173 240 297 330 300 191 92 29 14 9 0 0 0 0 0 0 0 0 0 0 0 0 0 0 0 0 0 0 0 0 0 0 0 0 0 0 0 0 0 0 10 0
0 93 100 234 313 187 144 67 16 0 1 0 0 0 0 0 0 0 0 0 0 0 0 0 0 0 0 0 0 0 0 0 0 0 0 0 0 0 0 0 0 0 0
0 8 162 239 202 131 74 28 0 0 0 0 0 0 0 0 0 0 0 0 0 0 0 0 0 0 0 0 0 0 0 0 0 0 0 0 0 0 0 0 0 0 0
0 31 183 464 209 99 57 1 0 0 0 0 0 0 0 0 0 0 0 0 0 0 0 0 0 0 0 0 0 0 0 0 0 0 0 0 0 0 0 0 0 0 0
0 0 115 291 219 44 0 0 0 0 0 0 0 0 0 0 0 0 0 0 0 0 0 0 0 0 0 0 0 0 0 0 0 0 0 0 0 0 0 0 0 0 0
0 0 3 146 5 0 0 0 0 0 0 0 0 0 0 0 0 0 0 0 0 0 0 0 0 0 0 0 0 0 0 0 0 0 0 0 0 0 0 0 0 0 0
0 0 0 0 0 0 0 0 0 0 0 0 0 0 0 0 0 0 0 0 0 0 0 0 0 0 0 0 0 0 0 0 0 0 0 0 0 0 0 0 0 0 0
0 0 0 0 0 0 0 0 0 0 0 0 0 0 0 0 0 0 0 0 0 0 0 0 0 0 0 0 0 0 0 0 0 0 0 0 0 0 0 0 0 0 0
0 0 0 0 0 0 0 0 0 0 0 0 0 0 0 0 0 0 0 0 0 0 0 0 0 0 0 0 0 0 0 0 0 0 0 0 0 0 0 0 0 0 0
0 0 0 0 0 0 0 0 0 0 0 0 0 0 0 0 0 0 0 0 0 0 0 0 0 0 0 0 0 0 0 0 0 0 0 0 0 0 0 0 0 0 0
0 0 0 0 0 0 0 0 0 0 0 0 0 0 0 0 0 0 0 0 0 0 0 0 0 0 0 0 0 0 0 0 0 0 0 0 0 0 0 0 0 0 0
0 0 0 0 0 0 0 0 0 0 0 0 0 0 0 0 0 0 0 0 0 0 0 0 0 0 0 0 0 0 0 0 0 0 0 0 0 0 0 0 0 0 0

GFSSE_con_sbcape_006.txt.gz
CAPE
6 63 1932 1098 939 457 200 18 0 0 0 0 0 20 32 61 44 26 4 0 1 0 0 0 16 19 59 87 68 32 24 1 0 0 0 0 0 1 17 14 0 0 3
11 91 1875 1570 1072 583 106 35 3 0 0 0 1 23 29 13 14 13 23 4 0 0 0 0 0 0 4 9 25 13 14 11 0 0 0 0 0 0 3 5 26 0 7
49 189 1510 1774 1330 653 138 52 12 0 0 0 2 18 14 13 23 18 23 15 6 0 0 0 0 0 0 0 0 0 0 2 4 2 0 0 0 0 0 11 18 9 6
273 893 1337 1900 1235 689 299 92 22 0 0 0 0 5 27 21 38 30 38 2 0 0 0 0 0 0 0 0 0 0 0 0 6 10 0 0 0 0 0 12 29 19 10
934 1153 1226 1986 1438 1042 446 123 70 9 0 0 4 13 25 24 51 27 0 0 0 0 0 0 0 0 0 0 0 2 1 0 0 0 0 0 0 0 0 13 34 34 20
868 935 1395 1746 1557 1545 816 213 112 27 1 0 0 4 22 42 51 49 45 61 32 0 0 0 0 0 0 0 2 5 42 19 12 0 0 0 0 0 0 0 10 9 25
680 855 1444 1936 1725 1540 929 389 132 53 0 0 0 0 13 40 49 117 76 31 9 0 0 0 0 1 2 3 2 2 29 124 2 0 0 0 0 0 0 0 2 9 13
693 951 1527 1909 1992 1677 1200 712 340 80 8 0 0 0 5 18 35 166 145 73 28 0 7 0 8 19 10 2 16 29 64 108 11 0 0 0 0 2 31 29 6 6 5
647 1161 1576 1751 1788 1590 1220 849 595 259 95 0 18 9 12 20 0 41 168 89 59 51 16 35 44 20 31 60 83 115 229 165 31 0 0 0 0 31 143 134 185 103 42
781 1218 1376 1441 1432 1068 819 839 659 463 350 182 125 29 23 15 8 12 151 103 63 40 68 61 96 141 169 181 190 177 147 40 0 0 0 0 3 190 353 372 415 393 355
1117 1231 1425 1387 1071 757 660 675 712 581 357 262 60 20 4 0 0 0 0 2 22 67 68 108 215 219 39 3 10 0 0 0 0 0 0 0 14 160 152 141 244 350 361
1047 1050 1291 900 758 676 845 581 404 402 255 149 20 0 0 0 0 0 0 0 21 22 10 39 20 0 0 0 0 0 0 0 0 0 0 0 0 0 0 0 7 100 35
998 1119 1038 854 655 552 582 300 190 178 124 31 0 0 0 0 0 0 0 0 0 0 0 0 0 0 0 0 0 0 0 0 0 0 0 0 0 0 0 0 0 0 82
345 815 976 716 566 451 282 198 162 68 32 0 0 0 0 0 0 0 0 0 0 0 0 0 0 0 0 0 0 0 0 0 0 0 0 0 0 0 0 0 7 8 0
11 119 524 542 481 384 251 115 72 24 12 0 0 0 0 0 0 0 0 0 0 0 0 0 0 0 0 0 0 0 0 0 0 0 0 0 0 0 0 0 0 0 0
0 0 141 414 380 242 205 90 40 5 0 0 0 0 0 0 0 0 0 0 0 0 0 0 0 0 0 0 0 0 0 0 0 0 0 0 0 0 0 0 0 0 0
0 0 50 261 285 237 174 97 13 0 0 0 0 0 0 0 0 0 0 0 0 0 0 0 0 0 0 0 0 0 0 0 0 0 0 0 0 0 0 0 0 0 0
0 0 11 284 232 115 58 3 0 0 0 0 0 0 0 0 0 0 0 0 0 0 0 0 0 0 0 0 0 0 0 0 0 0 0 0 0 0 0 0 0 0 0
0 0 103 184 111 48 0 0 0 0 0 0 0 0 0 0 0 0 0 0 0 0 0 0 0 0 0 0 0 0 0 0 0 0 0 0 0 0 0 0 0 0 0
0 0 120 165 13 0 0 0 0 0 0 0 0 0 0 0 0 0 0 0 0 0 0 0 0 0 0 0 0 0 0 0 0 0 0 0 0 0 0 0 0 0 0
0 0 69 0 0 0 0 0 0 0 0 0 0 0 0 0 0 0 0 0 0 0 0 0 0 0 0 0 0 0 0 0 0 0 0 0 0 0 0 0 0 0 0
0 0 0 0 0 0 0 0 0 0 0 0 0 0 0 0 0 0 0 0 0 0 0 0 0 0 0 0 0 0 0 0 0 0 0 0 0 0 0 0 0 0 0
0 0 0 0 0 0 0 0 0 0 0 0 0 0 0 0 0 0 0 0 0 0 0 0 0 0 0 0 0 0 0 0 0 0 0 0 0 0 0 0 0 0 0
0 0 0 0 0 0 0 0 0 0 0 0 0 0 0 0 0 0 0 0 0 0 0 0 0 0 0 0 0 0 0 0 0 0 0 0 0 0 0 0 0 0 0
0 0 0 0 0 0 0 0 0 0 0 0 0 0 0 0 0 0 0 0 0 0 0 0 0 0 0 0 0 0 0 0 0 0 0 0 0 0 0 0 0 0 0
0 0 0 0 0 0 0 0 0 0 0 0 0 0 0 0 0 0 0 0 0 0 0 0 0 0 0 0 0 0 0 0 0 0 0 0 0 0 0 0 0 0 0

GFSSE_con_sbcape_009.txt.gz
CAPE
47 193 1816 1100 764 416 110 32 0 0 0 0 0 6 44 82 73 37 13 2 0 0 0 0 0 4 51 72 68 50 27 4 0 0 0 0 0 0 1 23 12 2 6
90 341 2027 1433 897 532 114 49 9 0 0 0 3 42 45 57 38 37 38 17 0 0 0 0 0 0 4 9 24 18 12 6 0 0 0 0 0 0 0 8 30 1 4
153 695 1351 1697 1356 719 164 69 24 0 0 0 19 18 3 3 16 19 23 1 0 0 0 0 0 0 0 0 0 0 0 0 0 0 0 0 0 0 2 0 24 11 0
358 756 1369 1865 1381 763 227 101 29 3 0 0 1 13 13 16 38 24 28 1 0 0 0 0 0 0 0 0 0 0 0 0 0 0 0 0 0 0 0 14 7 20 8
448 905 1412 1832 1582 1072 433 167 60 8 0 0 2 15 27 28 36 13 3 0 0 0 0 0 0 0 0 0 1 6 6 0 0 0 0 0 0 0 0 0 12 44 17
895 1299 1591 1812 1656 1368 929 270 141 36 0 0 0 18 23 37 41 37 18 46 28 0 0 0 0 0 0 0 1 7 16 38 16 1 0 0 0 0 0 0 0 0 6
971 1451 1542 1881 1771 1586 1076 475 204 91 15 0 0 3 17 39 59 82 41 23 8 0 0 0 5 9 7 5 4 4 0 57 8 4 0 1 0 4 45 31 5 7 16
1161 1483 1583 1723 1873 1680 1249 896 422 118 42 0 0 0 5 22 23 149 96 44 15 0 6 0 11 18 6 6 25 38 45 96 6 6 4 2 0 18 99 127 131 66 35
1283 1491 1603 1554 1595 1587 1296 929 649 231 85 11 0 0 2 18 0 134 140 63 40 35 16 34 53 51 90 120 127 133 106 65 26 12 0 0 0 49 153 252 275 354 284
1169 1511 1702 1876 1718 1538 1103 892 689 441 302 113 95 19 5 0 0 12 98 100 54 36 64 63 155 197 94 44 30 2 0 0 0 0 0 0 0 135 206 258 282 348 432
1049 1456 1272 1646 1761 1507 1141 725 632 483 349 196 78 10 0 0 0 0 0 0 21 53 64 87 40 0 0 0 0 0 0 0 0 0 0 0 2 68 47 6 0 62 222
1169 1251 1511 1457 1535 1384 981 870 657 449 361 229 69 28 0 0 0 0 0 0 7 0 0 0 0 0 0 0 0 0 0 0 0 0 0 0 0 0 0 0 0 0 13
1162 1276 1221 1239 1032 1112 1173 893 661 602 436 265 92 12 0 0 0 0 0 0 0 0 0 0 0 0 0 0 0 0 0 0 0 0 0 0 0 0 0 0 9 16 0
887 1321 1225 1207 984 887 1147 891 621 515 413 252 118 8 0 0 0 0 2 0 0 0 0 0 0 0 0 0 0 0 0 0 0 0 0 0 0 0 5 0 0 0 0
246 1019 1363 1296 953 852 1020 814 584 405 357 244 88 15 0 0 0 0 0 0 0 0 0 0 0 0 0 0 0 0 0 0 0 0 0 0 0 0 0 0 0 0 0
28 141 755 1321 853 847 922 573 565 298 226 153 82 31 0 0 0 0 0 0 0 0 0 0 0 0 0 0 0 0 0 0 0 0 0 0 0 0 0 0 0 0 0
0 0 12 735 1179 1113 970 610 409 197 139 87 15 0 0 0 0 0 0 0 0 0 0 0 0 0 0 0 0 0 0 0 0 0 0 0 0 0 0 0 0 0 0
0 0 0 159 815 959 777 529 239 106 0 0 0 0 0 0 0 0 0 0 0 0 0 0 0 0 0 0 0 0 0 0 0 0 0 0 0 0 0 0 0 0 0
0 0 0 273 657 668 312 98 5 0 0 0 0 0 0 0 0 0 0 0 0 0 0 0 0 0 0 0 0 0 0 0 0 0 0 0 0 0 0 0 0 0 0
0 0 70 393 482 75 0 0 0 0 0 0 0 0 0 0 0 0 0 0 0 0 0 0 0 0 0 0 0 0 0 0 0 0 0 0 0 0 0 0 0 0 0
0 0 295 237 6 0 0 0 0 0 0 0 0 0 0 0 0 0 0 0 0 0 0 0 0 0 0 0 0 0 0 0 0 0 0 0 0 0 0 0 0 0 0
0 4 188 95 0 0 0 0 0 0 0 0 0 0 0 0 0 0 0 0 0 0 0 0 0 0 0 0 0 0 0 0 0 0 0 0 0 0 0 0 0 0 0
0 0 15 0 0 0 0 0 0 0 0 0 0 0 0 0 0 0 0 0 0 0 0 0 0 0 0 0 0 0 0 0 0 0 0 0 0 0 0 0 0 0 0
0 0 0 0 0 0 0 0 0 0 0 0 0 0 0 0 0 0 0 0 0 0 0 0 0 0 0 0 0 0 0 0 0 0 0 0 0 0 0 0 0 0 0
0 0 0 0 0 0 0 0 0 0 0 0 0 0 0 0 0 0 0 0 0 0 0 0 0 0 0 0 0 0 0 0 0 0 0 0 0 0 0 0 0 0 0
0 0 0 0 0 0 0 0 0 0 0 0 0 0 0 0 0 0 0 0 0 0 0 0 0 0 0 0 0 0 0 0 0 0 0 0 0 0 0 0 0 0 0

GFSSE_con_sbcape_012.txt.gz
CAPE
110 1079 1905 948 723 358 133 36 11 0 0 0 0 16 75 86 50 28 12 3 0 0 0 1 0 14 60 57 59 23 13 4 0 0 0 0 0 0 0 9 34 15 2
212 970 1994 1175 757 434 117 47 18 0 0 0 5 39 62 75 55 45 40 15 0 0 0 0 0 0 9 11 21 23 16 5 0 0 0 0 0 0 0 0 14 13 0
372 990 1350 1590 1204 670 164 69 31 1 0 0 20 4 0 1 7 24 18 0 0 0 0 0 0 0 0 3 0 0 0 0 0 0 0 0 0 0 0 0 1 4 0
504 1247 964 1806 1410 695 262 95 42 18 0 0 18 8 1 12 25 0 0 0 0 0 0 0 0 0 0 0 0 0 0 0 0 0 0 0 0 0 0 0 0 26 3
707 1224 1205 1925 1465 914 397 141 46 25 0 0 0 13 16 22 6 25 4 0 0 0 0 0 0 0 0 0 2 17 24 13 0 1 2 1 0 0 0 0 13 25 74
728 1228 1739 1808 1603 1248 801 226 89 15 0 0 0 11 21 34 42 0 0 7 0 0 0 0 0 2 4 3 4 1 16 21 10 10 4 3 0 0 4 3 0 0 25
757 1152 1673 2014 1766 1429 880 411 214 46 0 0 0 6 11 39 66 53 13 6 0 0 0 0 4 5 5 0 4 17 17 14 0 12 16 19 19 0 40 69 84 38 27
894 1228 1295 1787 1835 1569 1178 757 376 122 38 0 0 0 6 17 23 109 35 13 1 0 0 0 15 26 26 58 84 86 71 51 24 56 50 55 15 15 100 201 294 329 197
989 1293 1203 1483 1379 1438 1267 1009 677 186 98 10 0 0 23 6 7 167 130 50 20 34 17 33 66 121 156 154 112 35 3 1 5 19 5 15 0 60 168 220 384 392 504
1129 1260 1267 1174 999 1339 1151 954 749 504 235 116 106 69 26 0 0 88 141 83 34 31 48 92 132 15 0 0 0 0 0 0 0 0 0 0 1 129 159 177 121 61 208
1211 1307 1391 1270 1335 1592 1153 773 607 468 247 122 88 16 0 0 0 0 0 0 15 48 30 27 0 0 0 0 0 0 0 0 0 0 0 0 0 0 0 0 0 0 3
1279 1296 1506 1526 1684 1521 1053 886 470 208 240 144 67 51 0 0 0 0 0 0 0 0 0 0 0 0 0 0 0 0 0 0 0 0 0 0 0 0 0 0 0 5 0
1213 1468 1549 1624 1817 1717 1347 982 620 382 448 367 176 118 0 0 0 0 1 5 57 0 0 0 0 0 0 0 0 0 0 0 0 0 0 0 0 0 0 13 0 0 0
1130 1470 1606 1676 1702 1714 1563 1175 842 537 513 465 305 152 19 0 1 0 37 54 1 0 0 0 0 0 0 0 0 0 0 0 0 0 0 0 0 0 0 0 0 0 0
830 1279 1593 1606 1639 1666 1682 1342 936 686 586 514 376 183 54 38 76 47 0 0 0 0 0 0 0 0 0 0 0 0 0 0 0 0 0 0 0 0 0 0 0 0 0
419 741 1438 1709 1739 1606 1751 1523 1212 832 579 625 466 152 138 120 132 0 0 0 0 0 0 0 0 0 0 0 0 0 0 0 0 0 0 0 0 0 0 0 0 0 0
6 89 461 1371 1722 1334 1697 1702 1312 913 671 641 408 253 209 33 0 0 0 0 0 0 0 0 0 0 0 0 0 0 0 0 0 0 0 0 0 0 0 0 0 0 0
0 0 0 80 1176 1654 2083 1716 1376 967 753 563 466 279 0 0 0 0 0 0 0 0 0 0 0 0 0 0 0 0 0 0 0 0 0 0 0 0 0 0 0 0 0
0 0 0 0 201 1039 1501 1515 1311 952 550 97 45 0 0 0 0 0 0 0 0 0 0 0 0 0 0 0 0 0 0 0 0 0 0 0 0 0 0 0 0 0 0
0 0 0 48 270 793 1239 1177 929 245 9 0 0 0 0 0 0 0 0 0 0 0 0 0 0 0 0 0 0 0 0 0 0 0 0 0 0 0 0 0 0 0 0
0 0 0 277 693 1013 857 339 0 0 0 0 0 0 0 0 0 0 0 0 0 0 0 0 0 0 0 0 0 0 0 0 0 0 0 0 0 0 0 0 0 0 0
0 0 106 567 821 878 577 390 25 0 0 0 0 0 0 0 0 0 0 0 0 0 0 0 0 0 0 0 0 0 0 0 0 0 0 0 0 0 0 0 0 0 0
0 4 254 649 722 612 428 130 0 0 0 0 0 0 0 0 0 0 0 0 0 0 0 0 0 0 0 0 0 0 0 0 0 0 0 0 0 0 0 0 0 0 0
0 3 354 606 456 474 135 0 0 0 0 0 0 0 0 0 0 0 0 0 0 0 0 0 0 0 0 0 0 0 0 0 0 0 0 0 0 0 0 0 0 0 0
0 10 376 411 315 103 0 0 0 0 0 0 0 0 0 0 0 0 0 0 0 0 0 0 0 0 0 0 0 0 0 0 0 0 0 0 0 0 0 0 0 0 0
0 8 241 195 174 0 0 0 0 0 0 0 0 0 0 0 0 0 0 0 0 0 0 0 0 0 0 0 0 0 0 0 0 0 0 0 0 0 0 0 0 0 0

GFSSE_con_sbcape_015.txt.gz
CAPE
253 1142 1716 823 546 272 136 6 1 0 0 0 4 43 61 60 32 0 1 3 0 0 0 0 3 21 60 74 52 37 31 20 0 0 0 0 0 0 0 7 21 16 11
596 1426 1627 1068 557 360 107 2 0 0 0 0 0 12 59 52 41 33 24 7 0 0 0 0 0 0 4 2 3 14 21 8 0 0 0 0 0 0 1 0 12 9 0
925 1255 1052 1419 1010 508 126 25 1 0 0 16 10 3 7 5 16 15 4 0 0 0 0 0 0 0 0 0 0 0 0 0 0 0 0 0 0 0 0 0 0 9 0
821 1159 976 1605 1251 665 239 74 36 0 0 8 7 0 0 0 0 0 0 0 0 0 0 0 0 0 0 0 0 0 0 0 0 0 0 0 0 0 0 0 5 3 24
795 1098 1293 1723 1439 841 375 103 63 3 0 0 0 0 0 3 0 0 0 0 0 0 0 0 0 0 0 0 0 5 26 30 0 1 6 5 0 2 0 0 0 3 35
869 1116 1340 1768 1464 1123 552 126 59 29 0 0 0 6 7 5 7 3 0 0 0 0 0 0 1 4 1 1 2 1 0 0 0 13 9 12 3 0 2 14 8 0 0
754 1666 1411 1805 1572 1275 711 246 107 30 8 2 0 0 24 27 49 38 1 9 0 0 0 0 2 10 2 0 13 24 12 5 1 24 19 31 53 15 37 42 111 154 64
747 1167 1524 1580 1591 1404 1020 636 223 49 18 7 3 0 12 1 92 55 17 11 0 1 0 2 10 21 53 108 128 97 36 13 1 11 21 19 15 24 84 111 235 327 352
760 995 1730 1550 1379 1310 1162 1009 615 195 70 25 16 0 59 3 115 121 55 21 1 0 0 37 124 130 75 37 4 0 0 0 0 0 0 1 0 34 93 67 212 158 128
803 1024 1137 1465 1485 1079 987 987 721 476 307 91 81 114 55 14 78 173 212 71 13 14 43 77 0 0 0 0 0 0 0 0 0 0 0 0 0 1 28 29 9 3 5
928 1076 1072 1061 938 1171 1085 758 683 480 207 173 98 33 0 0 0 0 0 10 25 14 31 0 0 0 0 0 0 0 0 0 0 0 0 0 0 0 0 0 0 1 40
1036 1117 1221 1142 1062 1409 1232 857 484 181 60 5 20 10 2 0 0 0 0 6 0 3 0 0 0 0 0 0 0 0 0 0 0 0 0 0 0 0 0 13 4 0 11
976 1198 1311 1448 1399 1283 957 1106 575 362 349 172 94 75 0 0 0 0 0 0 0 0 0 0 0 0 0 0 0 0 0 0 0 0 0 0 0 7 16 0 0 4 0
845 1154 1425 1597 1697 1727 1494 1140 766 463 448 386 209 113 0 0 0 0 0 46 5 0 0 0 0 0 0 0 0 0 0 0 0 0 0 0 0 0 0 0 0 0 0
560 977 1367 1670 1727 1850 1629 1371 984 562 553 489 382 247 12 0 8 10 5 0 0 0 0 0 0 0 0 0 0 0 0 0 0 0 0 0 0 0 0 0 0 0 0
311 714 1106 1536 1808 1647 1713 1603 1224 803 656 564 543 349 25 53 103 0 0 0 0 0 0 0 0 0 0 0 0 0 0 0 0 0 0 0 0 0 0 0 0 0 0
12 276 658 1268 1582 1710 1646 1790 1384 1193 731 657 565 308 127 209 23 0 0 0 0 0 0 0 0 0 0 0 0 0 0 0 0 0 0 0 0 0 0 0 0 0 0
0 0 118 630 1348 1633 1472 1931 1668 1321 914 713 566 278 287 83 0 0 0 0 0 0 0 0 0 0 0 0 0 0 0 0 0 0 0 0 0 0 0 0 0 0 0
0 0 0 2 473 1380 1629 1967 1772 1309 843 811 728 604 143 0 0 0 0 0 0 0 0 0 0 0 0 0 0 0 0 0 0 0 0 0 0 0 0 0 0 0 0
0 0 0 0 1 471 1589 1840 1525 1135 976 701 524 9 0 0 0 0 0 0 0 0 0 0 0 0 0 0 0 0 0 0 0 0 0 0 0 0 0 0 0 0 0
0 0 0 0 77 253 1051 1827 1395 995 625 211 0 0 0 0 0 0 0 0 0 0 0 0 0 0 0 0 0 0 0 0 0 0 0 0 0 0 0 0 0 0 0
0 0 0 1 120 546 1488 1541 979 503 33 0 0 0 0 0 0 0 0 0 0 0 0 0 0 0 0 0 0 0 0 0 0 0 0 0 0 0 0 0 0 0 0
0 0 0 38 347 909 1296 861 187 0 0 0 0 0 0 0 0 0 0 0 0 0 0 0 0 0 0 0 0 0 0 0 0 0 0 0 0 0 0 0 0 0 0
0 0 1 130 525 961 1110 668 91 0 0 0 0 0 0 0 0 0 0 0 0 0 0 0 0 0 0 0 0 0 0 0 0 0 0 0 0 0 0 0 0 0 0
0 0 19 160 565 849 779 864 118 0 0 0 0 0 0 0 0 0 0 0 0 0 0 0 0 0 0 0 0 0 0 0 0 0 0 0 0 0 0 0 0 0 0
0 2 40 276 584 770 829 294 0 15 0 0 0 0 0 0 0 0 0 0 0 0 0 0 0 0 0 0 0 0 0 0 0 0 0 0 0 0 0 0 0 0 0

GFSSE_con_sbcape_018.txt.gz
CAPE
822 1154 1538 719 470 240 101 32 0 0 0 1 86 120 72 38 18 10 0 0 0 0 0 6 13 25 74 93 75 56 33 17 0 0 0 0 0 0 0 7 11 15 10
951 999 1383 923 456 298 76 35 0 0 0 0 6 35 93 58 39 43 8 0 0 0 0 2 1 0 6 2 1 7 2 0 0 0 0 0 0 0 0 0 0 4 2
950 1080 968 1114 872 399 88 34 0 0 1 22 42 47 44 46 49 8 0 0 0 0 0 2 0 0 0 0 0 0 0 0 0 0 0 0 0 0 0 0 3 0 1
1216 809 705 1289 1034 416 99 48 0 0 6 0 0 0 0 0 0 0 0 0 0 0 0 0 0 0 0 0 0 0 0 0 0 2 0 0 0 0 0 0 0 6 10
901 705 957 1448 1130 670 173 73 2 0 2 21 0 2 0 0 0 0 0 0 0 0 0 0 0 0 0 0 0 0 0 0 4 10 5 0 0 0 0 0 0 0 0
891 938 1367 1513 1278 962 435 101 45 0 0 0 0 0 0 0 4 2 0 3 0 0 0 6 6 3 0 0 0 0 0 0 0 0 0 1 0 24 22 4 1 24 1
969 986 1266 1676 1377 1117 497 185 72 6 0 0 0 27 39 13 24 0 0 0 0 0 0 2 13 4 0 2 11 6 2 1 0 3 8 11 31 51 53 21 141 203 219
1222 1096 1132 1436 1440 1212 802 565 257 61 26 10 0 0 27 10 102 54 4 0 0 0 0 1 0 16 77 68 43 10 2 0 0 0 0 0 8 26 51 20 169 166 157
1181 1321 1035 998 1100 1075 892 787 448 200 110 78 73 37 37 96 496 111 40 0 5 0 1 82 57 10 5 0 0 0 0 0 0 0 0 0 0 0 21 32 23 10 10
714 1291 1223 1119 951 804 789 839 652 508 240 145 90 221 41 57 370 292 199 111 2 10 49 0 0 0 0 0 0 0 0 0 0 0 0 0 0 0 0 0 0 0 60
722 804 1206 1222 1058 877 695 623 612 513 289 120 155 47 13 0 44 85 16 19 37 17 0 0 0 0 0 0 0 0 0 0 0 0 0 0 0 0 0 4 10 13 37
688 804 787 1258 1198 849 947 477 317 184 32 15 19 0 0 0 0 0 0 21 12 0 0 0 0 0 0 0 0 0 0 0 0 0 0 0 0 0 27 5 21 10 2
723 803 856 806 825 1075 1006 407 281 94 12 0 0 0 0 0 0 0 0 0 0 0 0 0 0 0 0 0 0 0 0 0 0 0 0 0 11 25 10 23 2 0 1
705 882 966 1096 1085 1187 988 702 381 209 154 35 25 17 0 0 0 0 0 0 0 0 0 0 0 0 0 0 0 0 0 0 0 0 0 0 0 0 6 0 0 0 0
597 818 1012 1176 1430 1258 980 906 511 379 285 245 119 62 0 0 0 0 0 0 0 0 0 0 0 0 0 0 0 0 0 0 0 0 0 0 0 0 0 0 0 0 0
57 632 1046 1290 1515 1534 1220 1051 847 539 365 324 247 163 0 0 0 0 0 0 0 0 0 0 0 0 0 0 0 0 0 0 0 0 0 0 0 0 0 0 0 0 0
0 289 675 1203 1536 1504 1367 1300 1114 812 516 462 385 290 3 20 0 0 0 0 0 0 0 0 0 0 0 0 0 0 0 0 0 0 0 0 0 0 0 0 0 0 0
0 0 359 1008 1341 1581 1396 1407 1262 970 601 448 459 229 98 0 0 0 0 0 0 0 0 0 0 0 0 0 0 0 0 0 0 0 0 0 0 0 0 0 0 0 0
0 0 0 675 1119 1368 1350 1349 1422 1389 658 592 401 245 139 0 0 0 0 0 0 0 0 0 0 0 0 0 0 0 0 0 0 0 0 0 0 0 0 0 0 0 0
0 0 0 1 616 1163 1284 1277 1535 1169 701 658 480 185 0 0 0 0 0 0 0 0 0 0 0 0 0 0 0 0 0 0 0 0 0 0 0 0 0 0 0 0 0
0 0 0 0 0 211 1404 1340 1527 1050 644 328 0 0 0 0 0 0 0 0 0 0 0 0 0 0 0 0 0 0 0 0 0 0 0 0 0 0 0 0 0 0 0
0 0 0 0 0 0 698 1513 1415 767 340 0 0 0 0 0 0 0 0 0 0 0 0 0 0 0 0 0 0 0 0 0 0 0 0 0 0 0 0 0 0 0 0
0 0 0 0 0 0 90 939 45 0 0 0 0 0 0 0 0 0 0 0 0 0 0 0 0 0 0 0 0 0 0 0 0 0 0 0 0 0 0 0 0 0 0
0 0 0 0 0 0 944 324 0 1 0 0 0 0 0 0 0 0 0 0 0 0 0 0 0 0 0 0 0 0 0 0 0 0 0 0 0 0 0 0 0 0 0
0 0 0 0 0 395 882 188 0 0 0 0 0 0 0 0 0 0 0 0 0 0 0 0 0 0 0 0 0 0 0 0 0 0 0 0 0 0 0 0 0 0 0
0 0 0 0 8 453 916 160 0 0 0 0 0 0 0 0 0 0 0 0 0 0 0 0 0 0 0 0 0 0 0 0 0 0 0 0 0 0 0 0 0 0 0

GFSSE_con_sbcape_021.txt.gz
CAPE
641 925 1425 637 398 229 126 63 22 0 108 237 280 226 31 15 8 3 0 0 0 0 3 10 16 75 83 82 66 43 21 0 0 0 0 0 0 0 0 6 12 8 7
795 904 1298 862 455 255 130 42 0 0 0 19 161 124 40 27 23 1 0 0 0 0 2 7 4 5 13 7 7 0 0 0 0 0 0 0 0 0 0 0 0 1 0
912 878 801 1026 850 287 91 34 0 0 0 2 18 155 64 54 12 0 0 0 0 1 5 4 1 0 0 0 0 0 0 0 0 0 0 0 0 0 0 0 0 0 0
889 777 616 1148 852 257 81 32 0 45 0 15 46 28 24 30 5 1 0 0 0 0 1 0 0 0 0 0 0 0 0 0 0 11 0 0 0 0 0 0 0 2 3
797 677 744 1223 878 370 111 28 9 32 0 10 30 15 0 2 13 4 1 0 0 0 2 3 1 0 0 0 0 0 0 0 1 1 0 0 0 3 0 0 0 0 0
638 580 1112 1197 1028 717 424 75 38 37 0 0 4 41 17 8 9 0 0 0 0 0 4 4 2 0 0 0 0 0 0 0 8 0 0 14 0 35 14 3 0 33 42
609 826 1063 1395 1220 869 667 363 63 67 0 22 51 22 6 6 14 3 0 0 0 0 0 6 4 0 0 1 0 0 0 0 0 0 8 10 10 33 14 4 66 205 177
791 868 1025 1297 1270 944 699 559 224 121 99 19 41 59 34 45 26 23 0 0 1 0 1 1 1 34 52 15 0 0 0 0 0 0 0 0 3 2 3 4 60 41 20
859 839 1066 963 949 853 650 496 319 238 204 171 116 112 40 297 457 72 10 8 0 0 35 64 41 5 0 0 0 0 0 0 0 0 0 0 0 0 0 0 1 0 84
877 882 792 797 818 645 520 551 378 304 306 294 237 229 58 314 418 378 212 170 0 10 28 0 0 0 0 0 0 0 0 0 0 0 0 0 0 0 0 0 0 58 70
1056 871 742 722 646 533 506 453 451 383 210 215 210 66 11 91 159 114 40 56 90 57 0 0 0 0 0 0 0 0 0 0 0 0 0 0 0 0 25 22 44 32 24
1045 1053 891 807 691 585 687 394 210 198 60 32 37 24 0 0 15 26 9 38 105 50 0 0 0 0 0 0 0 0 0 0 0 0 0 0 0 31 35 29 23 18 25
179 1133 1114 983 852 717 701 321 122 51 0 1 0 0 0 0 0 0 0 0 0 0 0 0 0 0 0 0 0 0 0 0 0 0 0 4 7 11 25 15 7 3 3
276 344 656 1142 938 757 597 364 159 57 0 0 0 0 0 0 0 0 0 0 0 0 0 0 0 0 0 0 0 0 0 0 0 0 0 0 0 8 2 0 0 0 0
278 386 391 735 877 910 774 434 273 84 35 0 0 0 0 0 0 0 0 0 0 0 0 0 0 0 0 0 0 0 0 0 0 0 0 0 0 0 0 0 0 0 0
149 423 566 621 995 887 974 580 392 165 143 56 22 0 0 0 0 0 0 0 0 0 0 0 0 0 0 0 0 0 0 0 0 0 0 0 0 0 0 0 0 0 0
0 235 710 873 992 926 836 768 566 197 266 184 101 17 0 0 0 0 0 0 0 0 0 0 0 0 0 0 0 0 0 0 0 0 0 0 0 0 0 0 0 0 0
0 0 766 1215 1319 1165 1023 968 907 598 201 319 309 186 1 0 0 0 0 0 0 0 0 0 0 0 0 0 0 0 0 0 0 0 0 0 0 0 0 0 0 0 0
0 0 94 1222 1469 1298 1174 1058 1128 763 450 402 275 61 1 0 0 0 0 0 0 0 0 0 0 0 0 0 0 0 0 0 0 0 0 0 0 0 0 0 0 0 0
0 0 0 678 1523 1460 1258 1217 1088 878 354 274 260 37 0 0 0 0 0 0 0 0 0 0 0 0 0 0 0 0 0 0 0 0 0 0 0 0 0 0 0 0 0
0 0 0 46 1099 1427 1240 1105 1149 1030 530 318 138 0 0 0 0 0 0 0 0 0 0 0 0 0 0 0 0 0 0 0 0 0 0 0 0 0 0 0 0 0 0
0 0 0 0 368 1197 1209 1224 1175 1004 191 17 0 0 0 0 0 0 0 0 0 0 0 0 0 0 0 0 0 0 0 0 0 0 0 0 0 0 0 0 0 0 0
0 0 0 0 0 1004 1154 806 0 0 0 0 0 0 0 0 0 0 0 0 0 0 0 0 0 0 0 0 0 0 0 0 0 0 0 0 0 0 0 0 0 0 0
0 0 0 0 0 0 880 661 160 212 0 0 0 0 0 0 0 0 0 0 0 0 0 0 0 0 0 0 0 0 0 0 0 0 0 0 0 0 0 0 0 0 0
0 0 0 0 0 0 756 366 347 103 0 0 0 0 0 0 0 0 0 0 0 0 0 0 0 0 0 0 0 0 0 0 0 0 0 0 0 0 0 0 0 0 0
0 0 0 0 0 65 524 147 244 0 0 0 0 0 0 0 0 0 0 0 0 0 0 0 0 0 0 0 0 0 0 0 0 0 0 0 0 0 0 0 0 0 0

GFSSE_con_sbcape_024.txt.gz
CAPE
385 762 1266 529 344 285 215 190 407 636 612 562 356 116 20 7 4 1 0 0 0 1 4 10 109 107 75 81 68 25 7 0 0 0 0 0 0 0 0 1 11 9 1
518 779 1172 719 392 303 173 111 104 347 490 458 368 112 30 18 7 0 0 0 0 0 5 8 20 56 42 20 1 0 0 0 0 0 0 0 0 0 0 0 0 0 0
764 759 689 963 709 300 104 52 45 56 162 330 302 87 34 22 3 0 0 0 1 4 10 7 5 4 1 0 0 0 0 0 0 0 0 0 0 0 0 0 0 0 0
725 691 502 993 516 165 93 58 47 53 34 49 307 154 66 6 0 0 0 0 0 2 1 1 0 0 0 0 0 0 0 0 2 4 0 0 0 0 0 0 0 2 3
707 541 554 1012 686 164 98 50 126 67 105 151 91 69 28 2 1 0 0 0 0 0 1 0 0 0 0 0 0 0 0 0 12 0 0 0 0 9 1 0 0 0 0
563 453 887 1013 831 506 193 165 104 2 0 18 54 28 14 7 6 4 0 0 0 2 4 1 0 0 0 0 0 0 0 7 0 0 0 0 0 37 10 0 17 49 56
471 537 838 1145 736 419 273 349 281 59 20 20 29 3 5 10 6 3 0 0 1 4 5 8 0 0 0 0 0 0 0 0 0 0 0 11 18 35 12 2 115 69 61
551 757 805 1095 971 791 425 293 414 242 70 64 100 58 37 44 30 29 0 0 2 1 11 10 11 35 36 0 0 0 0 0 0 0 0 0 5 2 2 9 7 0 63
671 711 778 854 773 780 692 315 275 362 290 395 383 315 276 306 187 89 27 31 0 7 45 89 86 21 0 0 0 0 0 0 0 0 0 0 0 0 0 0 0 47 50
668 724 825 814 668 471 436 475 297 308 359 290 411 238 83 339 407 341 210 208 19 95 74 35 9 0 0 0 0 0 0 0 0 0 0 0 0 0 0 0 36 68 56
674 782 727 694 582 379 336 288 357 340 348 286 266 57 119 160 212 199 85 165 168 187 31 1 0 0 0 0 0 0 0 0 0 0 0 0 0 29 44 58 40 51 36
758 715 685 653 555 417 467 279 152 128 72 64 83 24 0 56 90 67 76 70 246 221 15 0 0 0 0 0 0 0 0 0 0 0 0 0 26 52 42 34 41 35 26
916 810 748 668 580 483 522 280 115 68 5 1 14 8 0 0 5 2 0 8 16 4 0 0 0 0 0 0 0 0 0 0 0 0 0 25 26 46 26 18 8 6 1
980 953 856 752 637 508 511 315 154 69 0 0 0 0 0 0 0 0 0 0 0 0 0 0 0 0 0 0 0 0 0 0 0 0 0 0 10 2 6 0 0 0 0
238 1072 1043 911 795 657 413 296 143 67 0 0 0 0 0 0 0 0 0 0 0 0 0 0 0 0 0 0 0 0 0 0 0 0 0 0 0 0 0 0 0 0 0
17 231 1023 1063 936 733 575 337 143 57 0 0 0 0 0 0 0 0 0 0 0 0 0 0 0 0 0 0 0 0 0 0 0 0 0 0 0 0 0 0 0 0 0
0 68 220 1215 1024 776 707 336 148 70 39 3 0 0 0 0 0 0 0 0 0 0 0 0 0 0 0 0 0 0 0 0 0 0 0 0 0 0 0 0 0 0 0
0 0 152 748 973 846 841 461 283 130 68 51 9 1 0 0 0 0 0 0 0 0 0 0 0 0 0 0 0 0 0 0 0 0 0 0 0 0 0 0 0 0 0
0 0 13 389 818 874 801 584 390 245 72 94 77 67 0 0 0 0 0 0 0 0 0 0 0 0 0 0 0 0 0 0 0 0 0 0 0 0 0 0 0 0 0
0 0 0 374 887 991 781 642 298 356 161 135 198 134 0 0 0 0 0 0 0 0 0 0 0 0 0 0 0 0 0 0 0 0 0 0 0 0 0 0 0 0 0
0 0 0 56 866 1006 853 732 592 624 349 76 249 0 0 0 0 0 0 0 0 0 0 0 0 0 0 0 0 0 0 0 0 0 0 0 0 0 0 0 0 0 0
0 0 0 0 571 1101 1065 1115 874 706 288 258 0 0 0 0 0 0 0 0 0 0 0 0 0 0 0 0 0 0 0 0 0 0 0 0 0 0 0 0 0 0 0
0 0 0 0 17 1172 1203 749 0 0 0 0 0 0 0 0 0 0 0 0 0 0 0 0 0 0 0 0 0 0 0 0 0 0 0 0 0 0 0 0 0 0 0
0 0 0 0 0 609 925 759 283 410 149 0 0 0 0 0 0 0 0 0 0 0 0 0 0 0 0 0 0 0 0 0 0 0 0 0 0 0 0 0 0 0 0
0 0 0 0 0 0 859 814 309 394 188 0 0 0 0 0 0 0 0 0 0 0 0 0 0 0 0 0 0 0 0 0 0 0 0 0 0 0 0 0 0 0 0
0 0 0 0 0 0 654 744 414 310 0 0 0 0 0 0 0 0 0 0 0 0 0 0 0 0 0 0 0 0 0 0 0 0 0 0 0 0 0 0 0 0 0

GFSSE_con_sbcape_027.txt.gz
CAPE
167 562 1355 615 622 483 566 737 680 962 986 505 244 93 22 1 0 0 0 0 0 0 4 90 60 66 55 62 54 9 0 0 0 0 0 0 0 0 1 0 0 3 0
381 639 1174 589 482 417 519 706 967 1132 1049 597 254 63 36 9 0 0 0 0 2 4 12 63 109 144 65 21 1 0 0 0 0 0 0 0 0 0 0 0 0 0 0
585 594 456 558 395 355 277 348 520 631 674 533 276 129 50 15 1 0 0 0 1 7 10 6 9 15 3 0 0 0 0 0 0 0 0 0 0 0 0 0 0 0 0
600 561 410 654 376 298 133 100 147 324 523 498 247 116 58 5 0 0 0 0 4 11 8 3 3 1 0 0 0 0 0 0 0 0 0 0 0 0 0 0 0 2 1
591 447 498 954 631 171 106 73 59 76 91 453 285 184 22 0 0 0 0 0 0 1 1 0 0 0 0 0 0 0 0 0 0 0 0 0 0 8 6 0 0 0 0
429 335 800 887 511 372 124 137 194 211 239 383 348 115 29 1 0 0 0 0 0 2 1 0 0 0 0 0 0 0 4 0 0 0 0 0 0 47 11 0 44 89 90
299 370 709 950 526 233 189 433 145 81 148 120 71 77 60 22 16 0 0 0 1 4 4 2 0 0 2 2 0 0 0 0 0 0 0 0 3 28 4 4 37 15 57
395 576 667 764 731 462 336 493 311 205 95 110 167 84 65 51 48 14 0 0 0 3 27 7 7 30 21 0 0 0 0 0 0 0 0 0 0 0 8 1 0 40 127
525 609 588 591 599 563 401 501 347 309 254 269 254 256 255 222 167 63 23 13 1 35 52 51 119 43 0 0 0 0 0 0 0 0 0 0 0 0 0 0 0 67 29
568 621 578 578 540 473 288 315 416 364 394 446 460 370 263 268 303 285 183 187 16 84 236 163 63 0 0 0 0 0 0 0 0 0 0 0 0 0 0 2 126 67 25
579 629 687 641 465 303 284 217 277 360 339 359 353 156 58 142 237 212 102 207 170 279 109 59 0 0 0 0 0 0 0 0 0 0 0 0 1 60 99 64 68 35 21
576 612 634 638 437 261 332 176 124 143 170 128 155 26 37 80 127 140 110 168 312 340 109 0 0 0 0 0 0 0 0 0 0 0 0 0 43 54 51 43 34 30 20
681 630 557 620 487 314 333 134 72 56 27 20 27 3 0 30 63 34 16 45 42 68 0 0 0 0 0 0 0 0 0 0 0 0 0 46 41 34 20 14 7 1 2
727 690 714 655 529 355 322 191 93 49 4 2 5 0 0 0 2 0 0 0 0 0 0 0 0 0 0 0 0 0 0 0 0 0 0 21 7 1 2 0 0 0 0
883 772 782 681 599 451 337 246 126 78 18 1 0 0 0 0 0 0 0 0 0 0 0 0 0 0 0 0 0 0 0 0 0 0 0 0 0 0 0 0 0 0 0
379 940 782 760 636 494 396 253 138 91 40 0 0 0 0 0 0 0 0 0 0 0 0 0 0 0 0 0 0 0 0 0 0 0 0 0 0 0 0 0 0 0 0
0 43 916 818 718 593 488 262 118 74 40 0 0 0 0 0 0 0 0 0 0 0 0 0 0 0 0 0 0 0 0 0 0 0 0 0 0 0 0 0 0 0 0
0 0 127 1110 914 746 637 313 171 59 20 0 0 0 0 0 0 0 0 0 0 0 0 0 0 0 0 0 0 0 0 0 0 0 0 0 0 0 0 0 0 0 0
0 0 0 387 1152 935 671 373 201 54 12 0 0 0 0 0 0 0 0 0 0 0 0 0 0 0 0 0 0 0 0 0 0 0 0 0 0 0 0 0 0 0 0
0 0 0 97 757 991 756 513 193 83 18 4 11 0 0 0 0 0 0 0 0 0 0 0 0 0 0 0 0 0 0 0 0 0 0 0 0 0 0 0 0 0 0
0 0 0 8 394 761 656 533 322 196 103 8 37 36 0 0 0 0 0 0 0 0 0 0 0 0 0 0 0 0 0 0 0 0 0 0 0 0 0 0 0 0 0
0 0 0 0 110 676 792 707 570 482 257 54 29 0 0 0 0 0 0 0 0 0 0 0 0 0 0 0 0 0 0 0 0 0 0 0 0 0 0 0 0 0 0
0 0 0 0 0 461 898 562 1 0 0 0 0 0 0 0 0 0 0 0 0 0 0 0 0 0 0 0 0 0 0 0 0 0 0 0 0 0 0 0 0 0 0
0 0 0 0 0 0 800 535 145 327 176 90 0 0 0 0 0 0 0 0 0 0 0 0 0 0 0 0 0 0 0 0 0 0 0 0 0 0 0 0 0 0 0
0 0 0 0 0 0 369 869 433 306 320 27 0 0 0 0 0 0 0 0 0 0 0 0 0 0 0 0 0 0 0 0 0 0 0 0 0 0 0 0 0 0 0
0 0 0 0 0 0 8 730 570 443 0 0 0 0 0 0 0 0 0 0 0 0 0 0 0 0 0 0 0 0 0 0 0 0 0 0 0 0 0 0 0 0 0

GFSSE_con_sbcape_030.txt.gz
CAPE
44 297 1510 924 924 657 843 1068 1266 1412 1200 819 529 173 43 5 2 0 0 0 0 1 68 29 65 63 54 57 25 0 0 0 0 0 0 0 0 1 2 0 8 0 0
113 550 1381 1214 828 655 742 1046 1270 1312 1158 576 334 100 25 2 0 0 0 0 0 0 62 86 127 85 63 20 0 0 0 0 0 0 0 0 0 0 0 0 0 0 4
415 573 530 1202 952 763 1082 1024 1024 1026 1061 762 229 99 21 2 0 0 0 0 3 2 47 46 28 6 7 0 0 0 0 0 0 0 0 0 0 0 0 0 0 0 0
496 415 199 657 771 450 590 663 763 833 831 531 300 126 46 1 0 0 1 3 7 18 32 12 3 6 1 0 1 1 1 0 0 0 0 0 0 0 0 0 0 0 0
419 292 164 724 593 330 306 293 407 607 746 598 321 152 49 0 0 0 1 3 5 2 1 0 0 0 0 1 1 0 0 0 0 0 0 0 0 6 2 0 0 0 0
315 253 507 886 671 407 218 118 126 142 308 634 337 117 29 0 0 0 0 2 3 1 1 0 0 0 0 2 1 0 0 0 0 0 0 0 0 36 9 2 110 100 124
172 297 669 922 469 211 175 362 401 208 265 551 412 136 61 19 0 0 0 0 3 5 3 0 1 6 17 16 1 0 0 0 0 0 0 0 0 19 0 27 0 100 139
286 496 511 621 626 391 416 454 349 341 328 263 290 221 109 57 24 0 0 0 2 10 35 18 35 60 4 0 0 0 0 0 0 0 0 0 0 0 1 0 9 88 58
384 474 419 428 452 433 478 445 268 330 296 308 313 289 260 225 133 42 14 8 15 57 62 86 160 28 0 0 0 0 0 0 0 0 0 0 0 0 0 0 97 64 32
439 446 352 340 357 223 273 483 367 319 278 332 344 315 239 243 297 167 160 126 27 101 153 219 69 0 0 0 0 0 0 0 0 0 0 0 0 0 1 104 69 33 23
435 451 379 329 303 189 124 233 341 328 279 299 315 247 175 101 191 181 89 164 127 267 177 109 1 0 0 0 0 0 0 0 0 0 0 0 28 83 78 48 33 27 12
427 395 516 488 321 219 258 132 141 167 174 166 181 87 19 56 105 129 95 175 230 298 159 13 0 0 0 0 0 0 0 0 0 0 0 8 54 61 38 28 19 18 5
349 327 351 350 416 237 294 101 54 66 89 66 81 21 6 38 71 64 42 68 56 34 0 0 0 0 0 0 0 0 0 0 0 0 2 48 33 25 15 10 1 0 0
621 440 438 343 371 275 204 130 58 36 24 22 22 14 0 12 33 22 13 3 0 0 0 0 0 0 0 0 0 0 0 0 0 0 0 15 3 0 0 0 0 0 0
604 564 563 467 418 260 181 162 60 46 20 46 12 3 0 0 11 0 0 0 0 0 0 0 0 0 0 0 0 0 0 0 0 0 0 0 0 0 0 0 0 0 0
764 786 635 573 453 384 286 218 85 44 23 0 0 0 0 0 0 0 0 0 0 0 0 0 0 0 0 0 0 0 0 0 0 0 0 0 0 0 0 0 0 0 0
75 838 685 705 602 467 302 251 100 55 17 0 0 0 0 0 0 0 0 0 0 0 0 0 0 0 0 0 0 0 0 0 0 0 0 0 0 0 0 0 0 0 0
0 0 587 885 787 580 467 367 169 67 38 0 0 0 0 0 0 0 0 0 0 0 0 0 0 0 0 0 0 0 0 0 0 0 0 0 0 0 0 0 0 0 0
0 0 0 710 880 768 658 442 227 88 20 3 0 0 0 0 0 0 0 0 0 0 0 0 0 0 0 0 0 0 0 0 0 0 0 0 0 0 0 0 0 0 0
0 0 0 1 809 837 770 521 254 57 26 0 0 0 0 0 0 0 0 0 0 0 0 0 0 0 0 0 0 0 0 0 0 0 0 0 0 0 0 0 0 0 0
0 0 0 0 2 804 882 634 444 181 93 0 18 0 0 0 0 0 0 0 0 0 0 0 0 0 0 0 0 0 0 0 0 0 0 0 0 0 0 0 0 0 0
0 0 0 0 0 204 702 733 591 508 211 115 47 26 0 0 0 0 0 0 0 0 0 0 0 0 0 0 0 0 0 0 0 0 0 0 0 0 0 0 0 0 0
0 0 0 0 0 24 468 568 1 0 0 0 0 0 0 0 0 0 0 0 0 0 0 0 0 0 0 0 0 0 0 0 0 0 0 0 0 0 0 0 0 0 0
0 0 0 0 0 0 185 469 364 451 371 39 111 53 0 0 0 0 0 0 0 0 0 0 0 0 0 0 0 0 0 0 0 0 0 0 0 0 0 0 0 0 0
0 0 0 0 0 0 0 524 227 335 312 8 96 0 0 0 0 0 0 0 0 0 0 0 0 0 0 0 0 0 0 0 0 0 0 0 0 0 0 0 0 0 0
0 0 0 0 0 0 0 93 484 427 315 0 0 0 0 0 0 0 0 0 0 0 0 0 0 0 0 0 0 0 0 0 0 0 0 0 0 0 0 0 0 0 0

GFSSE_con_sbcape_033.txt.gz
CAPE
60 1007 1480 1247 1485 1331 1292 1349 1662 1588 1558 1115 775 390 66 15 1 0 0 0 0 12 33 40 65 61 64 16 0 0 0 0 0 0 0 0 0 2 2 2 0 0 0
88 882 1264 1235 1013 941 1300 1790 1733 1631 1539 993 522 135 36 4 0 0 0 0 0 58 85 72 72 67 39 0 0 0 0 0 0 0 0 0 0 0 0 0 0 0 3
312 867 555 1228 1164 1104 1328 1355 1495 1388 1214 750 387 107 27 2 0 0 0 0 0 63 87 98 36 1 0 0 0 0 0 0 0 0 0 0 0 0 0 0 0 0 0
638 681 372 1081 1169 1296 1422 1506 1399 1206 845 824 322 80 28 0 0 0 0 0 0 36 25 10 5 2 0 0 1 3 0 0 0 0 0 0 0 3 0 0 0 0 0
642 384 224 882 842 634 850 895 1031 1051 866 619 334 112 29 0 0 0 3 6 6 22 6 1 1 0 1 3 6 4 0 0 0 0 0 0 8 17 2 1 7 0 0
533 262 422 885 764 684 679 541 666 765 934 698 451 129 9 0 1 1 3 2 0 0 0 0 0 0 0 2 6 0 0 0 0 0 0 0 31 31 6 50 41 95 174
504 342 307 957 719 485 417 398 484 364 602 756 361 109 20 0 1 1 1 1 3 1 0 1 8 27 23 5 0 0 0 0 0 0 1 8 4 11 15 0 132 154 128
537 500 416 727 605 493 406 481 453 352 267 730 542 163 62 5 1 0 1 9 13 19 16 39 61 31 0 0 0 0 0 0 0 0 0 0 0 0 0 0 81 49 13
609 625 547 436 372 417 554 516 463 589 706 650 562 437 216 173 47 0 11 21 36 103 88 99 83 0 0 0 0 0 0 0 0 0 0 0 0 0 0 42 54 30 10
738 622 527 470 384 220 337 339 274 397 370 402 345 257 189 175 179 101 77 70 63 133 139 187 11 0 0 0 0 0 0 0 0 0 0 0 0 0 57 62 47 28 17
652 681 575 507 427 221 321 235 233 266 242 240 209 167 115 139 160 115 55 91 125 256 224 95 0 0 0 0 0 0 0 0 0 0 0 0 99 102 49 26 17 10 9
525 389 523 573 484 254 189 281 234 187 210 211 210 237 203 220 253 182 83 113 168 245 177 11 0 0 0 0 0 0 0 0 0 0 0 36 61 44 18 4 1 0 0
378 247 411 315 501 456 214 210 237 224 210 255 252 222 159 153 222 283 226 240 187 39 0 0 0 0 0 0 0 0 0 0 0 0 15 56 30 19 2 0 0 0 0
493 391 308 233 237 343 469 226 154 172 189 194 207 188 90 160 217 288 244 236 169 68 0 0 0 0 0 0 0 0 0 0 0 0 0 5 3 0 0 0 0 0 0
542 533 426 317 306 346 278 375 191 126 168 176 149 130 51 146 226 225 202 156 111 8 0 0 0 0 0 0 0 0 0 0 0 0 0 0 0 0 0 0 0 0 0
915 805 564 430 455 401 324 294 281 157 103 125 121 105 47 75 199 178 134 101 50 0 0 0 0 0 0 0 0 0 0 0 0 0 0 0 0 0 0 0 0 0 0
303 844 846 674 510 484 409 272 275 218 115 92 76 70 49 7 93 148 116 65 30 0 0 0 0 0 0 0 0 0 0 0 0 0 0 0 0 0 0 0 0 0 0
0 12 737 820 729 598 526 365 261 241 179 107 55 23 28 13 0 50 80 56 2 0 0 0 0 0 0 0 0 0 0 0 0 0 0 0 0 0 0 0 0 0 0
0 0 0 628 988 863 620 509 297 188 291 229 53 19 0 0 0 0 1 19 0 0 0 0 0 0 0 0 0 0 0 0 0 0 0 0 0 0 0 0 0 0 0
0 0 0 0 548 1089 939 448 376 232 163 262 88 31 0 0 0 0 0 0 0 0 0 0 0 0 0 0 0 0 0 0 0 0 0 0 0 0 0 0 0 0 0
0 0 0 0 0 759 901 665 490 512 237 114 139 55 7 6 0 0 0 0 0 0 0 0 0 0 0 0 0 0 0 0 0 0 0 0 0 0 0 0 0 0 0
0 0 0 0 0 0 658 708 536 503 401 294 118 86 7 0 0 0 0 0 0 0 0 0 0 0 0 0 0 0 0 0 0 0 0 0 0 0 0 0 0 0 0
0 0 0 0 0 0 41 734 228 18 1 220 57 118 70 21 0 0 0 0 0 0 0 0 0 0 0 0 0 0 0 0 0 0 0 0 0 0 0 0 0 0 0
0 0 0 0 0 0 3 420 433 144 152 228 302 309 264 21 1 0 0 0 0 0 0 0 0 0 0 0 0 0 0 0 0 0 0 0 0 0 0 0 0 0 0
0 0 0 0 0 0 0 220 572 444 499 564 355 327 195 1 0 0 0 0 0 0 0 0 0 0 0 0 0 0 0 0 0 0 0 0 0 0 0 0 0 0 0
0 0 0 0 0 0 0 0 280 500 479 491 188 291 200 1 1 0 0 0 0 0 0 0 0 0 0 0 0 0 0 0 0 0 0 0 0 0 0 0 0 0 0

GFSSE_con_sbcape_036.txt.gz
CAPE
580 1139 1789 1960 1527 1467 1493 1561 1646 1749 1678 1181 1007 558 262 34 1 0 0 2 0 0 10 65 57 43 37 10 0 0 0 0 0 0 0 0 1 4 5 0 0 1 0
600 903 1432 1701 1870 1915 1857 2036 1876 1863 1700 1202 674 215 34 7 1 0 0 0 1 50 40 71 68 42 0 0 0 0 0 0 0 0 0 0 0 0 0 0 0 2 2
753 594 336 1530 1636 1887 2044 1956 1916 1811 1547 881 448 123 21 4 0 0 0 0 64 196 93 70 21 0 0 0 0 0 0 0 0 0 0 0 0 0 0 0 0 0 1
684 548 354 1085 959 1285 1793 1752 1750 1467 1360 767 349 49 1 0 0 0 0 0 64 50 23 11 3 0 0 0 1 1 0 0 0 0 1 10 9 0 0 0 0 0 0
737 601 522 939 935 1363 1481 1650 1533 1362 1117 763 435 69 0 0 0 1 1 1 21 9 5 2 0 1 0 3 3 1 0 0 0 0 7 25 30 6 3 93 38 3 11
679 519 490 933 903 1259 1000 1278 1406 1177 894 604 360 54 0 0 0 2 4 0 0 0 0 0 0 0 0 7 3 0 0 0 0 1 7 10 32 2 17 1 153 233 187
533 379 350 876 863 738 648 646 904 1047 1017 658 269 53 0 0 1 2 1 0 0 0 0 0 3 7 4 0 0 0 0 0 5 4 17 13 22 13 1 127 175 148 121
573 390 308 604 758 570 506 531 589 578 953 899 511 92 8 0 2 1 2 4 2 2 5 22 53 1 0 0 0 0 0 0 4 12 3 0 0 0 0 83 39 6 15
668 448 306 353 290 398 477 474 496 423 513 924 544 375 189 61 12 1 24 32 49 59 65 101 5 0 0 0 0 0 0 0 0 0 0 0 0 0 0 115 38 26 18
816 550 388 333 230 172 189 429 349 550 834 767 481 335 198 135 97 40 99 80 116 157 170 92 0 0 0 0 0 0 0 0 0 0 0 0 0 1 100 52 38 23 8
872 700 473 299 173 140 182 168 185 240 252 265 234 163 85 73 45 23 18 84 159 178 241 26 0 0 0 0 0 0 0 0 0 0 0 40 118 77 44 21 11 7 1
688 743 600 362 185 162 146 195 95 91 159 173 166 145 106 95 89 39 24 66 198 268 213 5 0 0 0 0 0 0 0 0 0 0 0 88 36 24 8 2 2 0 0
465 489 489 429 300 240 155 194 173 101 126 146 135 112 107 123 198 196 121 117 94 67 88 0 0 0 0 0 0 0 0 0 0 0 24 85 32 11 0 0 0 0 0
545 502 349 367 418 365 302 208 209 147 134 134 135 130 182 230 243 233 221 129 92 83 37 0 0 0 0 0 0 0 0 0 0 0 9 16 2 0 0 0 0 0 0
638 468 478 445 462 319 382 507 309 248 157 114 153 149 153 197 268 264 234 191 153 90 8 0 0 0 0 0 0 0 0 0 0 0 7 0 0 0 0 0 0 0 0
1016 901 682 604 499 382 304 393 700 479 240 163 126 142 167 146 200 236 219 200 167 139 20 0 0 0 0 0 0 0 0 0 0 0 1 0 0 0 0 0 0 0 0
178 751 1092 945 813 620 607 582 517 874 573 302 187 124 120 102 127 195 279 272 224 155 41 0 0 0 0 0 0 0 0 0 0 0 0 0 0 0 0 0 0 0 0
0 0 46 578 1034 870 742 706 690 566 875 742 439 223 124 84 73 149 233 306 290 146 23 0 0 0 0 0 0 0 0 0 0 0 0 0 0 0 0 0 0 0 0
0 0 0 0 469 894 979 767 737 658 574 1081 851 516 277 138 84 65 135 188 187 126 0 0 0 0 0 0 0 0 0 0 0 0 0 0 0 0 0 0 0 0 0
0 0 0 0 0 296 957 802 719 698 569 633 1071 875 575 361 173 89 49 81 117 83 0 0 0 0 0 0 0 0 0 0 0 0 0 0 0 0 0 0 0 0 0
0 0 0 0 0 0 200 886 633 482 571 428 591 1038 855 606 355 170 67 48 79 48 0 0 0 0 0 0 0 0 0 0 0 0 0 0 0 0 0 0 0 0 0
0 0 0 0 0 0 0 229 750 785 623 570 445 382 898 741 566 320 156 100 46 16 0 0 0 0 0 0 0 0 0 0 0 0 0 0 0 0 0 0 0 0 0
0 0 0 0 0 0 0 0 396 770 821 711 565 476 411 862 621 501 263 201 91 11 11 0 0 0 0 0 0 0 0 0 0 0 0 0 0 0 0 0 0 0 0
0 0 0 0 0 0 0 0 0 351 379 365 367 567 519 449 670 658 352 199 64 0 0 0 0 0 0 0 0 0 0 0 0 0 0 0 0 0 0 0 0 0 0
0 0 0 0 0 0 0 0 0 20 26 49 216 529 539 458 371 474 274 204 77 1 0 0 0 0 0 0 0 0 0 0 0 0 0 0 0 0 0 0 0 0 0
0 0 0 0 0 0 0 0 0 0 57 77 382 781 773 663 248 239 189 229 78 29 5 1 0 0 0 0 0 0 0 0 0 0 0 0 0 0 0 0 0 0 0

GFSSE_con_sbcape_039.txt.gz
CAPE
990 1034 2365 1927 1319 1745 1476 1756 1597 1631 1509 1167 965 632 341 40 4 5 2 2 0 0 49 45 45 20 10 0 0 0 0 0 0 0 0 0 3 3 0 0 10 2 0
1149 874 2158 1945 1663 1667 1821 2014 1943 1711 1668 1294 714 381 45 1 0 0 0 0 34 34 73 62 33 0 0 0 0 0 0 0 0 0 0 0 0 0 0 0 0 0 0
977 602 559 1996 1970 2152 2178 1896 1962 1818 1567 928 461 153 13 0 0 0 0 32 123 71 90 34 1 0 0 0 0 0 0 0 0 0 0 1 0 0 0 0 0 0 0
757 445 480 1487 1652 2108 2046 2148 1858 1585 1235 696 233 16 0 0 0 0 0 53 67 63 40 16 0 0 0 1 2 1 0 0 0 0 4 10 3 0 7 20 0 0 0
611 351 645 1162 1320 1883 1975 1809 1638 1658 1177 621 227 0 0 0 0 0 2 30 18 12 9 4 0 0 0 2 3 0 0 0 0 1 15 28 23 2 37 102 42 75 5
577 475 445 715 797 1081 1335 1654 1486 1115 824 354 124 2 0 0 2 4 8 1 0 0 0 0 0 0 0 5 0 0 0 0 0 10 25 22 21 18 2 157 234 278 210
490 552 375 853 1010 864 960 1225 1507 1299 878 441 150 3 0 1 3 3 0 0 0 0 0 0 1 3 2 0 0 0 0 0 7 9 15 18 3 1 7 220 80 90 84
419 455 338 502 552 688 578 575 948 1042 1046 576 274 39 0 0 1 1 0 0 0 0 0 21 8 0 0 0 0 0 0 0 9 9 1 0 0 0 1 34 7 10 14
478 319 299 247 269 375 428 401 494 458 889 826 377 186 72 27 6 0 1 5 9 17 45 79 0 0 0 0 0 0 0 0 0 0 0 0 0 0 52 53 39 16 12
650 350 295 277 207 134 123 321 339 271 363 751 375 232 84 23 33 35 71 48 124 101 122 9 0 0 0 0 0 0 0 0 0 0 0 0 0 3 73 45 29 18 4
769 532 345 242 164 92 86 128 158 270 511 386 202 114 21 2 0 0 7 82 126 151 191 0 0 0 0 0 0 0 0 0 0 0 0 145 85 95 27 10 8 7 3
742 673 426 213 136 89 100 157 88 123 176 210 215 156 64 20 4 0 0 41 136 283 154 0 0 0 0 0 0 0 0 0 0 0 7 120 31 15 3 0 0 0 0
604 682 554 387 156 90 90 161 73 69 89 130 134 151 86 41 61 20 41 0 76 88 89 0 0 0 0 0 0 0 0 0 0 0 10 69 18 2 0 0 0 0 0
576 467 447 493 348 194 156 147 158 97 84 106 106 80 53 95 153 72 51 27 2 128 92 8 0 0 0 0 0 0 0 0 0 2 0 15 11 0 0 0 0 0 0
798 579 454 405 517 364 279 233 226 206 114 91 90 104 85 150 244 174 109 97 59 39 41 2 0 0 0 0 0 0 0 0 0 0 1 0 0 0 0 0 0 0 0
675 784 650 474 557 608 371 515 667 445 332 139 100 116 79 106 168 325 214 154 121 112 54 6 0 0 0 0 0 0 0 0 0 0 0 0 0 0 0 0 0 0 0
507 805 938 863 809 771 722 448 553 990 626 426 200 104 95 88 104 106 161 230 177 130 97 19 0 0 0 0 0 0 0 0 0 0 0 0 0 0 0 0 0 0 0
0 0 308 842 962 972 914 926 487 790 1018 806 539 326 151 110 103 114 177 278 177 157 160 55 0 0 0 0 0 0 0 0 0 0 0 0 0 0 0 0 0 0 0
0 0 0 0 238 837 1044 950 717 602 682 1189 985 751 475 254 118 104 172 280 226 208 137 86 0 0 0 0 0 0 0 0 0 0 0 0 0 0 0 0 0 0 0
0 0 0 0 0 5 405 771 923 687 656 530 1180 1236 878 652 456 293 162 169 264 303 102 55 0 0 0 0 0 0 0 0 0 0 0 0 0 0 0 0 0 0 0
0 0 0 0 0 0 0 190 1021 924 654 571 587 1118 1213 1016 723 591 405 218 222 236 185 42 0 0 0 0 0 0 0 0 0 0 0 0 0 0 0 0 0 0 0
0 0 0 0 0 0 0 0 399 944 546 511 592 566 862 1251 1112 911 671 458 256 245 196 47 0 0 0 0 0 0 0 0 0 0 0 0 0 0 0 0 0 0 0
0 0 0 0 0 0 0 0 0 310 983 904 644 614 681 820 1276 894 863 707 507 324 256 111 0 0 0 0 0 0 0 0 0 0 0 0 0 0 0 0 0 0 0
0 0 0 0 0 0 0 0 0 0 204 719 657 905 868 691 819 1012 725 651 611 402 264 151 4 0 0 0 0 0 0 0 0 0 0 0 0 0 0 0 0 0 0
0 0 0 0 0 0 0 0 0 0 0 168 303 288 336 775 536 618 695 636 392 432 324 93 5 0 0 0 0 0 0 0 0 0 0 0 0 0 0 0 0 0 0
0 0 0 0 0 0 0 0 0 0 0 0 100 132 214 486 846 419 326 486 472 305 209 83 21 0 0 0 0 0 0 0 0 0 0 0 0 0 0 0 0 0 0

GFSSE_con_sbcape_042.txt.gz
CAPE
612 1152 2102 1963 2497 2379 2180 1854 1995 1904 1695 1180 835 561 218 59 2 1 0 0 6 31 74 44 21 2 0 0 0 0 0 1 1 13 18 4 1 0 0 4 19 2 3
515 1160 2166 1965 2069 2193 2300 2147 1924 1578 1531 1212 767 265 15 2 0 0 0 1 14 52 63 23 0 0 0 0 0 0 0 0 0 0 0 0 0 0 0 0 0 1 0
669 766 1211 1986 2070 2122 2331 2039 1908 1554 1690 1212 491 103 0 0 0 0 4 88 68 76 50 2 0 0 0 0 0 0 0 0 0 0 7 0 0 0 0 0 0 0 0
518 507 831 1980 2181 2297 2263 1997 1851 1720 1349 712 195 21 0 0 0 0 81 73 138 51 17 0 0 0 2 3 1 0 0 0 0 1 3 13 0 45 120 2 0 0 0
291 329 747 1506 2098 2137 2203 2022 1850 1502 979 552 63 0 0 0 0 4 65 23 21 14 15 0 0 2 3 4 0 0 0 0 1 3 5 5 17 4 132 205 172 191 256
182 442 761 1064 1658 1864 1725 1715 1712 1163 637 356 34 0 0 0 2 18 12 2 0 0 0 0 0 0 2 0 0 0 0 0 7 2 11 26 0 5 133 192 187 179 203
303 221 211 1018 1240 1050 1189 1449 1267 811 789 318 57 0 0 1 5 10 1 0 0 0 0 0 2 3 0 0 0 0 0 0 0 2 0 0 0 1 104 94 107 108 43
391 255 153 710 834 833 807 933 1266 1064 826 453 116 0 0 2 1 1 1 0 0 0 3 17 2 0 0 0 0 0 0 0 0 0 0 0 0 0 20 12 5 4 8
286 215 133 133 236 449 415 472 655 1104 983 594 248 86 58 12 1 0 0 0 0 10 44 10 0 0 0 0 0 0 0 0 0 0 0 0 0 0 50 27 10 5 0
216 194 112 111 103 70 99 141 148 144 792 456 206 89 18 0 0 3 27 45 59 49 108 0 0 0 0 0 0 0 0 0 0 0 0 0 0 42 65 23 7 3 2
358 188 111 120 84 53 51 74 132 126 160 203 121 29 2 0 0 0 0 24 103 217 109 0 0 0 0 0 0 0 0 0 0 0 0 96 88 82 22 12 3 5 2
542 315 148 108 50 22 23 61 49 110 125 153 101 21 7 0 0 0 0 45 107 211 97 0 0 0 0 0 0 0 0 0 0 0 0 133 49 24 5 0 0 0 1
533 492 237 114 38 41 51 58 35 71 73 107 112 49 38 4 0 0 0 1 37 63 0 0 0 0 0 0 0 0 0 0 0 0 11 80 13 4 0 0 0 0 2
487 460 410 295 86 43 44 51 18 0 24 36 56 93 58 7 4 4 2 0 4 39 35 0 0 0 0 0 0 0 0 0 0 0 0 0 14 0 0 0 0 0 1
475 361 370 316 289 106 78 36 26 0 0 2 19 26 18 15 37 23 8 1 0 13 6 0 0 0 0 0 0 0 0 0 0 0 0 0 0 0 0 0 0 0 0
493 458 357 329 300 312 155 163 91 100 0 13 13 24 18 21 67 38 34 35 19 12 0 0 0 0 0 0 0 0 0 0 0 0 0 0 0 0 0 0 0 0 0
336 558 453 346 311 398 248 172 186 289 212 54 16 11 11 0 22 39 45 26 34 40 26 0 0 0 0 0 0 0 0 0 0 0 0 0 0 0 0 0 0 0 0
0 50 573 694 589 445 431 257 228 217 273 330 117 2 0 0 0 15 21 35 45 59 51 9 0 0 0 0 0 0 0 0 0 0 0 0 0 0 0 0 0 0 0
0 0 0 0 554 625 553 538 366 337 353 428 624 214 59 0 18 11 8 20 51 56 62 59 0 0 0 0 0 0 0 0 0 0 0 0 0 0 0 0 0 0 0
0 0 0 0 0 0 490 608 542 394 432 367 414 538 365 107 17 0 0 8 46 39 49 55 0 0 0 0 0 0 0 0 0 0 0 0 0 0 0 0 0 0 0
0 0 0 0 0 0 0 10 651 486 330 388 350 299 325 503 159 91 0 0 12 41 85 30 0 0 0 0 0 0 0 0 0 0 0 0 0 0 0 0 0 0 0
0 0 0 0 0 0 0 0 0 566 453 355 269 315 356 340 381 182 152 49 27 2 9 0 0 0 0 0 0 0 0 0 0 0 0 0 0 0 0 0 0 0 0
0 0 0 0 0 0 0 0 0 0 236 242 184 247 362 409 292 332 380 136 74 18 7 8 0 0 0 0 0 0 0 0 0 0 0 0 0 0 0 0 0 0 0
0 0 0 0 0 0 0 0 0 0 0 49 320 288 301 268 344 476 446 417 325 83 36 18 0 0 0 0 0 0 0 0 0 0 0 0 0 0 0 0 0 0 0
0 0 0 0 0 0 0 0 0 0 0 0 0 65 213 347 431 384 465 483 416 260 146 34 35 0 0 0 0 0 0 0 0 0 0 0 0 0 0 0 0 0 0
0 0 0 0 0 0 0 0 0 0 0 0 0 0 6 2 88 220 297 359 330 338 307 241 34 0 0 0 0 0 0 0 0 0 0 0 0 0 0 0 0 0 0

GFSSE_con_sbcape_045.txt.gz
CAPE
794 1415 2129 2227 2105 2129 2135 2063 2128 1844 1534 983 726 465 199 16 0 0 0 0 49 92 25 7 6 6 5 1 0 0 1 15 7 10 0 0 0 2 9 0 7 1 7
797 1311 2120 2523 2430 2414 2368 2169 1985 1732 1446 1377 640 275 42 0 0 0 0 3 51 65 4 1 3 2 1 0 0 0 0 0 0 0 0 0 0 0 0 0 1 0 0
1008 1531 1649 2291 2455 2480 2306 2083 1814 1781 1670 1292 441 46 0 0 0 0 89 28 103 41 1 1 0 1 1 0 0 0 0 0 0 2 0 0 0 24 0 0 0 0 0
874 959 1297 2068 2327 2435 2207 1900 1678 1676 1290 872 163 13 0 0 0 114 88 149 81 20 0 0 0 2 2 0 0 0 0 0 0 2 0 0 0 60 19 25 24 0 0
505 660 1168 2179 2348 2335 2076 1835 1808 1387 977 429 18 0 0 0 1 196 113 92 18 13 0 0 1 3 2 0 0 0 0 0 11 3 4 0 0 86 196 180 180 263 82
218 518 1379 1906 2170 2091 1943 1807 1604 1065 606 152 2 0 0 0 11 51 27 5 5 2 0 0 1 3 0 0 0 0 0 1 1 0 0 0 0 115 178 157 137 210 191
289 290 437 1575 1850 1811 1746 1676 1151 1117 593 102 0 0 0 1 9 9 5 0 0 0 0 0 2 1 0 0 0 0 0 0 0 0 0 0 0 72 111 98 64 38 17
174 107 440 1016 1028 1113 1233 1238 955 1146 818 179 21 0 2 3 4 3 1 0 0 0 2 1 0 0 0 0 0 0 0 0 0 0 0 0 0 16 17 11 2 0 2
98 58 151 317 452 599 533 831 869 827 868 344 67 39 22 4 2 2 0 0 0 3 38 0 0 0 0 0 0 0 0 0 0 0 0 0 0 25 38 13 8 7 4
107 71 37 47 66 64 104 240 361 663 616 376 99 67 22 10 27 25 50 41 57 74 48 0 0 0 0 0 0 0 0 0 0 0 0 0 0 92 35 18 8 2 2
124 70 35 35 26 17 41 78 100 124 346 174 73 28 11 0 4 10 0 74 140 193 22 0 0 0 0 0 0 0 0 0 0 0 0 54 130 88 23 12 4 1 1
39 51 42 38 24 16 60 38 22 36 112 82 27 10 0 0 0 0 0 35 172 196 64 0 0 0 0 0 0 0 0 0 0 0 45 280 132 42 10 0 0 0 0
108 30 14 47 18 2 37 8 0 34 23 58 36 0 0 0 0 0 1 17 26 110 2 1 0 0 0 0 0 0 0 0 0 0 46 156 29 8 0 0 0 0 0
331 288 200 7 0 0 0 0 0 17 0 47 38 1 4 0 0 0 0 0 12 20 0 0 0 0 0 0 0 0 0 0 0 0 16 57 26 1 0 0 0 0 0
299 321 191 137 64 0 0 0 0 0 0 3 20 28 5 0 0 0 0 0 2 18 18 0 0 0 0 0 0 0 0 0 0 0 0 0 0 0 0 0 0 0 1
282 238 179 193 137 69 0 0 0 0 0 0 0 0 0 0 0 0 0 0 0 5 7 4 0 0 0 0 0 0 0 0 0 0 0 0 0 0 0 0 0 0 2
250 199 207 200 182 135 73 0 0 0 0 0 0 0 0 0 0 0 0 0 0 0 1 0 0 0 0 0 0 0 0 0 0 0 0 0 0 0 0 0 0 0 3
42 322 238 307 228 177 142 34 0 49 39 98 0 0 0 0 0 0 0 0 0 0 0 0 0 0 0 0 0 0 0 0 0 0 0 0 0 0 0 0 0 0 1
0 97 384 360 335 282 168 112 100 72 20 72 175 32 0 0 0 0 0 0 0 0 0 0 0 0 0 0 0 0 0 0 0 0 0 0 0 0 0 0 0 0 0
0 0 0 0 166 337 298 163 128 110 106 91 89 116 177 0 0 0 0 0 0 0 3 0 0 0 0 0 0 0 0 0 0 0 0 0 0 0 0 0 0 0 0
0 0 0 0 0 0 0 107 161 193 107 37 144 158 29 84 15 0 0 0 0 11 30 13 1 0 0 0 0 0 0 0 0 0 0 0 0 0 0 0 0 0 0
0 0 0 0 0 0 0 0 0 187 162 229 186 159 183 101 85 57 0 0 0 11 0 5 0 0 0 0 0 0 0 0 0 0 0 0 0 0 0 0 0 0 0
0 0 0 0 0 0 0 0 0 0 0 66 41 38 63 102 108 100 64 0 0 0 0 21 0 0 0 0 0 0 0 0 0 0 0 0 0 0 0 0 0 0 0
0 0 0 0 0 0 0 0 0 0 0 0 12 74 54 62 130 127 107 63 0 0 0 0 0 0 0 0 0 0 0 0 0 0 0 0 0 0 0 0 0 0 0
0 0 0 0 0 0 0 0 0 0 0 0 0 0 0 56 77 98 113 104 1 2 20 0 0 0 0 0 0 0 0 0 0 0 0 0 0 0 0 0 0 0 0
0 0 0 0 0 0 0 0 0 0 0 0 0 0 0 0 0 58 207 231 94 0 65 29 0 0 0 0 0 0 0 0 0 0 0 0 0 0 0 0 0 0 0

GFSSE_con_sbcape_048.txt.gz
CAPE
937 1658 2443 2149 1847 1806 1953 1768 1841 1811 1454 914 591 323 74 5 0 0 0 67 114 23 5 8 10 10 4 4 0 0 0 0 0 0 0 0 4 12 4 7 0 0 1
983 1557 2341 2465 2071 2110 2306 2149 1950 1691 1491 1154 600 281 34 0 0 0 0 72 50 4 3 5 6 4 1 0 0 0 0 0 0 0 0 0 0 0 1 0 0 0 0
1132 1478 2034 2420 2436 2433 2219 1823 1852 1775 1547 1060 233 33 0 0 0 57 6 96 17 4 1 0 1 0 0 0 0 0 0 0 0 0 0 0 3 0 0 0 0 0 0
1057 1445 1895 2450 2499 2298 2179 1907 1907 1813 1209 499 99 0 0 0 91 308 103 148 23 0 0 0 1 1 0 0 0 0 0 0 0 0 0 0 18 20 21 39 0 0 94
933 1136 1782 2311 2473 2332 1984 1882 1942 1571 671 206 2 0 0 0 422 349 285 54 6 0 0 0 2 0 0 0 0 0 0 0 1 0 0 0 0 135 186 255 193 127 252
412 769 1746 2161 2296 2129 1844 1883 1548 1127 377 75 0 0 0 6 231 96 63 19 7 1 0 0 2 0 0 0 0 0 0 0 0 0 0 0 0 161 150 138 183 164 142
407 810 1562 2217 2215 1963 1835 1754 1370 1233 385 25 0 0 0 21 82 26 4 3 0 0 0 1 1 0 0 0 0 0 0 0 0 0 0 0 0 121 94 27 40 41 2
362 371 741 1580 1845 1804 1698 1377 1287 1123 552 54 11 0 4 9 23 39 20 0 0 0 1 1 0 0 0 0 0 0 0 0 0 0 0 0 6 11 3 10 0 0 2
135 196 371 479 882 913 1049 979 1031 996 582 196 71 37 14 6 9 25 20 0 0 2 22 0 0 0 0 0 0 0 0 0 0 0 0 0 2 32 28 15 5 3 2
43 94 105 136 143 196 381 547 543 759 446 178 101 71 27 13 22 38 73 74 64 116 64 0 0 0 0 0 0 0 0 0 0 0 0 0 2 90 37 19 2 5 1
34 16 8 9 20 39 78 228 417 401 304 123 77 33 9 0 16 27 14 61 128 194 52 0 0 0 0 0 0 0 0 0 0 0 0 0 224 141 25 12 6 1 1
39 0 0 4 2 17 59 49 33 127 118 55 19 2 0 0 4 22 18 55 124 187 75 3 0 0 0 0 0 0 0 0 0 0 0 185 264 120 15 1 2 0 0
27 20 18 14 8 6 36 9 0 0 43 25 0 0 0 0 0 1 1 28 68 123 30 4 0 0 0 0 0 0 0 0 0 0 96 321 180 48 1 0 0 0 0
23 16 13 14 0 0 0 0 0 0 0 18 1 0 0 0 0 0 0 7 19 44 13 0 0 0 0 0 0 0 0 0 0 0 42 130 149 31 3 0 0 1 0
199 141 24 0 0 0 0 0 0 0 0 0 0 0 0 0 0 0 0 0 0 10 7 0 0 0 0 0 0 0 0 0 0 0 0 43 75 39 0 0 0 2 0
118 123 57 54 0 0 0 0 0 0 0 0 0 0 0 0 0 0 0 0 0 0 0 0 0 0 0 0 0 0 0 0 0 0 0 0 25 47 0 0 0 1 3
215 91 44 122 42 0 0 0 0 0 0 0 0 0 0 0 0 0 0 0 0 0 0 0 0 0 0 0 0 0 0 0 0 0 0 0 0 0 0 0 0 0 5
237 236 146 169 121 51 6 0 0 0 0 0 0 0 0 0 0 0 0 0 0 0 0 0 0 0 0 0 0 0 0 0 0 0 0 0 0 0 0 0 0 0 5
35 73 174 174 226 122 27 23 0 0 0 5 15 0 0 0 0 0 0 0 0 0 0 0 0 0 0 0 0 0 0 0 0 0 0 0 0 0 0 0 0 0 6
0 0 0 56 182 152 97 23 0 0 0 0 0 80 72 0 0 0 0 0 0 0 0 0 0 0 0 0 0 0 0 0 0 0 0 0 0 0 0 0 0 0 0
0 0 0 0 0 0 2 82 47 111 73 0 0 0 0 67 0 0 0 0 0 0 0 0 0 0 0 0 0 0 0 0 0 0 0 0 0 0 0 0 0 0 0
0 0 0 0 0 0 0 0 0 31 28 70 19 0 0 0 0 4 0 0 0 0 0 0 0 0 0 0 0 0 0 0 0 0 0 0 0 0 0 0 0 0 0
0 0 0 0 0 0 0 0 0 0 0 0 0 0 0 0 0 0 11 0 0 0 0 0 0 0 0 0 0 0 0 0 0 0 0 0 0 0 0 0 0 0 0
0 0 0 0 0 0 0 0 0 0 0 0 0 0 0 0 0 0 0 0 0 0 0 0 0 0 0 0 0 0 0 0 0 0 0 0 0 0 0 0 0 0 0
0 0 0 0 0 0 0 0 0 0 0 0 0 0 0 0 0 0 0 0 0 0 0 0 0 0 0 0 0 0 0 0 0 0 0 0 0 0 0 0 0 0 0
0 0 0 0 0 0 0 0 0 0 0 0 0 0 0 0 0 0 0 0 0 0 0 0 0 0 0 0 0 0 0 0 0 0 0 0 0 0 0 0 0 0 0

GFSSE_con_sbcape_051.txt.gz
CAPE
552 1619 2395 1946 1704 1573 1532 1521 1567 1571 1274 795 435 174 49 5 0 0 129 146 21 1 3 12 11 10 1 7 4 1 0 0 0 0 0 3 7 2 2 0 0 0 33
1081 1770 2207 2098 1831 1860 2080 1924 1902 1666 1423 924 472 170 15 0 0 0 87 16 1 1 2 5 5 3 0 0 1 0 0 0 0 0 0 0 0 0 0 0 0 0 86
1240 1707 1848 2152 2213 2419 2300 1775 1831 1672 1284 790 233 55 0 0 0 0 132 10 2 1 0 2 0 0 0 0 0 0 0 0 0 0 0 0 0 0 0 0 0 0 0
1258 1678 1869 2333 2464 2219 2014 1657 1802 1372 773 290 68 0 0 0 149 1 214 11 1 0 0 0 0 0 0 0 0 0 0 0 0 0 0 0 1 4 14 0 0 114 187
1197 1643 1944 2446 2386 2246 1913 1859 1757 1128 500 173 0 0 0 276 430 217 240 16 0 0 0 0 0 0 0 0 0 0 0 0 0 0 0 0 0 120 248 171 68 214 364
931 1352 2090 2341 2323 2168 2066 2042 1791 815 342 71 3 0 4 402 515 433 113 15 0 0 0 0 0 0 0 0 0 0 0 0 0 0 0 0 14 156 182 175 163 128 88
684 1296 1776 2325 2313 2085 1943 1814 1457 885 213 27 0 0 40 263 113 142 74 3 0 0 0 0 0 0 0 0 0 0 0 0 0 0 0 0 3 80 71 60 58 40 19
664 1133 1513 2031 2052 1899 1883 1722 1423 965 274 45 8 0 4 116 90 56 63 24 0 0 0 1 0 0 0 0 0 0 0 0 0 0 0 0 65 22 0 6 0 0 0
447 590 867 1355 1438 1435 1347 1435 1226 946 448 212 80 36 44 31 69 72 63 44 13 2 1 0 0 0 0 0 0 0 0 0 0 0 0 0 5 8 12 2 3 1 1
174 260 291 457 852 728 705 758 736 658 386 230 96 57 25 23 45 62 70 70 42 50 43 3 0 0 0 0 0 0 0 0 0 0 0 0 0 126 30 8 2 4 2
100 86 63 101 73 81 171 392 416 338 180 109 68 28 7 0 14 30 15 31 96 154 72 8 0 0 0 0 0 0 0 0 0 0 0 0 13 168 29 9 2 1 1
43 26 14 8 12 27 111 95 128 189 73 39 14 1 0 0 0 12 13 37 107 167 95 23 3 0 0 0 0 0 0 0 0 0 0 0 236 215 34 0 0 0 0
12 13 12 5 7 20 45 17 2 33 35 4 0 0 0 0 0 1 1 25 39 83 49 23 3 0 0 0 0 0 0 0 0 0 9 156 407 144 30 1 0 0 0
3 8 10 0 0 0 0 0 0 0 0 0 0 0 0 0 0 0 0 0 13 42 37 1 0 0 0 0 0 0 0 0 0 0 9 223 325 154 46 2 0 0 0
31 10 15 16 5 0 0 0 0 0 0 0 0 0 0 0 0 0 0 0 0 2 11 0 0 0 0 0 0 0 0 0 0 0 2 86 145 176 80 0 0 2 0
86 75 30 16 0 0 0 0 0 0 0 0 0 0 0 0 0 0 0 0 0 0 0 0 0 0 0 0 0 0 0 0 0 0 0 1 46 140 100 1 1 3 4
92 122 86 37 0 0 0 0 0 0 0 0 0 0 0 0 0 0 0 0 0 0 0 0 0 0 0 0 0 0 0 0 0 0 0 0 0 41 79 18 10 3 7
91 88 56 171 45 0 0 0 0 0 0 0 0 0 0 0 0 0 0 0 0 0 0 0 0 0 0 0 0 0 0 0 0 0 0 0 0 0 2 87 94 9 7
57 139 75 52 60 12 0 0 0 0 0 0 0 0 0 0 0 0 0 0 0 0 0 0 0 0 0 0 0 0 0 0 0 0 0 0 0 0 0 0 17 29 18
0 0 14 19 56 23 0 0 0 0 0 0 0 0 0 0 0 0 0 0 0 0 0 0 0 0 0 0 0 0 0 0 0 0 0 0 0 0 0 0 0 0 0
0 0 0 0 0 0 0 0 0 22 0 0 0 0 5 0 0 0 0 0 0 0 0 0 0 0 0 0 0 0 0 0 0 0 0 0 0 0 0 0 0 0 0
0 0 0 0 0 0 0 0 0 0 0 0 0 0 0 0 0 0 0 0 0 0 0 0 0 0 0 0 0 0 0 0 0 0 0 0 0 0 0 0 0 0 0
0 0 0 0 0 0 0 0 0 0 0 0 0 0 0 0 0 0 0 0 0 0 0 0 0 0 0 0 0 0 0 0 0 0 0 0 0 0 0 0 0 0 0
0 0 0 0 0 0 0 0 0 0 0 0 0 0 0 0 0 0 0 0 0 0 0 0 0 0 0 0 0 0 0 0 0 0 0 0 0 0 0 0 0 0 0
0 0 0 0 0 0 0 0 0 0 0 0 0 0 0 0 0 0 0 0 0 0 0 0 0 0 0 0 0 0 0 0 0 0 0 0 0 0 0 0 0 0 0
0 0 0 0 0 0 0 0 0 0 0 0 0 0 0 0 0 0 0 0 1 1 1 0 0 0 0 0 0 0 0 0 0 0 0 0 0 0 0 0 0 0 0

GFSSE_con_sbcape_054.txt.gz
CAPE
141 1200 2229 1795 1706 1685 1614 1513 1434 1418 1187 617 347 165 66 0 0 178 135 28 0 1 12 12 7 8 1 1 0 0 0 0 0 0 1 6 0 1 0 0 0 0 137
549 1571 2177 2018 1618 1732 1865 1899 1878 1545 1122 253 341 136 1 0 0 175 3 1 0 0 7 11 9 5 0 1 0 0 0 0 0 0 0 0 0 0 0 0 0 21 127
1301 1630 1843 2109 2113 2185 2145 1716 1706 1484 1142 691 256 61 0 0 0 212 6 2 1 0 1 2 2 1 0 2 1 0 0 0 0 0 0 0 0 0 0 0 0 0 34
1345 1540 1572 2169 2318 2407 2159 1694 1600 1216 735 280 83 1 0 0 0 270 20 2 0 0 0 0 0 0 0 0 0 0 0 0 0 0 0 0 0 26 0 0 131 252 64
1220 1591 1679 2121 2447 2241 1929 1856 1527 878 451 138 0 0 0 307 64 382 80 0 0 0 0 1 0 0 0 0 0 0 0 0 0 0 0 0 1 198 225 110 165 217 412
1324 1504 2037 2349 2327 2142 2044 1933 1446 733 336 53 0 0 433 469 302 322 90 0 0 0 0 1 1 0 0 0 0 0 0 0 0 0 0 1 7 232 218 187 145 132 123
1202 1574 1996 2351 2315 2137 2070 1902 1403 669 210 29 0 0 473 533 506 226 86 0 0 0 0 0 0 0 0 0 0 0 0 0 0 0 0 0 2 123 98 56 28 19 6
1147 1488 1855 2109 2122 1948 1980 1708 1327 870 150 31 8 4 305 282 292 176 86 29 0 0 0 0 0 0 0 0 0 0 0 0 0 0 0 0 9 0 2 1 3 2 1
867 1029 1374 1520 1645 1567 1616 1450 1213 872 458 107 56 41 107 140 164 128 96 57 29 0 1 0 0 0 0 0 0 0 0 0 0 0 0 0 0 1 6 4 4 1 1
471 557 850 971 1101 1017 1170 1143 898 649 431 231 78 62 45 26 49 114 74 65 53 46 45 21 0 0 0 0 0 0 0 0 0 0 0 0 0 117 13 3 3 2 0
223 224 214 375 482 410 489 725 466 302 165 92 51 24 13 0 14 22 21 38 84 114 78 25 9 0 0 0 0 0 0 0 0 0 0 0 0 221 70 1 0 0 0
201 102 50 65 63 50 185 173 240 90 52 27 11 0 0 0 0 12 9 22 62 136 77 22 8 1 0 0 0 0 0 0 0 0 0 0 10 339 85 0 0 0 0
24 33 20 16 2 23 43 29 38 44 21 5 0 0 0 0 0 0 0 9 18 47 35 20 1 0 0 0 0 0 0 0 0 0 0 34 75 362 69 17 0 0 0
49 8 0 0 0 3 6 10 0 23 8 0 0 0 0 0 0 0 0 0 0 3 16 0 0 0 0 0 0 0 0 0 0 0 0 29 241 253 92 24 0 0 0
47 0 4 0 0 0 0 0 0 0 1 0 0 0 0 0 0 0 0 0 0 0 0 0 0 0 0 0 0 0 0 0 0 0 0 12 144 281 137 76 0 0 0
78 30 11 13 2 0 0 0 0 0 0 0 0 0 0 0 0 0 0 0 0 0 0 0 0 0 0 0 0 0 0 0 0 0 0 0 35 123 232 82 17 3 6
88 71 54 26 7 0 0 0 0 0 0 0 0 0 0 0 0 0 0 0 0 0 0 0 0 0 0 0 0 0 0 0 0 0 0 0 0 16 111 92 44 27 10
120 129 96 128 42 0 0 0 0 0 0 0 0 0 0 0 0 0 0 0 0 0 0 0 0 0 0 0 0 0 0 0 0 0 0 0 0 0 7 144 184 84 34
80 96 115 105 91 12 0 0 0 0 0 0 0 0 0 0 0 0 0 0 0 0 0 0 0 0 0 0 0 0 0 0 0 0 0 0 0 0 0 0 25 72 116
0 8 56 62 84 47 6 0 0 0 0 0 0 0 0 0 0 0 0 0 0 0 0 0 0 0 0 0 0 0 0 0 0 0 0 0 0 0 0 0 0 0 0
0 0 0 0 0 27 22 22 0 0 0 0 0 0 0 0 0 0 0 0 0 0 0 0 0 0 0 0 0 0 0 0 0 0 0 0 0 0 0 0 0 0 0
0 0 0 0 0 0 0 0 0 0 0 0 0 0 0 0 0 0 0 0 0 0 0 0 0 0 0 0 0 0 0 0 0 0 0 0 0 0 0 0 0 0 0
0 0 0 0 0 0 0 0 0 0 0 0 0 0 0 0 0 0 0 0 0 0 0 0 0 0 0 0 0 0 0 0 0 0 0 0 0 0 0 0 0 0 0
0 0 0 0 0 0 0 0 0 0 0 0 0 0 0 0 0 0 0 1 1 0 0 0 0 0 0 0 0 0 0 0 0 0 0 0 0 0 0 0 0 0 0
0 0 0 0 0 0 0 0 0 0 0 0 0 0 0 0 0 0 0 0 0 1 0 0 0 1 0 0 0 0 0 0 0 0 0 0 0 0 0 0 0 0 0
0 0 0 0 0 0 0 0 0 0 0 0 0 0 0 0 0 0 0 0 0 0 1 0 0 0 0 0 0 0 0 0 0 0 0 0 0 0 0 0 0 0 0

GFSSE_con_sbcape_057.txt.gz
CAPE
339 1528 2420 2261 1848 1848 1784 1596 1226 1148 586 600 327 187 0 44 185 215 121 0 0 9 12 6 8 8 11 0 0 0 0 0 0 0 0 3 0 0 0 0 0 65 4
491 1499 2235 2224 1958 1953 2065 1992 1762 1431 1109 584 303 100 0 78 336 6 0 1 1 7 14 9 5 12 6 0 0 0 2 6 3 0 0 0 0 0 0 0 1 112 12
1026 1502 1456 2008 2061 2134 2139 1890 1773 1402 1136 635 242 25 0 60 283 2 5 1 0 2 9 8 7 8 6 2 1 1 1 0 0 0 0 0 1 0 0 1 131 0 141
1243 1398 1336 2075 2149 2294 2191 1834 1696 1188 688 284 94 0 0 40 408 86 6 0 0 0 0 0 1 3 2 0 0 0 0 0 0 0 2 2 4 28 0 138 261 186 0
1332 1417 1570 2075 2402 2302 2023 1834 1436 832 423 135 2 0 3 45 463 159 5 0 0 0 0 0 0 1 0 0 0 0 0 0 0 0 70 143 164 202 192 189 110 255 221
1362 1385 1626 2258 2290 2166 2060 1907 1290 646 269 42 0 0 513 163 569 276 5 0 0 1 0 0 1 0 0 0 0 0 0 0 0 0 56 110 182 206 158 94 97 79 124
1318 1431 1568 2358 2294 2118 2016 1729 1281 573 201 4 0 99 751 380 652 240 20 0 0 0 1 0 0 0 0 0 0 0 0 0 0 0 0 124 129 69 12 9 6 1 0
1207 1668 1679 1935 2048 1982 1942 1516 1180 782 131 16 25 531 752 867 509 125 55 21 0 0 3 1 0 0 0 0 0 0 0 0 0 0 0 28 37 0 1 5 6 4 2
1315 1719 1699 1624 1523 1703 1551 1341 1106 801 383 82 59 334 521 444 273 157 104 50 23 7 27 26 0 0 0 0 0 0 0 0 0 0 0 0 0 8 0 0 1 1 0
1441 1496 1609 1567 1296 1367 1421 994 807 659 386 171 70 64 37 42 136 147 51 74 39 30 32 13 0 0 0 0 0 0 0 0 0 0 0 0 0 96 6 0 0 0 0
982 1151 1206 1284 1245 1162 1288 899 478 337 188 70 51 24 17 29 43 52 22 30 59 66 51 15 0 0 0 0 0 0 0 0 0 0 0 0 0 153 44 0 0 0 0
861 662 694 792 890 805 845 962 445 192 126 53 36 22 9 9 25 26 17 15 50 102 67 17 6 0 0 0 0 0 0 0 0 0 0 0 0 75 73 0 0 0 0
542 467 334 365 384 474 545 576 394 96 80 45 22 2 0 0 5 22 16 25 44 41 83 28 3 0 0 0 0 0 0 0 0 0 0 0 32 181 54 16 0 0 0
358 450 254 196 196 177 224 265 270 204 78 48 22 0 0 0 0 0 0 7 24 39 57 46 12 0 0 0 0 0 0 0 0 0 0 0 46 244 117 25 9 0 0
394 303 175 81 86 65 107 103 123 265 188 80 25 0 0 0 0 0 0 0 2 13 19 28 12 0 0 0 0 0 0 0 0 0 0 0 7 287 295 82 56 2 0
279 227 148 107 54 35 56 58 65 54 102 111 51 0 0 0 0 0 0 0 0 0 0 3 0 0 0 0 0 0 0 0 0 0 0 0 0 64 211 153 86 19 11
179 218 159 142 77 65 61 52 49 38 13 12 41 23 0 0 0 0 0 0 0 0 0 0 0 0 0 0 0 0 0 0 0 0 0 0 0 0 45 189 121 65 24
143 206 195 167 119 93 72 53 33 7 0 0 0 0 14 0 0 0 0 0 0 0 0 0 0 0 0 0 0 0 0 0 0 0 0 0 0 0 0 71 222 188 111
198 169 215 245 256 138 71 42 17 0 0 0 0 0 0 0 0 0 0 0 0 0 0 0 0 0 0 0 0 0 0 0 0 0 0 0 0 0 0 0 27 126 262
41 138 222 248 315 204 68 20 6 0 0 0 0 0 0 0 0 0 0 0 0 0 0 0 0 0 0 0 0 0 0 0 0 0 0 0 0 0 0 0 0 15 2
0 0 88 145 141 184 131 95 59 65 29 0 0 0 0 0 0 0 0 0 0 0 0 0 0 0 0 0 0 0 0 0 0 0 0 0 0 0 0 0 0 0 0
0 0 0 0 0 48 73 57 85 84 88 65 24 0 0 0 0 0 0 0 0 0 0 0 0 0 0 0 0 0 0 0 0 0 0 0 0 0 0 0 0 0 0
0 0 0 0 0 0 0 0 0 0 0 0 0 0 0 0 1 2 3 2 1 0 0 0 0 2 3 0 0 9 1 3 0 0 0 0 0 0 0 0 0 0 0
0 0 0 0 0 0 0 0 0 0 0 0 0 0 0 0 0 0 1 3 6 3 1 0 0 1 2 2 1 0 0 0 0 0 0 0 0 0 0 0 0 0 0
0 0 0 0 0 0 0 0 0 0 0 0 0 0 0 0 0 0 0 0 0 0 1 2 1 2 1 2 0 0 1 0 0 0 1 2 0 0 0 0 0 0 0
0 0 0 0 0 0 0 0 0 0 0 0 0 0 0 0 0 0 0 0 0 1 1 2 1 6 3 1 3 2 0 0 0 0 1 0 0 0 0 0 0 0 0

GFSSE_con_sbcape_060.txt.gz
CAPE
971 1399 2315 2093 1710 1610 1510 1446 1240 921 851 464 292 25 89 136 249 187 0 0 4 23 5 11 97 14 3 0 0 0 0 0 0 0 0 0 0 0 0 0 126 17 4
680 1321 2353 2415 2111 2074 1870 1716 1417 1151 1016 459 249 1 391 458 83 0 1 1 12 19 19 16 22 13 6 2 5 8 8 5 1 0 0 0 0 0 0 0 18 44 29
615 1233 1609 2405 2385 2173 2012 1592 1441 1188 748 430 133 0 302 241 7 11 1 0 4 11 11 14 18 8 9 4 0 0 0 0 0 0 0 35 9 0 105 253 2 115 172
787 1015 1212 2322 2334 2285 2031 1610 1566 946 562 247 73 0 93 472 107 36 0 0 1 2 3 7 8 6 1 0 0 0 0 0 0 1 28 50 24 24 188 158 308 6 0
963 842 1199 1966 2314 2367 1962 1717 1239 725 355 132 6 0 36 611 284 35 0 0 0 2 1 2 3 0 0 0 0 0 0 0 0 15 105 155 246 177 136 126 122 193 205
1025 891 1390 1910 2380 2255 2073 1824 1013 561 215 45 0 0 106 531 441 77 0 0 1 1 3 2 1 0 0 0 0 0 0 0 0 6 22 61 69 51 37 5 1 3 20
974 963 1334 2396 2351 2237 2085 1611 1168 425 152 0 9 514 669 666 473 84 0 0 2 2 0 2 2 0 0 0 0 0 0 0 0 0 1 7 12 0 0 0 4 0 0
946 1028 1487 1954 2056 2099 1807 1469 1175 518 104 0 249 1321 835 1051 388 124 54 7 0 23 1 0 0 0 0 0 0 37 0 0 0 0 0 0 0 1 0 1 0 0 0
1087 1042 1230 1412 1445 1656 1444 1262 1075 722 258 48 514 767 982 747 516 157 90 52 10 28 31 5 0 0 0 0 0 17 0 0 0 0 0 0 2 9 0 0 0 0 0
1376 1281 1074 1464 1111 1054 1308 912 789 618 344 187 190 82 54 105 148 176 80 80 41 42 41 5 0 0 0 0 0 0 0 0 0 0 0 0 0 80 0 0 0 0 0
1447 1523 1271 983 876 1071 1211 721 424 345 184 63 50 18 16 35 55 46 22 38 58 46 33 7 0 0 0 0 0 0 0 0 0 0 0 0 0 33 55 0 0 0 0
1058 1263 1341 1207 1024 944 1074 871 438 255 240 119 54 13 0 0 5 8 22 15 45 75 46 6 0 0 0 0 0 0 0 0 0 0 0 0 0 7 199 4 0 0 0
791 1046 1086 1223 999 968 886 996 549 320 321 261 87 49 9 0 0 0 2 7 31 21 47 21 9 0 0 0 0 0 0 0 0 0 0 0 0 30 93 26 0 0 0
999 1055 973 877 881 838 782 986 590 380 333 338 187 73 42 20 0 0 0 0 3 3 8 27 13 6 0 0 0 0 0 0 0 0 0 0 0 69 233 96 16 0 0
817 756 913 853 677 881 905 776 754 535 425 358 329 160 74 52 30 0 0 0 0 0 0 0 6 0 0 0 0 0 0 0 0 0 0 0 0 25 418 298 87 22 0
772 1033 1087 888 757 955 916 837 693 530 511 495 408 317 130 79 56 24 0 0 0 0 0 0 18 20 10 0 0 0 0 0 0 0 0 0 0 0 145 374 210 121 19
781 747 899 804 738 798 791 708 533 423 391 411 406 363 225 100 63 35 19 0 0 0 0 0 0 2 16 17 17 0 0 0 0 0 0 0 0 0 1 212 304 180 52
801 676 669 515 592 617 534 510 412 368 312 293 287 299 281 130 66 59 37 20 0 0 0 1 4 22 36 31 39 52 29 5 4 3 1 0 0 0 0 10 212 283 191
859 772 670 566 566 633 614 554 523 445 384 308 301 261 161 80 47 70 95 84 68 57 50 54 61 60 126 133 109 62 51 48 58 41 50 33 0 0 0 0 6 71 259
538 826 734 670 704 760 762 684 670 590 508 396 325 229 141 117 106 162 201 192 146 149 159 159 127 170 175 174 74 28 51 83 97 64 68 49 23 0 0 0 0 0 1
0 459 711 768 769 798 827 708 624 743 676 635 513 345 225 176 151 163 238 267 297 288 246 207 230 181 175 159 59 72 134 53 30 26 26 7 0 0 0 0 0 0 0
0 0 206 500 773 929 1117 1033 917 847 707 638 542 410 304 276 287 279 336 406 390 341 312 281 279 177 101 125 78 77 32 2 10 0 0 0 0 0 0 0 0 0 0
0 0 0 0 230 488 780 488 183 36 33 369 536 546 299 66 140 134 192 271 323 290 148 300 233 127 86 141 16 91 72 19 17 10 0 0 0 0 0 0 0 0 0
0 0 0 0 0 0 1 33 118 316 356 23 0 0 0 0 0 0 0 1 8 7 5 7 8 9 18 9 0 1 12 3 10 18 7 0 0 0 0 0 0 0 0
0 0 0 0 0 0 0 0 0 0 0 0 0 0 0 0 0 0 0 0 0 0 0 3 2 4 10 15 19 0 1 4 1 3 2 18 6 0 0 0 0 0 0
0 0 0 0 0 0 0 0 0 0 0 0 0 0 0 0 0 0 0 0 0 0 0 1 2 3 5 3 28 25 2 1 2 4 6 2 2 12 0 0 0 0 0

GFSSE_con_sbcape_063.txt.gz
CAPE
1209 1418 2286 1878 1463 1581 1536 1296 1054 872 675 256 70 55 16 274 181 0 0 2 7 11 201 161 17 7 3 2 3 2 0 0 0 0 0 0 0 0 0 55 33 4 8
1054 1209 2227 2179 1794 1845 1637 1133 1206 917 804 412 26 303 502 123 1 0 1 11 24 11 53 60 17 13 9 6 4 2 7 1 0 0 0 0 0 120 224 16 306 34 102
1052 1250 1528 2336 2252 1994 1838 1311 1258 881 620 289 7 333 166 37 35 0 1 11 21 24 88 131 18 8 3 1 0 0 0 0 0 1 17 19 0 177 250 51 43 92 33
1072 1405 1193 2466 2296 2058 1808 1307 1200 826 401 161 3 110 390 147 55 1 0 3 6 11 14 16 5 2 1 1 0 0 0 0 0 18 30 29 100 166 212 297 4 71 68
921 979 1813 2449 2468 2149 1831 1448 1068 601 278 100 3 21 614 343 93 0 0 2 2 2 6 8 3 4 0 0 0 0 0 0 0 14 62 124 68 70 11 3 41 44 102
749 884 1619 2265 2374 2172 1926 1681 887 417 125 30 0 93 502 531 89 0 0 3 4 5 6 5 4 2 0 0 1 0 0 0 0 3 10 56 8 7 2 1 1 0 0
617 1271 1058 2230 2291 2045 1959 1521 959 289 74 0 98 303 350 658 105 0 0 2 2 4 6 5 2 0 0 0 0 0 0 0 0 0 0 2 0 0 1 2 1 0 0
702 1040 1079 1937 2023 1867 1676 1375 963 288 7 44 385 957 628 672 214 46 0 0 2 1 0 0 0 0 0 0 0 0 0 0 0 0 0 0 0 0 0 0 0 0 0
732 930 966 1153 1331 1524 1313 1180 932 429 49 109 894 1275 1270 650 417 101 53 19 18 37 15 0 0 0 0 0 24 0 0 0 0 0 0 0 25 0 0 0 0 0 0
712 1061 676 1140 1016 1004 1026 822 647 414 158 401 359 217 151 149 290 176 93 66 30 46 29 4 0 0 0 0 0 0 0 0 0 0 0 0 0 28 0 0 0 0 0
737 1108 1116 1226 706 843 784 459 345 209 81 37 37 18 22 45 59 20 24 54 51 38 25 3 0 0 0 0 0 0 0 0 0 0 0 0 0 0 51 0 0 0 0
1161 1151 1114 1076 683 911 1035 439 319 185 98 42 0 4 0 0 7 10 22 15 36 51 32 5 0 0 0 0 0 0 0 0 0 0 0 0 0 0 45 13 0 0 0
904 1258 958 1019 813 936 966 665 520 328 371 260 121 32 0 0 0 0 0 0 6 20 14 2 0 0 0 0 0 0 0 0 0 0 0 0 0 2 145 16 0 0 0
856 1060 1062 1069 971 819 650 990 610 327 279 353 252 92 34 12 1 0 0 0 0 0 0 10 9 0 0 0 0 0 0 0 0 0 0 0 0 0 166 67 9 0 0
779 723 611 806 723 646 590 752 624 381 292 263 328 234 89 55 48 16 0 0 0 0 0 0 0 0 0 0 0 0 0 0 0 0 0 0 0 0 34 373 137 47 0
887 750 639 604 580 423 617 648 634 423 357 264 255 277 202 72 52 33 0 0 0 0 0 0 0 15 13 1 0 0 0 0 0 0 0 0 0 0 0 186 377 138 80
968 971 862 845 729 630 801 722 577 381 295 296 256 245 215 112 64 37 9 0 0 0 0 0 0 0 17 20 19 16 4 1 0 0 0 0 0 0 0 0 88 153 118
955 1071 1130 910 738 615 745 884 533 315 254 253 282 319 330 201 98 102 50 41 43 39 11 10 4 25 39 35 36 31 25 26 30 35 42 28 0 0 0 0 3 78 121
860 1007 1011 983 778 726 567 554 520 462 422 356 370 385 366 326 193 193 219 183 154 175 153 132 116 129 129 124 23 142 145 154 135 113 98 121 82 15 0 0 0 25 179
796 957 1058 1061 841 764 780 760 873 710 607 503 471 449 396 314 264 264 276 276 278 296 156 135 130 164 170 184 49 124 197 171 180 201 123 38 45 81 6 0 0 0 0
130 877 1073 1095 989 887 934 990 993 1044 976 833 670 594 482 428 404 415 434 365 254 238 236 218 221 101 141 391 212 198 165 151 151 75 11 0 6 1 0 0 0 0 0
0 131 800 1028 1058 1003 1016 962 1075 1077 1103 1019 1091 789 629 547 486 447 444 384 356 380 299 309 191 214 216 293 137 144 68 2 0 55 1 0 0 0 0 0 0 0 0
0 0 87 620 788 1022 1056 1205 1116 834 802 877 876 806 698 574 535 491 412 347 411 436 419 349 200 181 117 51 59 61 67 33 26 10 8 0 0 0 0 0 0 0 0
0 0 0 1 143 592 764 906 552 521 674 717 499 335 45 0 0 0 7 26 94 32 2 2 3 11 28 40 8 4 25 7 24 23 24 3 0 0 0 0 0 0 0
0 0 0 0 0 0 0 105 307 391 284 0 0 0 0 0 0 0 0 0 0 0 0 0 1 4 9 11 23 19 8 21 14 24 11 16 41 0 0 0 0 0 0
0 0 0 0 0 0 0 0 0 0 0 0 0 0 0 0 0 0 0 0 0 0 0 0 2 4 4 1 6 11 18 23 1 0 3 8 36 16 2 3 0 0 0

GFSSE_con_sbcape_066.txt.gz
CAPE
1133 1470 2106 2037 1411 1577 1585 1158 1005 903 158 129 48 24 395 35 0 0 7 3 168 315 66 11 14 11 8 5 3 0 0 0 0 0 0 15 188 116 183 123 198 18 57
1037 1362 2042 2086 1881 1858 1545 1077 1011 1114 867 132 383 472 68 2 0 5 16 15 3 228 62 12 10 13 5 2 2 1 0 0 0 0 11 34 224 340 21 203 302 51 2
930 1215 1732 2082 2079 1804 1620 1265 1329 825 547 181 481 129 51 7 0 1 17 17 7 221 97 30 14 7 2 0 0 0 0 9 15 17 8 0 16 407 177 0 180 66 155
1151 1042 1370 2255 2059 1830 1713 1430 1212 525 179 12 409 170 203 7 0 3 6 13 11 30 39 8 12 6 3 0 0 0 0 8 21 36 16 10 8 11 154 149 153 233 191
1046 900 1648 2222 2091 1933 1708 1444 793 293 116 7 261 781 311 13 0 1 4 6 10 14 4 11 6 2 1 0 0 0 0 2 1 15 1 0 5 6 10 5 2 4 38
845 1398 1947 2152 2096 1891 1687 1468 585 213 52 3 215 724 424 40 0 1 3 5 8 10 8 4 1 0 0 0 0 0 0 0 0 0 0 0 0 1 3 0 0 0 0
1276 1410 1883 2230 2069 1785 1725 1281 801 125 0 0 177 570 574 83 0 0 3 2 2 2 2 1 0 0 0 0 0 0 0 0 0 0 0 0 0 0 0 0 0 0 0
1029 1024 1585 1969 1908 1745 1559 1119 718 221 42 273 747 726 724 144 30 0 1 2 0 0 0 0 0 0 0 4 11 0 0 0 0 0 0 0 9 0 0 0 0 0 0
794 934 1158 1282 1473 1446 1186 922 614 187 264 856 1068 1034 902 527 196 53 0 9 27 0 0 0 0 0 0 2 14 0 0 0 0 0 0 0 41 5 0 0 0 0 0
669 723 840 982 1047 953 627 564 321 122 396 500 441 381 162 155 196 130 68 44 38 35 14 0 0 0 0 0 0 0 0 0 0 0 0 0 1 37 0 0 0 0 0
1039 736 1116 998 824 749 404 294 140 47 32 109 24 36 25 27 25 8 34 43 58 42 13 4 0 0 0 0 0 0 0 0 0 0 0 0 0 0 50 0 0 0 0
1011 846 953 656 494 746 474 212 48 1 0 0 21 0 0 3 5 22 12 37 62 62 28 8 0 0 0 0 0 0 0 0 0 0 0 0 0 0 19 27 0 0 0
1114 941 1139 631 587 831 463 217 213 85 90 8 0 0 0 0 0 0 0 1 5 31 5 4 1 0 0 0 0 0 0 0 0 0 0 0 0 0 13 41 0 0 0
1119 1029 946 703 708 792 749 465 298 196 153 154 50 2 0 0 0 0 0 0 0 0 0 0 0 0 0 0 0 0 0 0 0 0 0 0 0 0 36 49 21 0 0
781 991 910 832 710 643 709 768 397 206 100 226 126 62 10 3 0 0 0 0 0 0 0 0 0 0 0 0 0 0 0 0 0 0 0 0 0 0 0 214 204 47 0
730 640 627 740 604 507 503 738 517 253 254 94 186 122 82 31 21 12 0 0 0 0 0 0 0 0 0 0 0 0 0 0 0 0 0 0 0 0 0 0 310 366 135
874 683 527 530 496 436 472 512 461 429 187 160 162 141 84 46 17 7 0 0 0 0 0 0 0 0 0 0 0 0 0 0 0 0 0 0 0 0 0 0 0 49 76
828 682 694 825 645 520 645 632 547 469 145 143 121 124 139 75 29 10 0 0 0 0 0 0 0 0 0 0 0 0 0 0 0 0 0 0 0 0 0 0 0 0 54
718 936 903 807 622 589 640 640 543 248 185 100 116 160 207 169 55 41 62 18 13 19 9 0 0 0 0 0 2 0 3 3 4 2 0 0 0 1 0 0 0 0 64
666 886 902 880 738 656 501 504 402 387 298 228 203 224 248 231 189 91 112 137 91 127 44 23 4 4 4 5 8 3 6 1 0 0 0 0 0 0 1 0 0 0 0
462 787 815 920 741 641 624 599 576 538 517 368 359 364 346 243 193 184 229 255 123 140 89 53 3 7 8 9 51 2 0 0 0 0 0 0 0 0 0 0 0 0 0
0 473 848 939 858 756 753 735 680 654 677 637 615 605 495 494 436 332 293 281 233 255 245 198 207 139 57 69 57 26 18 4 1 0 0 0 0 0 0 0 0 0 0
0 0 375 909 919 878 871 804 719 466 525 650 627 623 592 385 272 333 278 248 261 291 344 321 126 111 136 33 38 52 41 23 3 0 0 0 0 0 0 0 0 0 0
0 0 0 53 607 821 927 879 779 412 487 472 447 358 8 0 0 0 0 15 96 64 31 5 5 1 13 16 11 12 36 63 48 7 0 0 0 0 0 0 0 0 0
0 0 0 0 0 38 357 689 487 372 336 0 0 0 0 0 0 0 0 0 0 0 0 0 0 0 0 0 0 3 10 17 23 29 16 0 0 0 0 0 0 0 0
0 0 0 0 0 0 0 0 84 186 0 0 0 0 0 0 0 0 0 0 0 0 0 0 0 0 0 0 0 2 5 15 8 24 12 0 5 2 0 0 0 0 0

GFSSE_con_sbcape_069.txt.gz
CAPE
769 1590 2166 1874 1367 1429 1269 1042 759 490 285 14 327 306 1 0 2 19 127 347 437 52 20 11 11 6 4 0 0 0 0 0 0 43 171 341 265 225 95 144 97 0 1
940 1476 2086 1960 1713 1566 1273 1031 1014 936 572 463 394 31 1 0 8 15 6 325 290 53 13 8 9 3 0 0 0 6 8 2 0 33 61 121 358 57 42 55 163 124 375
1064 1358 1775 2075 1824 1540 1258 912 1133 623 483 791 277 35 0 2 17 16 7 165 163 24 13 10 6 2 0 0 0 7 26 31 1 0 0 0 8 21 218 257 360 221 308
1090 1201 1585 1985 1846 1665 1502 1083 895 230 249 725 553 64 1 3 9 14 8 7 24 17 8 12 7 0 0 0 0 3 6 11 66 39 0 0 0 8 88 51 63 133 42
999 1289 1798 1873 1814 1617 1468 991 377 141 74 876 846 433 0 1 5 8 12 10 28 12 7 7 1 0 0 0 0 0 0 92 21 0 0 0 0 4 8 0 0 0 2
798 1357 1790 1789 1623 1691 1551 1039 253 97 15 687 924 445 1 0 2 4 5 10 19 16 8 3 0 0 0 0 0 0 0 0 0 0 0 0 0 1 0 0 0 0 0
1208 1456 1643 1818 1809 1738 1443 949 510 107 7 626 952 342 28 0 1 4 6 7 8 8 4 1 0 0 0 0 0 0 0 0 0 0 0 0 0 0 0 0 0 0 0
1408 1544 1631 1679 1693 1389 1252 856 499 163 170 577 1164 580 99 0 0 1 2 4 4 3 1 0 0 0 24 36 0 0 0 0 0 0 0 0 22 3 7 0 0 0 0
1378 1426 1437 1363 1260 1156 923 699 279 428 764 886 1032 784 355 162 21 0 7 0 0 0 0 0 0 0 1 30 1 0 0 0 0 0 0 0 26 12 5 0 0 0 0
1044 1133 959 1151 1069 627 368 269 99 491 526 918 835 509 203 102 105 56 32 59 26 11 9 7 7 0 0 0 0 0 0 0 0 0 0 0 38 16 2 0 0 0 0
854 839 898 890 722 349 194 33 12 153 79 87 151 57 41 19 10 0 0 26 50 29 14 5 0 0 0 0 0 0 0 0 0 0 0 0 0 0 13 0 0 0 0
599 974 862 776 669 321 226 11 0 0 0 0 0 0 0 0 0 0 0 11 40 33 16 9 0 0 0 0 0 0 0 0 0 0 0 0 0 0 0 3 0 0 0
745 996 867 729 771 355 174 33 0 0 0 0 0 0 0 0 0 0 0 0 0 0 0 0 0 0 0 0 0 0 0 0 0 0 0 0 0 0 0 111 0 0 0
792 969 721 584 776 459 152 123 46 1 1 0 0 0 0 0 0 0 0 0 0 0 0 0 0 0 0 0 0 0 0 0 0 0 0 0 0 0 0 52 15 0 0
900 865 750 633 859 686 349 263 167 80 43 15 1 0 0 0 0 0 0 0 0 0 0 0 0 0 0 0 0 0 0 0 0 0 0 0 0 0 0 13 150 77 4
607 726 824 772 745 804 693 534 337 94 25 27 106 6 0 0 0 0 0 0 0 0 0 0 0 0 0 0 0 0 0 0 0 0 0 0 0 0 0 0 6 179 180
610 559 825 846 685 596 559 710 470 249 84 55 57 63 21 0 0 0 0 0 0 0 0 0 0 0 0 0 0 0 0 0 0 0 0 0 0 0 0 0 0 5 89
522 706 616 693 515 456 500 529 415 387 215 97 57 58 57 21 0 0 0 0 0 0 0 0 0 0 0 0 0 0 0 0 0 0 0 0 0 0 0 0 6 4 23
500 629 716 751 573 573 589 495 511 425 92 21 37 52 61 37 8 2 0 0 0 0 0 0 0 0 0 0 0 2 3 3 4 3 2 0 0 0 0 0 2 0 29
477 525 570 654 658 541 454 607 523 357 138 38 25 48 87 64 35 12 17 13 0 0 12 0 0 1 1 8 11 12 9 4 0 0 0 0 0 0 0 0 0 0 0
433 516 576 601 460 394 359 355 335 276 150 95 102 107 106 122 85 31 38 30 49 50 7 1 0 3 6 11 17 7 0 1 6 0 0 0 0 0 0 0 0 0 0
392 527 544 669 449 477 443 398 414 361 350 297 266 318 248 215 151 103 120 146 142 138 115 82 71 161 95 20 33 32 15 0 0 2 0 0 0 0 0 0 0 0 0
0 402 691 733 655 577 577 442 394 319 406 482 441 447 368 328 309 279 266 256 258 263 263 269 174 161 116 18 21 41 26 11 0 0 0 0 0 0 0 0 0 0 0
0 0 360 627 679 752 568 554 500 494 443 322 267 290 0 0 0 0 0 9 51 41 18 5 3 0 0 1 0 0 13 7 22 3 0 0 0 0 0 0 0 0 0
0 0 0 13 531 668 590 617 452 285 244 0 0 0 0 0 0 0 0 0 0 0 0 0 0 0 0 0 0 0 0 0 0 6 1 0 0 0 0 0 0 0 0
0 0 0 0 0 3 105 243 336 268 0 0 0 0 0 0 0 0 0 0 0 0 0 0 0 0 0 0 0 0 0 0 0 0 11 10 0 0 0 0 0 0 0

GFSSE_con_sbcape_072.txt.gz
CAPE
739 1340 1915 1663 1200 1093 848 541 463 218 46 391 218 0 0 108 368 469 346 469 486 122 29 8 5 0 1 7 7 1 2 99 198 261 281 353 226 81 42 0 8 56 11
1091 1463 1973 1772 1459 1278 1238 848 503 624 416 540 6 0 0 6 123 425 383 233 124 10 11 2 2 4 6 14 9 10 0 2 14 24 67 145 170 301 182 252 550 250 177
1335 1448 1488 1740 1635 1367 1070 647 340 494 528 346 4 0 5 10 23 372 432 247 25 13 8 2 0 0 0 1 14 22 4 0 0 0 2 1 25 231 186 201 179 89 12
1306 1374 1406 1638 1597 1240 1022 741 307 601 724 442 3 1 8 9 7 16 255 85 16 8 4 1 0 0 0 0 3 0 74 197 161 13 0 0 0 9 3 5 8 12 10
1198 1399 1530 1686 1572 1404 1131 739 283 611 801 518 11 4 4 13 13 12 5 11 6 3 3 1 0 0 0 0 0 23 97 16 0 0 0 0 0 2 0 0 0 1 6
929 1324 1494 1553 1548 1406 1366 720 167 797 555 435 12 1 3 5 10 12 11 14 12 6 2 1 0 0 0 0 0 0 0 3 0 0 0 0 0 0 0 0 0 0 0
1208 1436 1419 1531 1495 1359 1052 730 476 495 927 592 85 2 4 6 6 11 10 7 6 7 3 0 0 0 0 0 0 0 0 0 0 0 0 0 0 9 0 0 0 0 0
1357 1411 1225 1280 1408 1309 1045 712 499 412 1113 950 409 2 1 5 6 8 8 9 9 7 6 0 0 40 42 16 0 0 0 0 0 0 0 0 22 22 7 0 0 0 0
1438 1322 1227 1164 1108 1044 794 587 328 342 940 1229 800 364 61 30 9 4 7 7 6 2 18 18 1 15 45 23 0 0 0 0 0 0 0 0 26 13 12 0 0 0 0
1333 1310 1033 977 857 428 273 221 480 757 828 970 688 315 70 24 37 59 78 53 17 7 8 10 7 0 0 0 0 0 0 0 0 0 0 0 31 5 0 0 0 0 0
1293 1156 1062 895 468 180 37 30 355 361 548 627 371 103 33 0 0 0 0 30 42 19 8 7 6 0 0 0 0 0 0 0 0 0 0 0 0 4 3 0 0 0 0
821 990 986 776 364 140 44 0 26 85 57 90 38 19 0 0 0 0 0 2 40 34 20 3 0 0 0 0 0 0 0 0 0 0 0 0 0 0 16 7 0 0 0
345 829 880 784 381 155 57 0 0 0 0 0 0 0 0 0 0 0 0 0 0 0 0 0 0 0 0 0 0 0 0 0 0 0 0 0 0 0 0 39 0 0 0
443 710 764 825 498 193 47 0 0 0 0 0 0 0 0 0 0 0 0 0 0 0 0 0 0 0 0 0 0 0 0 0 0 0 0 0 0 0 0 59 52 0 0
568 691 758 667 646 282 111 45 11 0 0 0 0 0 0 0 0 0 0 0 0 0 0 0 0 0 0 0 0 0 0 0 0 0 0 0 0 0 0 0 69 124 23
705 902 644 488 695 402 212 175 121 55 22 13 0 0 0 0 0 0 0 0 0 0 0 0 0 0 0 0 0 0 0 0 0 0 0 0 0 0 0 0 0 34 162
667 908 761 678 621 579 466 450 325 168 42 17 62 21 0 0 0 0 0 0 0 0 0 0 0 0 0 0 0 0 0 0 0 0 0 0 0 0 0 0 2 5 46
523 628 768 865 754 756 772 658 513 331 76 60 31 57 12 1 0 0 0 0 0 0 0 0 0 0 0 0 0 0 0 0 0 0 0 0 0 0 0 3 38 73 62
525 595 646 757 566 562 627 648 561 397 285 132 101 94 56 18 0 0 0 0 0 0 0 0 0 0 0 0 1 1 1 2 10 5 8 1 0 0 0 0 3 24 59
544 580 536 581 473 586 579 581 422 392 244 60 61 107 58 35 4 0 4 0 0 0 0 0 0 1 0 3 6 12 11 1 0 0 0 0 0 0 0 0 0 0 0
420 536 447 542 576 532 379 506 459 399 219 122 25 22 66 49 35 10 9 20 20 26 43 12 10 13 8 5 16 11 0 0 0 0 0 0 0 0 0 0 0 0 0
548 534 445 545 447 493 347 348 328 220 152 126 99 79 94 154 130 37 34 51 50 74 87 71 62 64 22 13 19 14 0 0 0 0 0 0 0 0 0 0 0 0 0
244 507 723 741 660 549 420 298 266 215 222 267 213 209 258 237 229 148 91 120 235 288 250 231 177 194 127 14 8 25 11 4 0 0 0 0 0 0 0 0 0 0 0
0 302 608 664 588 570 371 416 482 424 432 382 209 195 65 82 137 205 212 208 185 103 84 11 2 3 0 0 0 0 0 1 31 9 0 0 0 0 0 0 0 0 0
0 0 133 421 595 689 601 416 387 287 196 99 91 67 0 0 0 0 0 0 0 0 0 0 0 0 0 0 0 0 0 0 0 2 1 0 0 0 0 0 0 0 0
0 0 0 0 123 207 359 363 418 374 174 0 0 0 0 0 0 0 0 0 0 0 0 0 0 0 0 0 0 0 0 0 0 0 0 0 0 0 0 0 0 0 0

GFSSE_con_sbcape_075.txt.gz
CAPE
650 1011 1503 1424 1139 821 531 312 206 65 460 41 4 266 571 813 844 590 402 229 141 50 6 0 9 26 17 13 13 152 201 217 229 201 214 210 64 41 193 250 228 1 0
871 1095 1508 1624 1292 887 662 481 195 275 498 74 0 19 371 572 556 415 282 107 38 7 4 6 16 50 15 57 7 7 48 0 5 0 48 115 261 323 229 198 407 10 7
1062 1152 1141 1574 1456 1275 762 459 126 335 455 10 0 0 135 452 479 466 328 49 12 4 3 9 14 52 52 22 5 41 0 0 0 0 3 0 3 112 121 52 92 82 31
1175 1155 989 1426 1314 956 678 365 605 366 12 0 0 2 10 283 480 428 240 19 6 4 2 1 0 1 2 0 24 248 93 62 0 0 0 0 0 11 2 3 6 21 10
1134 1151 1067 1386 1228 1030 724 376 673 437 29 1 5 40 18 9 361 287 92 3 5 4 1 0 0 0 0 17 344 172 77 0 0 0 0 0 0 0 0 0 0 1 5
957 1103 1234 1384 1196 1198 1059 672 629 391 73 1 5 13 24 6 9 8 10 2 5 3 1 0 0 0 0 43 54 80 22 0 0 0 0 0 0 0 0 0 0 0 1
1002 1073 1044 1338 1204 913 856 740 824 982 175 3 4 6 13 14 11 10 3 1 4 1 0 0 0 0 0 0 0 19 12 0 0 0 0 0 0 4 0 0 0 0 0
1175 1153 1046 1159 1256 980 758 677 688 1078 685 29 5 8 9 12 14 6 8 5 5 1 0 0 0 0 0 0 0 0 0 0 0 0 0 0 24 21 0 0 0 0 0
1169 1028 938 899 967 958 795 612 507 920 1071 542 99 33 10 13 12 11 4 10 22 24 5 0 8 25 19 0 0 0 0 0 0 0 0 0 2 3 0 0 0 0 0
851 889 856 804 721 426 322 343 283 532 928 643 285 55 29 2 28 53 77 86 38 29 27 16 7 0 0 0 0 0 0 0 0 0 0 0 0 0 0 0 0 0 0
521 619 849 830 330 137 37 105 412 482 716 534 198 14 0 0 0 16 0 14 34 20 14 15 9 0 0 0 0 0 0 0 0 0 0 0 0 0 0 0 0 0 0
877 1153 1063 772 289 119 37 79 138 192 276 349 72 6 0 0 0 0 0 0 39 26 11 0 0 0 0 0 0 0 0 0 0 0 0 0 0 0 0 3 0 0 0
323 840 1100 662 272 116 36 1 24 15 25 80 15 0 0 0 0 0 0 0 0 0 0 0 0 0 0 0 0 0 0 0 0 0 0 0 0 0 0 0 0 0 0
436 239 360 519 351 161 23 0 0 0 0 1 0 0 0 0 0 0 0 0 0 0 0 0 0 0 0 0 0 0 0 0 0 0 0 0 0 0 0 0 101 0 0
131 115 266 403 365 213 60 2 0 0 0 0 0 0 0 0 0 0 0 0 0 0 0 0 0 0 0 0 0 0 0 0 0 0 0 0 0 0 0 0 76 114 62
118 114 363 524 545 293 90 68 29 0 0 0 0 0 0 0 0 0 0 0 0 0 0 0 0 0 0 0 0 0 0 0 0 0 0 0 0 0 0 0 1 53 185
347 383 524 552 654 398 110 84 136 111 71 25 6 0 0 0 0 0 0 0 0 0 0 0 0 0 0 0 0 0 0 0 0 0 0 0 0 0 0 0 14 23 39
642 828 712 706 643 541 326 161 213 180 89 87 73 27 0 0 0 0 0 0 0 0 0 0 0 0 0 0 0 0 0 0 0 1 1 0 0 0 0 0 25 104 144
543 628 786 717 598 609 506 512 353 255 143 35 40 61 22 0 0 0 0 0 0 0 0 0 0 0 0 0 0 0 1 2 1 4 4 1 1 0 0 0 0 21 81
505 436 595 701 682 499 593 765 384 338 318 165 126 133 110 53 0 0 0 0 0 0 0 0 0 0 0 1 4 4 7 0 0 0 0 0 0 0 0 0 0 0 6
340 355 482 482 484 407 381 457 312 472 276 181 82 118 138 78 13 0 0 0 0 0 6 5 19 27 28 5 24 6 0 0 0 0 0 0 0 0 0 0 0 0 0
403 374 376 382 409 501 493 545 428 195 96 152 90 47 108 83 42 5 0 7 16 25 48 44 56 100 80 14 17 0 0 0 0 0 0 0 0 0 0 0 0 0 0
228 407 476 529 611 533 276 215 161 107 133 141 128 137 80 76 69 52 20 24 52 106 163 148 141 126 135 16 5 16 9 0 0 0 0 0 0 0 0 0 0 0 0
0 270 471 491 505 435 291 330 395 387 350 193 164 91 76 95 123 132 89 97 215 224 223 125 52 48 15 13 0 0 0 2 15 0 0 0 0 0 0 0 0 0 0
0 0 359 404 472 444 347 365 322 268 256 87 20 6 0 0 0 0 0 0 0 0 0 0 0 0 0 0 0 0 0 0 0 5 0 0 0 0 0 0 0 0 0
0 0 0 72 338 407 412 342 354 317 105 45 3 22 0 0 0 0 0 0 0 0 0 0 0 0 0 0 0 0 0 0 0 0 0 0 0 0 0 0 0 0 0

GFSSE_con_sbcape_078.txt.gz
CAPE
399 710 1305 1231 1067 484 219 131 87 192 224 281 580 854 950 1038 798 616 377 173 37 1 10 11 9 19 87 105 169 136 146 171 140 137 184 225 354 377 375 39 4 0 0
597 876 1472 1511 1046 690 203 246 206 590 169 38 388 743 983 977 784 460 298 45 10 5 9 14 20 11 8 60 105 44 60 0 0 101 106 66 352 263 163 118 80 6 10
873 882 963 1494 1254 1150 627 224 143 369 117 23 201 565 634 637 615 405 130 11 7 6 9 66 77 14 71 67 15 7 1 0 0 0 0 0 0 13 1 0 18 55 83
923 884 839 1132 1272 963 550 84 480 130 0 0 11 406 587 625 621 200 42 7 5 7 14 9 41 3 0 8 91 75 56 0 0 0 0 0 0 0 1 3 7 2 8
920 845 845 1141 1185 826 328 430 470 38 0 1 29 371 455 589 531 252 8 7 5 5 8 49 0 0 99 377 287 164 29 0 0 0 0 0 0 0 0 0 0 2 4
775 814 945 1176 1070 1129 691 748 417 31 2 3 47 56 321 562 526 97 7 7 7 4 31 48 0 0 57 497 90 53 20 0 0 0 0 0 0 0 0 0 0 0 1
717 702 783 1128 1067 883 836 735 723 110 2 5 15 11 3 10 10 5 6 7 7 4 9 10 0 0 0 51 81 37 0 0 0 0 0 0 0 0 0 0 0 0 0
792 703 652 778 1124 1111 778 772 731 413 4 6 12 20 14 15 9 9 4 6 5 2 0 0 0 0 13 0 7 7 0 0 0 0 0 0 25 3 0 0 0 0 0
617 655 531 590 814 744 667 695 783 797 273 7 18 22 26 24 11 7 5 5 32 15 19 23 25 22 8 0 0 0 0 0 0 0 0 0 0 3 0 0 0 0 0
352 460 519 426 474 292 248 344 383 550 437 129 54 13 12 10 13 11 39 65 52 44 18 7 7 13 0 0 0 0 0 0 0 0 0 0 0 0 0 0 0 0 0
219 317 450 514 248 77 30 68 148 507 412 157 43 0 3 0 2 4 0 40 52 27 17 12 1 0 0 0 0 0 0 0 0 0 0 0 0 0 0 0 0 0 0
41 297 433 466 201 62 44 40 52 159 375 144 14 0 0 0 0 0 0 0 14 12 5 0 0 0 0 0 0 0 0 0 0 0 0 0 0 0 0 1 0 0 0
1 542 789 629 180 58 25 48 33 33 73 176 13 0 0 0 0 0 0 0 0 0 0 0 0 0 0 0 0 0 0 0 0 0 0 0 0 0 0 0 0 0 0
86 98 112 355 209 96 0 41 38 44 37 79 30 0 0 0 0 0 0 0 0 0 0 0 0 0 0 0 0 0 0 0 0 0 0 0 0 0 0 0 0 93 0
53 11 5 6 218 185 18 0 29 43 49 52 21 0 0 0 0 0 0 0 0 0 0 0 0 0 0 0 0 0 0 0 0 0 0 0 0 0 0 0 8 142 99
73 27 11 0 254 219 105 1 4 19 29 30 19 14 0 0 0 0 0 0 0 0 0 0 0 0 0 0 0 0 0 0 0 0 0 0 0 0 0 0 1 23 151
5 8 6 25 226 262 165 52 15 0 0 9 15 2 0 0 0 0 0 0 0 0 0 0 0 0 0 0 0 0 0 0 0 0 0 0 0 0 0 2 3 21 66
8 82 120 73 353 349 173 123 115 97 14 2 3 0 0 0 0 0 0 0 0 0 0 0 0 0 0 0 0 0 0 0 0 0 0 0 0 0 0 4 12 31 86
199 231 432 416 449 462 241 177 171 171 101 15 25 18 0 0 0 0 0 0 0 0 0 0 0 0 0 0 0 0 0 0 0 0 0 0 0 0 0 0 0 3 45
513 443 348 449 525 430 358 239 254 252 185 63 26 30 26 2 0 0 0 0 0 0 0 0 0 0 0 0 1 7 5 0 0 0 0 0 0 0 0 0 0 0 2
364 266 471 412 354 317 317 260 412 359 282 147 55 33 74 58 9 0 0 0 0 0 0 0 0 1 30 22 47 7 0 0 0 0 0 0 0 0 0 0 0 0 0
389 284 391 400 330 247 202 65 133 160 202 234 75 48 64 96 60 12 6 0 0 0 0 4 31 67 70 34 80 0 0 0 0 0 0 0 0 0 0 0 0 0 0
175 343 441 377 341 368 337 203 26 42 43 40 63 27 26 69 83 52 16 3 0 0 39 48 49 106 184 4 0 5 3 0 0 0 0 0 0 0 0 0 0 0 0
0 85 384 421 412 294 234 253 116 168 125 93 73 23 7 2 14 16 11 5 7 109 188 106 68 107 102 76 0 0 0 0 9 0 0 0 0 0 0 0 0 0 0
0 0 197 340 344 360 280 300 185 181 117 71 19 25 0 0 0 0 1 3 5 0 0 5 0 0 0 0 0 0 0 0 0 0 0 0 0 0 0 0 0 0 0
0 0 0 221 282 295 206 203 250 279 150 59 19 21 9 0 0 0 0 0 0 0 0 0 0 0 0 0 0 0 0 0 0 0 0 0 0 0 0 0 0 0 0

GFSSE_con_sbcape_081.txt.gz
CAPE
499 832 1366 1189 902 481 371 165 110 513 606 277 707 900 1075 1037 917 711 347 73 305 20 5 8 76 359 270 170 135 212 149 130 273 269 302 566 613 183 3 0 2 0 1
626 854 1230 1395 897 750 320 221 465 637 669 873 789 911 1022 1291 773 518 150 5 11 13 12 16 189 278 303 76 9 35 1 135 10 3 2 115 302 65 4 21 151 39 120
819 831 950 1371 1175 661 404 229 672 33 277 592 1062 1195 1046 1004 735 397 64 18 5 12 19 17 8 15 27 50 44 2 1 0 0 0 0 0 0 0 0 0 47 56 11
875 967 870 1223 1191 1049 414 238 519 29 0 425 708 904 954 791 747 98 18 7 10 77 15 8 12 5 29 86 62 37 0 0 0 0 0 0 0 0 1 3 1 2 4
1007 1006 915 1096 1206 982 156 526 314 6 0 158 565 676 922 1000 359 63 9 10 153 79 23 9 3 106 264 339 131 25 0 0 0 0 0 0 0 0 0 0 1 3 2
1068 1092 972 1032 1147 898 693 695 149 0 0 0 402 507 811 849 294 10 9 32 93 94 26 2 38 275 442 295 57 26 0 0 0 0 0 0 0 0 0 0 0 0 1
1123 1090 864 1083 1161 1015 1141 758 326 0 1 2 7 371 538 662 224 11 9 7 6 72 49 0 37 53 155 185 63 0 0 0 0 0 0 1 2 0 0 0 0 0 0
994 1020 788 796 1135 1092 1182 734 528 18 2 13 32 123 462 187 15 9 9 6 7 75 50 17 30 23 22 64 41 0 0 0 0 0 0 5 12 4 0 0 0 0 0
907 905 742 579 734 918 862 644 580 133 5 14 18 17 126 119 45 13 13 8 33 52 45 34 27 15 10 0 0 0 0 0 0 0 0 0 0 4 0 0 0 0 0
453 747 691 570 782 466 587 552 547 309 33 13 20 20 10 7 20 63 69 91 52 36 36 42 35 16 0 0 0 0 0 0 0 0 0 0 0 0 0 0 0 0 0
68 230 335 623 589 272 197 443 457 333 81 11 6 8 9 7 12 7 2 49 92 53 20 14 0 0 0 0 0 0 0 0 0 0 0 0 0 0 0 0 0 0 0
0 31 226 322 375 201 87 171 397 464 146 0 0 0 1 5 7 1 0 5 58 34 20 6 0 0 0 0 0 0 0 0 0 0 0 0 0 0 0 0 0 0 0
2 10 179 260 182 161 65 93 129 457 423 69 5 0 0 5 33 22 36 25 27 0 0 0 0 0 0 0 0 0 0 0 0 0 0 0 0 0 0 0 0 0 0
5 86 50 0 96 125 49 75 87 316 391 134 30 8 7 7 9 0 0 2 0 0 0 0 0 0 0 0 0 0 0 0 0 0 0 0 0 0 0 0 0 82 6
3 32 1 9 3 73 18 81 94 121 410 255 85 33 10 1 0 0 0 0 0 0 0 0 0 0 0 0 0 0 0 0 0 0 0 0 0 0 0 0 1 90 102
21 29 8 1 12 171 60 62 162 153 171 267 217 90 45 28 12 4 7 0 0 0 0 0 0 0 0 0 0 0 0 0 0 0 0 0 0 0 0 6 7 23 56
66 41 1 1 5 274 159 47 92 158 95 163 184 172 100 43 32 19 23 20 1 0 0 0 0 0 0 0 0 0 0 0 0 0 0 0 0 0 0 2 10 19 38
6 0 0 0 4 132 221 143 98 67 38 140 155 175 134 69 31 28 27 33 1 0 0 0 0 0 0 0 0 0 0 0 0 0 0 0 0 0 0 0 7 29 53
20 7 0 2 14 342 237 157 142 120 147 79 46 61 88 84 33 18 17 14 0 0 0 0 0 0 0 0 0 0 0 0 0 0 0 0 0 0 0 0 0 0 19
117 25 7 16 45 393 309 253 280 264 210 165 74 49 19 7 1 0 0 0 0 0 0 0 0 0 0 3 0 24 46 22 0 3 0 0 0 0 0 0 0 6 0
213 217 152 258 219 199 205 177 304 296 358 239 201 88 59 75 2 0 0 0 0 0 0 0 0 0 5 17 65 73 12 0 0 0 0 0 0 0 0 0 0 0 0
165 165 190 238 136 238 128 114 57 105 228 327 284 145 88 104 61 27 7 0 0 6 5 7 22 86 65 63 163 10 16 0 0 0 0 0 0 0 0 0 0 0 0
192 138 163 269 253 185 164 170 96 52 53 60 102 137 45 42 49 19 13 32 4 22 45 86 119 165 198 21 23 72 8 1 0 0 0 0 0 0 0 0 0 0 0
1 185 220 230 297 305 156 262 145 82 67 106 132 86 52 21 8 7 11 19 12 8 13 51 92 124 165 267 3 9 12 34 12 4 0 0 0 0 0 0 0 0 0
0 0 0 176 191 242 287 271 133 49 2 113 74 54 65 2 2 19 33 14 1 1 1 1 16 1 14 49 40 0 0 0 1 2 0 0 0 0 0 0 0 0 0
0 0 0 69 225 202 169 168 203 130 39 67 85 75 11 3 1 2 11 2 0 0 0 0 0 0 0 0 0 0 0 0 0 0 2 0 0 0 0 0 0 0 0

GFSSE_con_sbcape_084.txt.gz
CAPE
520 782 1422 1277 828 572 366 186 153 417 536 1097 1024 997 998 1079 1077 959 592 260 465 26 8 138 468 543 507 422 322 178 170 153 364 363 486 607 199 1 0 0 94 38 256
429 834 1500 1435 957 620 416 253 847 792 608 1282 1014 1035 1113 1114 997 573 274 68 16 5 38 193 355 209 9 76 15 139 130 68 7 5 195 136 117 17 22 41 459 348 156
639 781 1112 1240 1246 1017 675 329 516 526 753 1104 1160 1160 1180 1209 747 260 114 90 111 22 52 166 372 237 8 11 10 7 1 0 0 0 0 0 0 0 0 0 6 3 20
681 758 854 1188 1181 1063 607 404 207 204 586 1182 1030 1288 1147 1040 888 156 62 54 382 227 48 18 16 16 10 20 2 0 0 0 0 0 0 0 0 0 1 0 0 0 0
716 681 771 1123 1248 1108 525 741 76 30 380 828 1043 1024 1073 1064 226 95 42 269 313 315 87 14 4 38 78 71 6 0 0 0 0 0 0 0 0 0 0 0 0 1 0
805 806 920 1119 1184 1142 765 713 155 0 62 485 678 784 841 1083 175 30 205 277 299 225 15 77 209 335 519 69 18 0 0 0 0 0 0 0 0 0 0 0 0 0 0
758 803 927 1039 1118 895 1221 761 305 1 0 165 410 712 648 597 53 25 14 109 146 109 51 91 299 157 103 58 1 0 0 0 0 0 2 6 5 1 0 0 0 0 0
783 806 735 709 1020 1105 1220 695 277 58 0 108 345 598 630 541 37 10 10 64 112 36 47 41 40 98 115 54 0 0 0 0 0 0 1 5 6 3 0 0 0 0 0
776 765 683 697 426 950 909 579 214 60 114 161 214 452 499 204 16 5 4 51 89 52 44 32 22 11 15 22 0 0 0 0 0 0 0 0 0 3 0 0 0 0 0
218 871 785 651 435 320 592 410 155 46 67 46 130 66 1 2 16 46 4 6 119 97 60 38 27 13 0 0 0 0 0 0 0 0 0 0 0 0 0 0 0 0 0
9 15 742 685 517 213 476 453 207 56 0 6 2 1 0 9 8 8 5 7 93 72 51 46 32 7 0 0 0 0 0 0 0 0 0 0 0 0 0 0 0 0 0
0 0 75 629 593 251 238 634 514 43 5 3 10 12 13 2 7 3 6 46 102 87 57 18 1 0 0 0 0 0 0 0 0 0 0 0 0 0 0 0 0 0 0
0 29 9 201 460 199 8 680 747 503 57 7 2 8 12 12 12 5 36 47 22 0 0 0 0 0 0 0 0 0 0 0 0 0 0 0 0 0 0 0 13 0 0
14 43 170 150 326 228 101 128 802 739 372 129 1 0 2 5 6 2 3 0 0 0 0 0 0 0 0 0 0 0 0 0 0 0 0 0 0 0 0 0 0 95 49
122 22 84 36 67 293 254 27 241 782 679 347 94 0 0 0 10 0 0 0 0 0 0 0 0 0 0 0 0 0 0 0 0 0 0 0 0 0 0 0 1 18 156
89 66 27 11 5 116 279 167 40 294 761 651 251 102 34 25 2 0 0 0 0 0 0 0 0 0 0 0 0 0 0 0 0 0 0 0 0 0 0 1 10 19 41
58 30 9 50 35 50 324 307 83 68 300 675 595 361 150 132 75 46 28 68 52 16 0 0 0 0 3 0 0 0 0 3 2 1 3 5 3 0 0 0 7 20 27
50 101 94 88 24 65 469 309 220 219 184 222 537 585 373 249 154 136 151 149 101 26 7 1 0 0 0 0 0 0 1 5 35 9 14 11 7 1 0 0 0 14 43
144 153 65 50 12 153 454 343 250 291 368 374 332 384 427 433 287 186 114 119 122 39 21 10 13 0 0 0 0 13 33 45 54 10 12 15 9 0 1 0 0 0 0
113 70 27 8 38 165 396 373 299 193 171 245 279 393 405 455 431 304 100 110 99 55 17 19 4 0 0 6 31 35 82 58 41 62 40 4 1 0 0 0 0 3 0
130 100 82 23 89 345 508 461 360 457 408 345 330 272 246 203 190 196 78 104 73 62 59 28 7 0 7 69 168 93 46 52 34 21 6 0 0 0 0 0 0 0 5
47 179 103 152 179 75 118 241 232 270 318 326 440 474 391 303 231 190 141 125 91 47 192 69 21 55 91 162 148 171 29 16 0 0 0 0 0 0 0 0 0 0 11
35 76 94 135 95 97 148 182 150 127 159 147 223 331 441 353 243 286 261 173 82 52 310 221 182 206 377 200 208 154 40 1 5 0 0 0 0 0 0 0 0 0 0
8 73 70 102 86 89 99 125 139 125 67 105 79 244 271 255 256 171 125 57 42 6 19 30 27 97 257 203 167 179 201 91 23 0 0 0 0 0 0 0 0 0 0
5 160 114 139 167 113 171 194 104 81 68 88 28 88 155 97 141 55 22 19 30 72 18 2 4 1 7 10 33 69 156 169 67 56 0 0 0 0 0 0 0 0 0
0 0 0 4 153 267 179 145 112 21 102 18 8 60 74 97 53 42 63 49 28 17 2 0 0 0 0 0 9 26 58 6 0 0 0 0 0 0 0 0 0 0 0

GFSSE_con_sbcape_087.txt.gz
CAPE
782 1002 1647 1244 784 586 374 317 189 446 1371 1407 1069 905 842 949 1054 967 544 277 475 90 102 447 653 608 510 488 196 197 465 364 434 411 451 320 84 20 32 264 436 155 379
572 973 1587 1528 667 588 383 284 525 676 1298 1494 1240 998 957 1126 1127 854 418 128 15 37 380 690 411 525 325 15 206 15 155 73 39 178 0 0 72 58 0 51 371 93 299
566 969 1007 1501 1132 977 637 489 663 661 933 1407 1317 1332 1160 1198 1032 640 252 75 20 244 555 339 154 15 9 10 11 7 1 0 0 0 3 0 0 0 0 0 14 13 11
699 983 920 1439 1408 1052 805 608 687 499 672 1187 1224 1323 1319 1184 726 437 194 75 290 498 499 397 124 7 11 7 4 0 0 0 0 0 0 0 0 0 0 0 0 0 1
759 980 980 1333 1387 1122 746 495 455 577 835 954 1030 1137 1272 1107 504 202 301 527 393 424 258 124 67 19 51 1 0 0 0 0 0 0 0 0 0 0 0 0 0 0 0
672 632 1124 1186 1271 1165 1198 629 183 339 778 962 1015 953 866 1064 351 235 414 431 259 37 55 36 111 134 94 0 0 0 0 0 0 0 0 0 0 0 0 0 0 0 0
720 760 1096 1160 1264 1166 1157 934 438 128 584 693 838 835 670 817 157 112 359 300 175 106 91 293 364 200 53 0 0 0 0 0 0 0 1 0 0 1 0 0 0 0 0
777 765 843 749 1024 1013 1285 826 475 213 292 515 707 806 633 610 67 93 232 213 160 76 118 301 146 107 64 0 0 0 0 0 0 0 1 0 1 1 0 0 0 0 0
144 537 591 612 619 739 854 566 400 260 268 390 534 665 494 254 91 7 120 273 146 14 75 60 96 118 82 0 0 0 0 0 0 0 0 0 0 1 0 0 0 0 0
1 0 0 573 473 29 507 373 278 240 362 309 262 161 43 32 18 32 25 201 169 67 65 38 22 14 0 0 0 0 0 0 0 0 0 0 0 0 0 0 0 0 0
120 32 0 0 470 142 418 335 100 72 57 59 16 0 1 2 6 6 13 92 144 139 78 37 25 11 3 0 0 0 0 0 0 0 0 0 0 0 0 0 0 0 0
105 26 11 0 0 142 405 368 73 1 1 0 4 0 13 14 7 0 4 26 109 100 82 46 20 0 0 0 0 0 0 0 0 0 0 0 0 0 0 0 0 0 0
242 51 15 6 0 3 477 695 290 8 0 2 0 9 19 11 2 9 10 9 35 15 2 8 0 0 0 0 0 0 0 0 0 0 0 0 0 0 0 0 0 0 0
197 95 9 0 3 14 113 782 516 380 6 6 9 3 20 7 12 5 1 0 0 0 0 0 0 0 0 0 0 0 0 0 0 0 0 0 0 0 0 0 0 40 46
78 102 8 3 2 2 179 194 427 461 260 10 3 6 8 11 36 1 0 0 0 0 0 0 0 0 0 0 0 0 0 0 0 0 0 0 0 0 0 0 0 3 32
65 51 22 10 5 16 126 241 203 391 562 314 60 0 1 2 39 32 0 6 0 0 0 0 0 0 0 0 0 0 0 0 0 1 0 0 0 0 0 0 9 15 23
59 77 44 13 3 1 19 279 185 244 387 670 308 54 0 0 0 0 0 0 0 0 0 0 0 0 0 0 0 0 0 3 2 0 10 17 1 0 0 0 12 36 49
75 164 71 54 41 36 16 134 313 147 264 340 567 286 124 113 76 54 37 66 68 50 20 0 0 0 0 0 0 0 0 4 2 10 15 17 22 16 2 5 3 11 38
77 139 168 125 91 5 20 143 379 248 163 247 489 672 471 259 247 190 199 196 146 99 26 15 10 4 6 1 0 0 30 46 41 7 6 11 21 8 5 3 0 0 0
179 130 135 114 63 8 32 262 327 326 312 375 358 354 454 472 460 411 244 131 138 154 75 41 17 32 15 8 0 6 76 97 80 30 13 8 0 0 0 0 0 3 0
282 187 191 217 13 21 68 264 302 306 305 343 409 461 451 441 442 512 371 140 173 246 185 69 36 19 18 18 61 62 91 93 65 53 24 0 0 0 0 0 0 0 9
0 10 113 45 53 71 100 155 245 446 550 507 502 486 374 338 295 321 361 223 229 267 234 211 133 44 35 60 226 150 158 91 35 7 0 0 0 0 0 0 0 0 0
0 55 94 100 65 62 78 100 80 143 269 351 496 440 419 420 340 427 432 356 279 182 221 311 175 99 149 263 295 225 103 35 70 12 19 0 0 0 0 0 0 0 0
19 16 52 1 113 89 62 91 85 134 171 213 291 321 498 380 343 347 316 391 284 195 70 41 96 93 203 254 216 150 118 133 65 32 17 0 0 0 0 0 0 0 0
48 21 3 12 19 113 66 59 91 86 105 127 68 133 189 242 193 238 310 252 156 119 59 63 36 35 1 3 3 0 0 6 51 76 7 0 0 0 0 0 0 0 0
0 0 0 1 12 61 96 120 83 113 93 60 132 108 75 96 142 136 116 131 126 51 50 2 0 0 0 8 0 0 0 0 10 11 1 0 0 0 0 0 0 0 0

GFSSE_con_sbcape_090.txt.gz
CAPE
880 955 1657 1091 812 602 474 321 487 1390 1889 1630 1124 1043 1185 1217 1075 908 424 93 287 265 265 604 600 584 530 396 305 386 372 446 268 130 203 234 128 209 324 288 501 308 202
970 988 1619 1423 815 621 504 432 698 1026 1679 1384 1391 953 1042 1174 1156 851 449 165 180 387 740 684 613 425 168 23 135 190 74 61 4 61 0 4 119 22 7 181 372 168 237
892 800 1332 1508 1229 1051 906 514 758 815 1564 1388 1299 1233 1097 1221 1062 755 327 213 685 810 517 279 139 7 107 21 60 14 0 0 0 41 0 0 0 2 0 0 38 10 10
975 825 870 1411 1291 1059 843 571 689 465 865 1454 1245 1480 1713 1193 994 594 225 318 960 991 712 118 15 10 17 6 2 0 0 0 0 0 0 0 0 0 0 0 4 9 3
985 737 956 1302 1365 1167 705 743 702 539 689 1194 1103 1184 1244 1103 1098 447 422 598 809 797 558 99 15 9 4 0 0 0 0 0 0 0 0 0 0 0 0 0 0 0 0
929 901 1205 1353 1218 1178 969 811 540 629 520 911 1004 1092 1292 936 699 710 617 365 321 246 332 113 89 65 0 0 0 0 0 0 0 0 0 0 0 1 0 0 0 0 0
726 1002 1061 1229 1077 1283 1165 758 631 504 917 861 904 843 809 822 493 478 344 59 15 100 60 79 116 24 0 0 0 0 0 0 0 0 0 0 0 0 0 0 0 0 0
791 940 771 1058 1216 1040 1126 822 461 450 791 1060 877 764 762 636 449 351 147 8 8 75 216 405 203 39 0 0 0 0 0 0 0 0 0 0 2 1 0 0 0 0 0
315 210 21 354 725 725 1081 765 456 320 419 731 738 610 414 408 387 34 19 118 174 143 428 354 141 80 0 0 0 0 0 0 0 0 0 0 0 0 0 0 0 0 0
75 82 14 0 319 312 725 439 290 182 344 254 435 226 77 7 10 9 69 62 55 169 158 171 159 118 41 0 0 0 0 0 0 0 0 0 0 0 0 0 0 0 0
213 90 26 21 4 0 155 223 163 182 142 133 10 5 0 0 1 1 11 29 66 112 110 63 35 33 6 0 0 0 0 0 0 0 0 0 0 0 0 0 0 0 0
341 137 44 14 103 0 0 73 15 12 0 6 2 0 0 0 0 2 13 23 91 102 90 72 42 22 0 0 0 0 0 0 0 0 0 0 0 0 0 0 0 0 0
263 123 94 89 92 19 0 0 54 0 0 0 0 1 15 5 0 0 0 9 6 2 4 14 4 0 0 0 0 0 0 0 0 0 0 0 0 0 0 0 0 0 0
217 133 60 9 0 1 0 35 37 3 0 0 0 0 4 0 0 0 0 0 1 0 0 0 0 0 0 0 0 0 0 0 0 0 0 0 0 0 0 0 0 21 51
255 207 117 27 8 62 97 59 87 120 0 0 0 0 0 0 0 0 0 0 0 0 0 0 0 0 0 0 0 0 0 0 0 0 0 0 0 0 0 0 0 0 3
116 92 77 57 10 109 33 25 6 137 157 0 0 0 2 0 0 0 0 0 0 0 0 0 0 0 0 0 0 0 0 0 0 0 0 0 0 0 0 0 0 11 21
96 56 92 132 44 14 53 21 64 47 107 87 0 0 0 0 0 0 0 0 0 0 0 0 0 0 0 0 0 0 0 0 0 0 0 0 0 0 0 6 23 28 31
205 113 119 142 21 11 10 77 92 82 90 89 89 0 0 0 0 0 0 0 0 0 0 0 0 0 0 0 0 0 0 0 0 0 0 0 0 0 0 7 43 50 23
269 145 35 117 85 91 85 26 71 155 37 174 129 152 8 15 3 0 0 0 17 28 7 0 0 0 0 0 0 0 0 0 0 0 0 0 0 1 0 0 0 0 0
320 178 136 137 85 83 64 46 113 196 109 129 196 189 255 133 141 104 105 100 81 71 29 12 7 3 0 4 0 0 0 3 6 3 0 1 0 0 0 0 0 0 0
272 187 114 106 79 63 28 49 66 110 165 229 259 265 267 326 387 372 235 90 54 123 70 28 39 12 14 11 0 0 3 12 25 11 0 0 0 0 0 0 0 0 0
53 131 98 115 100 34 13 42 109 114 167 121 276 339 332 277 375 347 314 236 82 167 193 137 58 23 13 8 10 49 25 4 0 1 0 0 0 0 0 0 0 0 0
0 3 110 129 85 53 29 67 90 110 74 161 257 258 247 315 331 270 271 259 221 201 213 215 190 139 40 32 28 45 47 10 0 0 0 0 0 0 0 0 0 0 0
1 0 47 22 78 50 44 36 50 41 62 52 56 166 267 321 305 315 297 285 246 180 151 93 32 35 49 111 85 105 1 1 2 3 0 0 0 0 0 0 0 0 0
1 0 0 30 10 5 19 15 18 10 52 50 17 15 67 189 186 244 249 262 211 127 144 64 81 69 31 35 37 0 0 0 0 0 0 0 0 0 0 0 0 0 0
0 0 0 0 3 6 3 15 71 32 34 27 32 25 37 105 118 136 137 182 202 169 129 93 65 31 19 19 4 1 0 0 0 0 0 0 0 0 0 0 0 0 0

GFSSE_con_sbcape_093.txt.gz
CAPE
649 1014 1592 953 728 652 511 902 1754 1857 1915 1693 1240 1203 1255 1163 1265 777 172 136 387 531 704 537 659 537 509 576 490 433 137 98 105 104 158 246 355 298 288 376 498 200 240
715 1110 1591 1283 755 573 687 798 1338 1705 1653 1686 1391 1156 1036 1173 1150 642 197 77 364 545 766 736 620 484 458 309 227 191 67 2 0 40 0 9 134 72 69 101 370 110 263
905 1166 1190 1465 1245 1101 835 652 928 1569 1367 1339 1607 1229 1294 1192 1020 656 333 377 814 793 752 545 418 72 30 10 99 37 0 0 0 27 0 0 0 5 1 0 36 6 46
1010 1165 1127 1516 1380 1089 887 451 597 891 1500 1309 1183 1660 1697 1228 918 815 261 670 1008 795 476 321 60 10 8 4 39 0 0 0 0 0 0 0 0 0 0 6 9 5 10
981 1076 1180 1506 1479 1148 776 553 392 332 1081 1546 1377 1339 1439 1266 862 565 633 1066 895 614 318 28 21 8 7 0 0 0 0 0 0 0 0 0 0 1 0 0 0 0 0
743 881 1396 1527 1523 1245 1208 924 664 357 530 1239 1358 1082 1449 1060 961 881 782 898 604 252 73 0 8 5 0 0 0 0 0 0 0 0 0 0 0 0 0 0 0 0 0
728 989 1237 1690 1592 1376 1240 1021 941 766 790 934 1124 961 1147 1035 855 853 592 586 297 343 214 28 12 0 0 0 0 0 0 0 0 0 0 0 0 0 0 1 0 0 0
1009 1095 1169 1408 1398 1431 1170 1019 871 829 1274 1155 1172 1000 981 967 767 614 482 111 10 14 69 83 20 0 0 0 0 0 0 0 0 0 0 0 2 0 0 0 0 0 0
680 603 850 1052 1092 1172 1137 827 552 511 837 1169 854 735 616 572 584 280 103 7 54 231 537 479 65 0 0 0 0 0 0 0 0 0 0 0 1 0 0 0 0 0 0
36 31 88 306 91 164 818 646 377 193 387 527 649 387 172 148 147 7 47 29 9 668 529 407 150 21 0 0 0 0 0 0 0 0 0 0 0 0 0 0 0 0 0
44 38 98 24 0 5 137 320 240 167 225 187 294 70 11 0 2 2 14 22 105 188 223 235 185 115 21 0 0 0 0 0 0 0 0 0 0 0 0 0 0 0 0
89 36 9 16 1 27 3 0 0 51 105 88 27 0 0 0 0 3 17 12 31 85 77 74 42 17 0 0 0 0 0 0 0 0 0 24 0 0 0 0 0 0 0
271 95 53 51 40 7 4 0 0 0 0 32 14 0 0 0 0 0 18 16 9 10 0 7 6 0 0 0 0 0 0 0 0 0 0 0 0 0 0 0 0 0 0
113 89 75 75 19 4 0 0 0 0 1 0 40 46 1 0 0 0 5 16 8 0 0 0 0 0 0 0 0 0 0 0 0 0 0 0 0 0 0 0 0 6 22
146 91 21 0 7 0 0 3 0 27 44 7 58 74 28 3 0 0 0 0 0 0 0 0 0 0 0 0 0 0 0 0 0 0 0 0 0 0 0 0 0 0 0
119 38 1 2 7 34 0 0 0 1 12 2 25 55 45 0 3 7 0 0 0 0 0 0 0 0 0 0 0 0 0 0 0 0 0 0 0 0 0 0 0 2 12
86 78 47 32 55 95 59 0 1 0 98 80 2 3 38 3 0 0 0 0 0 0 0 0 0 0 0 0 0 0 0 0 0 0 0 0 0 0 0 3 16 28 44
73 88 125 156 43 47 42 29 1 14 102 136 133 1 0 10 0 0 0 0 0 0 0 0 0 0 0 0 0 0 0 0 0 0 0 0 0 0 0 2 94 136 115
83 116 170 122 63 19 43 26 88 15 96 123 97 83 0 1 0 0 0 0 0 0 0 0 0 0 0 0 0 0 0 0 0 0 0 0 0 0 0 0 0 0 10
73 73 78 127 72 42 49 62 87 99 108 153 107 78 18 0 0 0 0 0 0 0 0 0 0 0 0 0 0 0 0 0 0 0 0 0 0 0 0 0 0 0 0
101 123 93 97 122 105 36 44 58 64 73 73 121 88 89 91 46 17 34 14 19 31 0 0 0 0 0 0 0 0 0 0 2 2 0 0 0 0 0 0 0 0 0
209 187 190 143 105 133 74 16 16 34 12 59 123 95 139 110 189 245 156 82 24 84 36 11 16 19 11 0 1 11 4 5 0 0 0 0 0 0 0 0 0 0 0
77 130 191 213 138 144 50 35 12 16 11 53 53 67 107 199 131 210 212 216 98 94 127 91 114 38 24 10 7 33 28 32 0 0 0 0 0 0 0 0 0 0 0
13 6 110 102 195 158 62 32 10 8 21 41 61 13 63 104 116 93 99 119 164 168 161 141 121 120 134 110 66 59 0 0 0 0 0 0 0 0 0 0 0 0 0
39 2 1 54 71 100 116 78 24 1 7 32 17 10 29 32 76 150 128 70 77 83 116 63 74 76 38 36 28 0 1 0 0 0 0 0 0 0 0 0 0 0 0
0 0 0 0 0 6 13 19 29 23 24 49 15 17 2 4 5 18 66 73 142 111 84 47 79 75 68 51 16 0 0 0 0 0 0 0 0 0 0 0 0 0 0

GFSSE_con_sbcape_096.txt.gz
CAPE
591 1063 1640 1070 932 1315 1648 1852 1924 1863 1828 1362 1296 1291 1265 1298 857 168 172 378 501 408 12 42 296 475 663 543 144 56 78 137 131 123 176 359 318 170 409 375 331 136 264
700 1119 1570 1228 880 961 1501 2048 2045 1946 1895 1796 1243 1118 786 1415 952 289 246 538 663 573 639 624 588 688 589 435 25 2 3 4 0 0 2 41 158 143 140 128 326 257 362
950 1103 1089 1371 1280 1202 1154 1196 1859 1816 1672 1741 1717 1156 901 1270 991 454 136 580 799 846 812 631 511 423 214 126 69 1 1 0 0 0 0 0 0 4 7 4 7 45 64
984 1081 1021 1467 1412 1073 824 731 1435 1695 1702 1646 1724 1729 1538 1260 946 580 393 745 902 811 647 519 159 34 54 41 0 0 0 0 0 0 0 0 0 2 6 4 4 6 5
920 962 1173 1596 1474 1231 779 563 549 1337 1634 1609 1584 1613 1446 1247 883 592 834 1191 968 727 554 355 7 52 16 12 0 0 0 0 0 0 0 0 0 0 0 0 0 0 0
916 944 1450 1669 1524 1341 1135 789 327 592 1304 1601 1551 1279 1334 1097 933 1024 1189 1025 700 399 291 31 8 3 0 0 0 0 0 0 0 0 0 0 0 1 1 0 0 0 0
750 932 1327 1755 1632 1476 1338 1219 975 583 828 1165 1416 1056 872 1158 895 1004 1001 810 423 280 87 11 6 0 0 0 0 0 0 0 0 0 0 0 0 1 1 0 0 0 0
769 1103 1273 1605 1541 1438 1378 1240 1146 921 960 1173 1267 1364 1230 1243 755 838 752 731 489 355 49 42 1 0 0 0 0 0 0 0 0 0 0 0 0 0 0 0 0 0 0
930 987 1123 1177 1206 1183 1201 1069 977 830 1110 1300 1068 1112 924 856 480 721 576 493 79 36 362 197 0 0 0 0 0 0 0 0 0 0 0 0 0 0 0 0 0 0 0
44 266 560 766 879 908 602 577 388 335 484 788 727 549 389 292 196 492 189 34 63 275 425 398 38 0 0 0 0 0 0 0 0 0 0 0 0 0 0 0 0 0 0
48 44 27 32 60 384 473 286 202 155 194 134 277 251 83 22 22 0 0 16 39 498 671 383 89 34 11 0 0 0 0 0 0 0 0 0 0 0 0 0 0 0 0
106 70 32 0 0 10 42 2 32 72 44 53 78 49 2 0 0 0 2 8 86 312 353 459 236 75 0 0 0 0 0 0 0 0 0 0 0 0 0 0 0 0 0
99 82 32 1 0 0 1 0 0 0 3 44 20 0 0 0 0 1 0 5 19 19 13 38 14 0 0 0 0 0 0 0 0 0 0 0 0 0 0 0 0 0 0
84 81 60 32 10 1 2 1 0 0 0 6 63 12 1 0 0 6 4 0 7 5 0 0 0 0 0 0 0 0 0 0 0 0 0 0 0 0 0 0 0 12 2
18 50 75 24 10 0 0 0 0 4 0 0 6 32 13 13 0 0 0 3 2 1 0 0 0 0 0 0 0 0 0 0 0 0 0 0 0 0 0 0 0 0 7
29 17 10 4 0 0 0 1 0 0 7 18 1 97 49 17 0 1 1 1 0 0 0 0 0 0 0 0 0 0 0 0 0 0 0 0 0 0 0 0 4 11 9
8 16 13 9 22 14 1 1 1 0 0 0 0 60 49 18 18 25 25 2 0 0 0 0 0 0 0 0 0 0 0 0 0 0 0 0 0 0 0 4 52 55 66
47 75 32 67 58 37 19 9 10 0 5 17 4 0 6 0 16 54 4 3 16 27 0 0 0 0 0 0 0 0 0 0 0 0 0 0 0 0 0 0 90 171 166
61 102 121 109 52 56 41 18 1 0 18 35 35 15 0 31 6 33 1 11 1 0 0 0 0 0 0 0 0 0 0 0 0 0 0 0 0 0 0 0 0 3 19
81 117 165 162 96 44 49 50 37 0 15 73 73 63 8 27 55 9 3 1 0 0 0 0 0 0 0 0 0 0 0 0 0 0 0 0 0 0 0 0 0 0 0
110 120 176 146 104 61 59 72 55 84 29 50 120 103 52 0 12 21 8 0 0 0 0 0 0 0 0 0 0 0 0 0 0 0 0 0 0 0 0 0 0 0 0
176 162 82 118 126 107 93 48 61 101 68 63 51 61 83 49 9 15 16 6 2 0 0 0 0 0 0 0 0 1 1 0 0 0 0 0 0 0 0 0 0 0 0
56 102 75 82 76 69 105 67 10 30 33 8 31 23 68 69 65 33 58 61 38 26 15 3 5 22 21 8 13 34 19 33 7 0 0 0 0 0 0 0 0 0 0
1 40 39 45 68 53 97 83 23 26 29 11 0 37 33 58 45 82 111 166 87 71 117 73 44 58 61 54 69 60 1 0 0 0 0 0 0 0 0 0 0 0 0
34 7 0 12 38 85 177 115 59 28 9 22 32 56 59 12 27 47 95 76 55 36 52 84 54 96 103 103 63 18 3 0 0 0 0 0 0 0 0 0 0 0 0
0 0 0 0 0 8 41 31 76 16 18 19 9 34 35 12 1 35 56 35 24 70 79 39 36 33 47 47 50 35 25 22 5 0 0 0 0 0 0 0 0 0 0

GFSSE_con_sbcape_099.txt.gz
CAPE
371 928 1722 1408 1682 1817 2102 1709 1659 1794 1698 1434 877 989 1143 947 532 120 135 45 17 7 7 127 566 547 232 147 102 6 77 86 173 218 274 515 278 158 407 344 318 140 336
537 1151 1659 1447 1584 1864 2213 2053 1977 1986 1810 1677 1100 807 804 962 352 165 476 388 68 89 32 524 650 603 307 17 11 12 12 13 0 0 8 102 258 194 163 292 437 229 349
870 1084 1207 1475 1633 2020 2158 2260 2097 2062 1975 1788 1589 889 1007 1077 467 306 662 659 613 679 713 746 683 562 54 7 5 5 2 1 0 0 0 0 0 14 6 9 15 5 10
973 1048 984 1502 1510 1343 1679 1872 1918 1721 1747 1796 1699 1362 1360 1110 807 307 606 889 1072 881 788 732 646 209 54 38 6 3 0 0 0 0 0 0 0 9 7 10 8 8 6
881 887 939 1537 1492 1218 989 1569 1591 1678 1592 1706 1683 1670 1474 1241 963 383 691 1248 998 998 791 525 28 80 4 0 0 0 0 0 0 0 0 0 0 0 0 0 0 0 0
778 841 1322 1638 1562 1317 1174 1039 1423 1373 1368 1541 1667 1244 1187 1192 1085 911 1344 895 833 704 439 209 130 42 1 0 0 0 0 0 0 0 0 0 0 0 1 1 1 1 1
765 894 1357 1750 1687 1427 1222 1044 930 1315 1420 1325 1276 1025 978 1260 1110 1065 1015 741 583 577 259 51 14 35 0 0 0 0 0 0 0 0 0 0 0 3 2 1 0 0 2
791 1055 1313 1613 1619 1541 1326 1245 1009 911 1121 1484 1606 1497 1286 1201 1016 815 807 704 534 170 54 28 28 0 0 0 0 0 0 0 0 0 0 0 1 1 1 1 0 1 0
590 1015 1147 1324 1314 1330 1307 1287 1233 1194 991 1357 1430 1447 1220 843 816 813 691 710 449 226 123 30 2 0 0 0 0 0 0 0 0 0 0 0 2 0 0 0 0 0 0
208 334 459 611 729 812 871 869 786 727 1015 1222 1016 921 712 528 441 426 416 520 532 380 392 122 2 0 0 0 0 0 0 0 0 0 0 0 0 0 0 0 0 0 0
47 159 184 335 444 497 365 360 249 270 341 365 535 516 393 179 76 50 124 100 87 141 324 132 7 0 0 0 0 0 0 0 0 0 0 0 0 0 0 0 0 0 0
65 107 49 16 47 283 241 58 37 60 6 44 121 56 43 51 17 19 2 3 35 90 507 329 81 42 0 0 0 0 0 0 0 0 0 0 0 0 0 0 0 0 0
57 52 27 0 0 13 5 3 16 19 10 15 6 1 3 9 0 0 0 3 8 77 194 193 107 0 0 0 0 0 0 0 0 0 0 0 0 0 0 0 0 0 0
17 55 48 11 1 0 0 0 0 8 11 45 30 11 0 0 0 0 0 0 11 11 12 8 0 0 0 0 0 0 0 0 0 0 0 0 70 0 0 0 2 5 3
8 27 19 39 3 0 0 0 0 0 0 1 37 55 31 19 9 6 0 0 0 0 1 0 0 0 0 0 0 0 0 0 0 0 0 0 0 70 11 0 0 23 34
0 7 25 70 18 11 7 0 0 0 0 0 0 91 54 41 30 20 4 0 0 0 1 0 0 0 0 0 0 0 0 0 0 0 0 0 0 0 2 0 0 0 17
0 0 18 20 25 16 54 35 4 0 0 2 3 14 117 75 42 49 8 1 0 11 1 0 0 0 0 0 0 0 0 0 0 0 0 0 0 0 0 0 40 0 67
0 0 37 84 29 25 28 30 15 0 0 8 1 25 75 67 32 53 23 3 2 7 19 16 0 0 0 0 0 0 0 0 0 0 0 0 0 0 0 0 56 151 133
0 3 55 50 49 29 17 16 4 1 0 0 0 0 9 83 55 26 27 28 0 4 6 16 0 0 0 0 0 0 0 0 0 0 0 0 0 0 0 0 0 0 28
0 34 92 91 66 51 58 71 6 0 0 0 0 2 4 24 57 54 15 19 1 41 15 0 1 0 0 0 0 0 0 0 0 0 0 0 0 0 0 0 0 0 0
0 42 132 170 115 35 45 44 113 58 20 2 1 28 34 50 30 81 78 72 36 36 46 1 6 0 0 0 0 0 0 0 0 0 0 0 0 0 0 0 0 0 0
89 120 175 219 140 73 77 80 68 53 46 9 1 24 91 110 20 51 73 11 5 4 27 7 4 0 0 0 0 0 0 0 0 0 0 0 0 0 0 0 0 0 0
157 171 146 149 162 107 52 16 12 0 0 7 26 61 70 90 79 7 10 8 0 0 15 10 9 17 3 0 0 8 14 16 0 0 0 0 0 0 0 0 0 0 0
52 110 143 202 183 104 65 52 24 1 3 0 23 33 43 52 62 65 2 5 0 8 18 7 0 22 32 9 0 9 6 2 37 20 0 0 0 0 0 0 0 0 0
3 15 43 63 76 99 171 67 63 29 13 0 0 0 11 30 35 39 21 2 11 11 27 34 25 20 24 29 56 17 6 0 0 0 0 0 0 0 0 0 0 0 0
0 0 0 0 0 0 19 34 79 171 92 32 24 17 1 15 18 13 8 19 11 23 36 29 17 32 34 11 25 8 14 23 2 3 4 0 0 0 0 0 0 0 0

GFSSE_con_sbcape_102.txt.gz
CAPE
216 898 2003 1762 1789 2093 1913 1607 1734 1853 1922 1891 1333 1280 1194 1072 621 178 9 12 2 16 391 733 325 151 38 247 40 34 10 261 269 297 389 475 420 291 271 350 313 121 400
312 1091 1883 1628 1879 2164 2004 1895 1963 1899 1814 1616 1423 1128 921 859 401 187 87 31 14 29 376 579 574 321 84 58 8 9 31 90 8 5 9 90 326 143 91 164 426 157 166
816 1211 1327 1617 1975 2124 1957 1927 1902 1969 1885 1624 993 478 685 719 340 417 404 148 92 137 667 735 611 154 6 9 8 7 9 2 0 0 0 0 0 0 2 11 30 4 4
990 1065 1019 1780 1946 2128 2013 1867 1957 1700 1920 1806 1556 1120 1559 874 476 592 697 575 1085 914 776 826 464 82 6 7 2 1 1 0 0 0 0 0 0 4 8 8 6 4 5
943 906 1061 1669 1761 1957 1810 1827 1824 1620 1484 1536 1679 1330 1444 1185 718 549 746 1348 1038 906 935 904 361 103 31 4 1 0 0 0 0 0 0 0 0 0 1 1 1 1 0
753 691 1256 1643 1676 1621 1831 1954 1883 1606 1548 1470 1529 1505 1271 1320 1054 725 1326 1274 1097 806 827 492 87 16 3 0 0 0 0 0 0 0 0 0 0 1 1 1 0 2 4
619 776 1283 1791 1722 1502 1397 1661 1821 1768 1608 1449 1395 1199 1014 1196 1182 1257 1101 1085 916 701 550 200 93 19 0 0 0 0 0 0 0 0 0 0 0 3 1 0 0 1 1
691 1009 1279 1601 1690 1540 1374 1235 1269 1665 1717 1649 1502 1431 1307 1198 1216 1140 858 1054 792 569 342 69 62 15 0 0 0 0 0 0 0 0 0 0 2 1 1 1 0 0 0
540 940 1092 1281 1361 1389 1250 1200 1083 1094 1353 1599 1570 1431 1330 867 887 1026 809 914 698 615 394 176 67 5 0 0 0 39 0 0 0 0 0 0 4 1 1 0 0 0 0
105 489 660 725 878 763 849 931 1017 1013 1012 1231 1290 1049 994 762 594 781 617 499 593 555 390 214 2 0 10 0 0 0 0 0 0 0 0 0 3 1 0 0 0 0 0
0 63 107 244 411 418 498 631 586 396 820 1004 872 818 753 356 366 288 253 341 447 530 413 86 0 0 0 0 0 0 0 0 0 0 0 0 1 1 0 0 0 0 0
0 14 24 80 148 256 358 182 41 62 20 26 103 159 131 171 125 112 153 267 293 337 356 169 7 0 0 0 0 0 0 0 0 0 0 0 0 1 0 0 0 0 0
0 0 18 2 32 168 85 6 4 7 1 11 13 11 29 61 12 9 0 40 5 20 76 166 33 0 0 0 0 0 0 0 0 0 0 0 0 1 0 0 0 0 0
0 0 2 0 3 10 10 2 1 11 4 5 21 20 16 8 0 0 0 0 0 26 103 75 5 0 0 0 0 0 0 0 0 0 0 0 2 3 4 0 0 0 0
0 0 11 0 18 4 14 2 0 0 1 7 30 21 5 0 0 0 1 0 2 11 7 19 0 0 0 0 0 0 0 0 0 0 0 0 0 70 96 22 27 35 34
0 0 0 60 21 1 17 2 0 0 0 0 36 35 5 0 0 0 1 9 0 8 0 0 0 0 0 0 0 0 0 0 0 0 0 0 0 0 55 63 8 53 37
0 0 0 31 71 18 8 12 16 8 40 2 2 4 61 16 0 6 14 7 1 4 2 0 0 0 0 0 0 0 0 0 0 0 0 0 0 0 0 0 77 72 84
0 0 0 42 95 25 22 7 8 17 14 8 17 10 16 51 21 19 12 18 0 1 0 2 2 0 0 0 0 0 0 0 0 0 0 0 0 0 0 0 6 183 215
0 0 0 23 60 53 14 13 23 30 13 15 3 0 26 61 60 43 42 1 23 13 6 1 11 4 0 0 0 0 0 0 0 0 0 0 0 0 0 0 0 0 50
0 0 0 70 81 35 1 0 3 5 3 0 0 3 0 22 81 33 0 1 4 0 8 16 4 0 3 8 0 0 0 0 0 0 0 0 0 0 0 0 0 0 0
0 0 0 122 145 59 58 45 50 12 0 0 0 0 0 0 2 19 23 3 30 0 0 0 29 20 0 0 0 0 0 0 0 0 0 0 0 0 0 0 0 0 0
0 0 6 212 221 122 82 58 51 23 2 0 0 0 7 7 1 10 66 87 83 60 38 21 27 8 4 3 6 0 0 0 0 0 0 0 0 0 0 0 0 0 0
9 109 146 304 287 167 110 53 26 8 10 19 12 0 0 4 39 22 40 81 58 50 38 30 27 29 1 0 18 10 5 0 0 0 0 0 0 0 0 0 0 0 0
140 246 266 223 229 133 178 162 42 40 16 10 12 1 0 8 16 45 27 38 64 14 23 11 3 13 4 1 1 4 11 0 7 10 0 0 0 0 0 0 0 0 0
81 105 211 298 180 231 226 170 101 41 11 11 0 0 0 1 0 5 49 44 14 5 1 8 0 4 3 36 29 15 11 1 0 0 33 3 0 0 0 0 0 0 0
6 0 0 1 1 0 51 2 0 1 15 29 1 1 0 0 0 0 7 25 46 50 10 0 0 0 15 41 30 20 57 58 37 15 2 3 0 0 0 0 0 0 0

GFSSE_con_sbcape_105.txt.gz
CAPE
586 1576 2265 2056 1854 1759 1723 1607 1967 2004 1889 1895 1562 1475 1243 1042 599 268 124 51 53 685 781 263 47 233 375 187 91 22 301 259 362 364 425 626 400 232 305 381 366 261 280
616 1525 2205 2167 2254 2308 2119 2099 2021 2060 2018 1783 1668 1611 1263 863 577 139 144 87 83 646 922 410 175 110 93 134 15 94 204 150 99 90 132 173 259 200 136 181 402 176 56
869 1533 1452 2225 2475 2309 2045 1960 1970 1998 1894 1855 1832 1561 1219 761 539 216 130 142 137 542 819 827 446 182 65 7 6 39 85 12 0 0 0 5 7 1 0 3 7 1 1
1194 1542 1160 1969 2444 2270 2107 1904 1899 1942 1881 1620 1040 883 1176 682 552 426 304 202 623 1129 873 960 568 112 5 7 5 6 3 0 0 0 0 0 0 2 2 2 1 2 2
1363 1306 1253 2024 2277 2178 2122 2046 1908 1923 1862 1786 1549 895 1396 970 710 781 801 1017 1108 952 822 802 423 202 46 4 0 1 0 0 0 0 0 0 0 1 2 0 0 0 0
1279 1206 1357 1779 1962 2179 2050 2113 2045 1713 1587 1757 1647 1516 1139 1169 758 1203 1344 1082 662 881 815 442 403 219 220 92 0 0 0 0 0 0 0 0 0 0 0 1 2 2 2
1056 1066 1299 1766 1575 1894 1960 1857 1883 1692 1554 1692 1591 1336 1092 1113 1106 1234 1292 1107 979 836 900 297 85 5 0 0 0 0 0 0 0 0 0 0 2 2 2 2 2 1 1
851 1095 1310 1471 1681 1503 1513 1546 1670 1552 1484 1565 1660 1504 1243 1205 1157 1032 1155 1222 1111 900 590 225 47 0 0 0 0 0 0 0 0 0 0 0 6 3 2 1 1 0 1
340 866 1094 1221 1181 1378 1297 1214 1206 1399 1347 1356 1374 1399 1419 1201 1126 928 913 957 926 725 690 512 90 9 2 0 28 0 0 0 0 0 0 0 3 3 1 0 0 0 0
0 144 833 1121 1157 1100 998 929 897 922 996 1216 1310 1315 1121 883 738 801 719 635 592 490 542 448 248 26 55 13 0 0 0 0 0 0 0 0 0 1 0 0 0 0 0
0 0 78 391 844 838 877 745 675 741 772 753 1003 1007 908 1017 843 573 312 370 443 449 595 486 217 53 55 3 0 0 0 0 0 0 0 0 1 2 0 0 0 0 0
0 0 0 25 352 618 697 778 756 454 727 857 882 804 913 894 763 568 307 261 437 391 445 374 117 30 4 0 0 0 0 0 0 0 0 0 15 3 0 0 0 0 0
0 0 0 33 4 271 648 459 114 52 127 157 225 371 506 553 594 574 479 479 366 295 409 146 33 3 3 0 0 0 0 0 0 0 0 0 5 5 3 0 0 0 0
0 0 0 9 1 10 292 196 102 15 76 147 182 176 295 456 430 452 407 544 305 265 255 231 66 3 0 0 0 0 0 0 0 0 0 0 0 38 8 3 0 0 0
0 0 0 0 23 2 53 100 11 6 18 37 140 147 180 271 166 119 88 143 255 177 243 239 125 10 0 0 0 0 0 0 0 0 0 0 0 0 68 100 40 15 26
0 0 0 0 25 26 38 15 139 0 0 1 53 175 166 162 57 158 139 51 59 100 128 197 164 91 0 0 0 0 0 0 0 0 0 0 0 0 0 127 92 94 138
0 0 0 0 0 108 21 58 172 16 0 12 17 82 122 174 155 112 126 131 119 102 61 25 96 16 8 0 0 0 0 0 0 0 0 0 0 0 0 0 54 71 115
0 0 0 0 0 110 131 80 129 11 49 29 46 44 45 141 160 165 160 160 131 110 151 149 1 7 0 3 0 0 0 0 0 0 0 0 0 0 0 0 4 112 208
0 0 0 0 0 81 160 103 130 50 46 42 24 33 72 70 114 142 144 142 133 127 127 143 26 0 1 0 0 0 0 0 0 0 0 0 0 0 0 0 0 0 58
0 0 0 0 0 105 122 93 47 69 31 36 33 45 60 71 106 100 74 90 129 83 73 113 68 0 0 8 0 10 0 0 0 0 0 0 0 0 0 0 0 0 0
0 0 0 0 11 205 213 218 168 86 61 36 51 6 26 39 38 97 108 52 64 41 7 22 97 36 1 0 2 0 0 3 0 0 0 0 0 0 0 0 0 0 0
0 0 0 0 213 340 362 198 234 239 195 104 54 48 27 37 34 63 127 66 32 58 17 6 22 30 18 0 0 0 10 18 11 0 0 0 0 0 1 0 0 0 0
0 0 0 3 258 266 326 229 189 182 184 191 169 118 59 38 90 36 55 171 158 66 135 23 15 3 7 1 0 21 13 24 15 11 22 40 26 22 6 11 8 5 9
178 177 297 312 507 399 242 411 268 234 137 176 211 141 109 64 46 111 103 97 150 121 110 44 24 10 16 3 0 10 18 3 45 33 14 5 43 64 44 34 29 5 12
221 280 591 674 586 487 418 379 344 195 157 162 128 70 29 30 63 80 136 122 161 163 138 119 20 8 15 8 0 0 8 24 81 99 91 62 1 1 37 40 6 1 4
3 51 68 99 38 48 38 28 17 19 10 117 185 104 102 67 29 12 34 109 144 112 94 59 52 40 14 2 1 0 0 26 73 94 53 67 74 82 3 1 3 14 11

GFSSE_con_sbcape_108.txt.gz
CAPE
1263 1490 2094 2253 1780 1526 1526 1754 2139 2182 2115 2091 1823 1573 1381 1101 840 387 128 12 190 298 0 10 1 307 534 279 158 331 370 361 469 443 598 562 365 338 332 328 318 234 40
1250 1527 2245 2350 2162 1931 2153 2189 2427 2222 2067 2118 1900 1604 1380 903 709 285 196 43 230 599 506 175 403 620 482 77 138 276 176 255 204 180 255 256 313 391 237 165 566 47 0
1125 1417 1219 2322 2458 2312 2373 2303 2180 2274 2145 2110 2015 1332 1406 1044 653 337 232 110 553 1215 666 394 393 279 216 6 103 107 111 76 50 0 0 23 42 17 0 0 7 3 1
1240 1524 1327 2307 2227 2312 2229 2139 2084 2116 2140 2020 2008 2011 1534 1120 759 335 278 229 485 1052 1103 1161 896 536 94 5 47 76 48 0 0 0 1 2 0 0 0 0 2 2 1
1433 1557 1329 1914 1837 2079 2135 2096 2007 2066 2016 1689 1568 1430 1738 1030 838 537 409 696 948 779 1000 1015 580 299 65 4 6 30 0 0 0 0 0 0 0 0 1 0 0 0 0
1451 1427 1378 1798 1828 1646 1699 1712 1890 1945 1970 1850 1682 1404 1576 1080 976 1009 1278 1111 1203 793 822 385 115 79 150 7 1 0 0 0 0 0 0 0 0 0 0 0 1 1 2
1311 1341 1213 1470 1437 1574 1757 1627 1510 1640 1450 1510 1480 1330 1151 1167 1231 1177 1008 1051 807 859 667 340 136 71 72 113 0 0 0 0 0 0 0 0 0 2 2 2 2 3 2
599 1198 1088 1127 1277 1165 1376 1391 1455 1630 1475 1502 1447 1436 1346 1174 1261 1016 1163 1412 1040 952 784 482 233 52 3 0 20 0 0 0 0 0 0 0 0 2 3 2 1 1 1
269 1177 923 744 886 1174 1338 1284 1318 1598 1507 1537 1310 1318 1209 1141 1177 1182 1252 1370 1192 1185 699 724 276 14 33 27 64 0 0 0 0 0 0 0 0 5 2 1 0 0 0
0 45 840 903 567 619 565 963 922 1034 1195 1432 1251 1107 1050 1028 966 881 876 966 973 906 905 618 439 72 84 110 177 46 0 0 0 0 0 0 0 5 1 0 0 0 0
0 0 0 390 934 662 534 426 582 600 624 669 866 1049 1085 829 646 699 509 549 562 603 572 600 521 208 112 19 58 0 0 0 0 0 0 0 0 5 2 0 0 0 0
0 0 0 0 199 884 702 631 476 344 303 94 76 232 644 513 463 390 367 265 461 451 395 571 535 202 22 0 0 0 0 0 0 0 0 0 0 5 2 0 0 0 0
0 0 0 0 28 85 989 920 872 802 670 495 350 625 381 332 563 614 580 656 879 262 473 372 371 35 5 0 0 0 0 0 0 0 0 0 2 39 8 1 0 0 0
0 0 0 0 0 7 135 771 1001 773 437 424 385 316 248 278 573 407 403 661 794 660 587 425 268 10 1 0 0 0 0 0 0 0 0 0 0 73 79 15 1 1 0
0 0 0 0 0 0 77 230 733 704 232 104 229 407 322 373 597 525 680 709 904 846 660 733 294 69 1 0 0 0 0 0 0 0 0 0 0 4 110 126 84 8 14
0 0 0 0 0 0 5 143 275 566 328 6 0 66 259 505 707 773 744 698 658 787 475 330 363 193 3 0 0 0 0 0 0 0 0 0 0 0 0 129 282 235 182
0 0 0 0 0 0 0 132 172 444 489 260 7 4 77 226 384 422 584 555 593 706 222 210 262 138 124 0 0 0 0 0 0 0 0 0 0 0 0 0 42 293 246
0 0 0 0 0 0 0 132 226 598 214 36 52 11 50 153 255 320 320 364 362 349 359 351 292 184 169 84 30 0 0 0 0 0 0 0 0 0 0 0 17 128 315
0 0 0 0 0 0 0 118 246 394 343 144 195 40 28 56 94 228 262 218 206 273 282 347 343 292 103 138 0 0 5 0 0 0 0 0 0 0 0 0 0 0 55
0 0 0 0 0 0 0 143 292 221 331 497 339 230 72 67 120 212 230 218 166 145 208 313 261 238 197 210 4 16 52 29 1 0 0 0 0 0 0 0 0 0 0
0 0 0 0 0 0 0 96 171 124 377 330 313 392 197 49 126 219 227 206 112 82 134 105 92 156 48 112 2 0 1 0 1 8 2 0 0 0 0 0 0 0 0
0 0 0 0 0 0 44 222 449 456 337 532 666 514 412 261 253 234 213 237 234 151 67 29 55 71 47 152 76 61 23 1 0 0 0 0 7 41 31 38 44 33 32
102 28 2 0 0 0 112 563 578 658 719 674 590 583 486 352 296 287 218 297 255 197 95 144 203 155 110 99 78 55 28 9 0 0 0 0 43 77 66 83 80 105 102
194 441 559 311 311 99 402 670 526 849 792 606 656 631 600 502 426 333 323 193 227 223 195 309 313 155 138 59 62 23 2 0 12 0 0 14 35 66 69 106 109 139 147
3 309 821 742 689 709 448 360 597 517 519 424 320 252 485 427 359 339 338 276 287 289 215 283 305 251 167 18 3 0 3 0 0 21 1 27 9 36 62 89 142 122 132
7 18 246 401 312 273 61 18 49 71 218 186 85 237 281 296 379 200 153 171 214 296 262 363 237 151 175 34 14 1 0 0 0 0 0 0 8 91 101 76 106 127 144

GFSSE_con_sbcape_111.txt.gz
CAPE
1222 1559 2068 2062 1535 1462 1707 1995 2285 2413 2130 2112 1526 1626 1351 1126 1024 544 187 0 216 135 1 0 28 292 536 253 416 488 338 590 601 429 740 589 432 354 236 137 608 16 5
1005 1505 2138 2316 1768 1447 1557 2039 2457 2355 2162 2138 1805 1694 1343 1002 913 333 131 7 23 70 47 5 354 670 462 366 376 278 431 311 245 445 318 334 382 320 215 185 410 4 3
1017 1380 1083 2253 2273 2284 2182 2096 2379 2337 2085 2163 1996 1446 1585 1138 840 383 246 92 359 470 589 276 815 751 304 111 329 170 196 147 90 58 312 146 29 38 0 0 4 3 4
1211 1545 1306 2135 2070 1971 2212 2095 2316 2278 2120 2000 1857 1610 1442 1355 888 457 321 166 545 943 1107 967 974 768 426 85 81 44 67 4 0 0 29 6 2 0 1 1 1 0 0
1358 1130 1512 1942 1896 1788 1823 1726 1485 1777 2123 1915 1959 1846 1423 1316 1082 607 330 414 843 1009 846 886 899 491 149 51 26 29 0 0 0 0 0 0 0 0 0 0 0 0 0
1087 1132 1493 1874 1838 1787 1682 1858 1840 1682 1723 1494 1403 1436 1653 1232 1105 838 1024 994 1084 831 882 945 415 140 214 93 41 4 0 0 0 0 0 0 0 0 0 0 0 1 2
759 1146 1316 1712 1557 1736 1666 1638 1549 1419 1454 1498 1462 1268 1247 1118 1163 1122 1123 1434 1327 760 794 532 199 101 28 30 0 0 0 0 0 0 0 0 0 0 1 2 1 1 1
442 1040 1102 1197 1250 1415 1555 1546 1473 1541 1441 1410 1381 1165 1042 1265 1203 1065 1152 1302 1194 731 709 519 281 107 20 24 12 0 0 0 0 0 0 0 0 0 1 1 0 0 0
3 522 1094 1044 884 1028 1251 1283 1314 1454 1606 1699 1569 1462 1228 1064 1136 1128 1013 1197 1205 1232 1095 835 539 302 27 9 152 45 0 0 0 0 0 2 0 1 0 0 0 0 0
0 0 0 831 979 652 636 976 1028 1308 1303 1492 1378 1213 958 837 813 855 785 780 1204 1142 1029 821 442 227 124 148 162 23 0 0 0 0 0 4 0 2 1 0 0 0 0
0 0 0 0 500 778 675 537 595 587 636 666 796 790 887 677 374 501 458 420 848 875 777 582 423 295 216 63 162 10 0 0 0 0 0 41 0 4 4 0 0 0 0
0 0 0 0 0 166 729 853 648 238 114 45 30 73 362 143 93 65 162 295 600 770 570 606 477 300 52 0 0 0 0 0 0 0 0 37 51 19 8 2 0 0 0
0 0 0 0 0 2 217 914 875 748 890 510 224 86 55 68 312 237 358 527 681 335 764 351 292 119 3 0 0 0 0 0 0 0 0 3 5 71 40 2 1 0 0
0 0 0 0 0 0 46 238 886 813 905 525 330 241 206 250 408 134 259 608 765 757 789 925 693 235 56 0 0 0 0 0 0 0 0 0 0 38 91 54 1 1 1
0 0 0 0 0 0 0 156 520 837 894 722 321 195 178 294 474 326 372 599 587 903 867 880 801 320 93 4 1 0 0 0 0 0 0 0 0 0 33 145 122 26 1
0 0 0 0 0 0 0 0 321 556 635 576 286 148 161 179 293 541 837 924 911 1141 1030 772 573 666 165 2 2 0 0 0 0 0 0 0 0 0 0 13 175 173 137
0 0 0 0 0 0 0 0 1 408 598 534 338 78 41 10 85 251 483 821 811 1028 865 981 676 548 209 23 0 0 0 0 0 0 0 0 0 0 0 0 0 97 346
0 0 0 0 0 0 0 0 0 291 556 855 564 356 134 71 55 133 214 436 411 433 505 512 299 136 168 57 14 0 0 0 0 0 0 0 0 0 0 0 17 38 127
0 0 0 0 0 0 0 0 0 309 523 723 578 132 85 134 106 81 22 80 170 265 288 340 489 481 312 314 210 89 1 0 0 0 0 0 0 0 0 0 0 0 30
0 0 0 0 0 0 0 0 0 284 686 635 421 230 195 150 105 88 113 51 72 196 315 331 340 351 275 196 80 85 153 34 0 0 0 0 0 0 0 0 0 0 0
0 0 0 0 0 0 0 0 38 300 392 660 799 503 391 363 268 245 176 119 213 200 181 224 215 208 197 197 164 88 102 69 14 0 0 0 0 0 0 0 0 0 0
3 15 0 0 0 0 0 0 179 323 371 399 515 582 571 465 342 324 166 198 303 334 199 190 176 164 159 131 25 18 23 4 0 0 6 10 0 0 12 11 0 0 11
9 23 21 45 0 0 0 105 502 724 646 572 630 883 769 579 603 511 392 354 236 320 303 254 154 117 152 186 79 99 30 6 4 12 2 0 1 0 0 7 2 5 27
10 24 46 244 265 146 298 207 707 825 1003 1046 839 704 843 574 454 377 558 485 387 287 259 278 331 288 286 248 195 153 100 47 0 18 1 0 0 0 0 0 5 7 44
7 11 10 371 461 484 492 630 821 716 651 480 426 498 579 474 431 323 363 387 410 343 297 319 313 359 358 289 217 133 90 87 35 1 0 3 24 3 4 1 21 43 59
3 7 6 52 180 494 531 468 291 83 0 4 3 65 38 3 1 0 0 5 205 201 211 246 287 257 287 265 223 135 59 0 1 2 0 0 0 0 2 0 6 31 68

GFSSE_con_sbcape_114.txt.gz
CAPE
799 1288 2261 2184 1590 1699 1867 2047 2212 2205 2295 2039 1243 1273 1329 1187 932 468 133 147 203 170 0 2 86 504 285 318 509 369 664 626 371 577 607 627 511 255 275 262 296 4 9
884 1208 2127 2487 1818 1598 1808 2210 2169 2464 2354 2064 1939 1808 1126 1026 973 252 27 21 272 75 0 0 130 617 624 388 570 526 383 353 444 465 314 234 284 277 190 147 162 4 5
913 1432 1467 2405 2241 2011 2033 2326 1878 1995 2011 1938 1654 1663 1492 1324 917 281 108 12 58 199 229 33 666 722 401 312 345 22 228 188 261 392 319 10 18 60 27 10 12 3 4
968 1619 968 2135 2084 2073 2147 2148 2177 1999 1984 1712 1504 1378 1468 1295 1042 588 304 66 439 754 982 899 909 850 271 229 62 3 103 30 0 1 14 2 0 9 1 0 0 0 2
577 1039 1477 1853 1851 1956 1709 1607 1661 2025 1857 1790 1482 1558 1488 1075 1203 718 482 466 626 814 877 929 1156 649 280 297 3 3 0 0 0 0 0 0 0 0 0 0 0 1 0
491 930 1236 1327 1769 1821 1757 1702 1569 1570 1746 1460 1388 1597 1255 1218 1174 973 995 838 829 882 853 1013 708 305 404 346 11 2 0 0 0 0 0 0 0 0 0 0 0 0 2
341 706 1144 1345 1495 1387 1531 1526 1618 1550 1490 1423 1352 1402 1283 1281 872 1097 1304 1243 1127 1186 770 719 484 192 107 188 52 16 0 0 0 0 0 0 0 0 0 1 0 1 3
0 413 994 997 1374 1347 1379 1436 1455 1471 1365 1527 1405 1366 1400 1283 1204 1012 929 1115 1429 1227 636 793 491 159 76 60 1 0 0 0 0 0 0 0 0 0 3 1 0 0 1
0 0 0 729 809 878 1139 1280 1356 1376 1442 1389 1604 1441 1261 1060 1093 1030 1240 1096 1072 1314 734 964 599 403 79 113 208 65 0 0 0 0 0 0 0 0 3 0 0 0 0
0 0 0 0 374 663 650 866 1011 1072 1190 1230 1322 1127 920 695 708 976 929 781 1038 1152 1156 902 633 474 451 223 260 41 0 0 0 0 0 0 67 0 1 0 0 0 0
0 0 0 0 0 0 467 693 649 663 837 851 891 835 716 562 412 360 438 356 721 1067 1148 1005 718 410 221 64 104 0 0 0 0 0 0 46 0 0 1 0 0 0 0
0 0 0 0 0 0 57 344 500 467 73 79 186 411 391 404 241 147 336 270 591 777 819 867 559 278 85 0 6 1 0 0 0 0 0 133 56 0 4 0 0 0 0
0 0 0 0 0 0 0 86 469 477 526 299 36 0 7 33 16 11 52 148 281 426 492 406 182 18 0 0 0 0 0 0 0 0 0 96 82 9 41 4 0 0 0
0 0 0 0 0 0 0 0 69 520 503 451 338 154 61 17 83 92 81 318 287 239 382 254 114 21 0 0 0 0 0 0 0 0 0 0 115 35 75 96 9 1 1
0 0 0 0 0 0 0 0 32 259 503 501 408 168 55 134 53 106 59 123 446 378 305 305 215 164 36 0 0 0 0 0 0 0 0 0 2 108 70 144 178 75 3
0 0 0 0 0 0 0 0 0 180 353 399 326 241 173 133 112 173 204 259 293 324 408 338 240 223 46 11 0 0 0 0 0 0 0 0 0 4 78 52 160 335 204
0 0 0 0 0 0 0 0 0 0 327 377 259 89 39 36 101 142 233 242 275 293 374 262 251 208 142 2 0 0 0 0 0 0 0 0 0 0 0 3 0 90 321
0 0 0 0 0 0 0 0 0 0 22 315 348 205 30 66 32 64 231 166 239 211 212 250 243 177 170 46 7 0 0 0 0 0 0 0 0 0 0 13 69 110 146
0 0 0 0 0 0 0 0 0 0 26 232 366 257 121 98 76 49 47 36 5 2 50 87 141 174 69 50 32 19 0 0 0 0 0 0 0 0 0 0 0 5 70
0 0 0 0 0 0 0 0 0 0 13 250 439 220 79 94 127 49 20 36 8 1 8 46 61 73 103 92 128 99 30 0 0 0 0 0 0 0 0 0 0 0 0
0 0 0 0 0 0 0 0 0 0 120 322 380 446 177 246 191 116 150 82 5 10 5 83 77 127 146 165 125 77 66 86 43 0 0 0 0 0 0 0 0 0 0
0 0 0 0 0 0 0 0 0 0 201 206 385 454 358 382 363 269 242 142 114 114 122 112 74 129 127 148 144 98 23 17 55 22 1 0 0 0 0 0 0 0 0
0 0 1 0 0 0 0 0 0 20 328 468 491 598 472 454 351 314 189 200 210 147 201 173 161 149 89 88 177 131 78 3 4 0 5 0 0 0 0 0 0 0 0
0 0 1 1 26 43 19 0 0 72 287 426 532 762 743 712 529 412 226 457 258 170 166 148 200 147 79 118 153 138 59 31 2 0 0 0 0 0 0 0 0 0 0
0 1 3 4 6 0 102 97 169 151 144 168 32 204 404 46 1 1 1 135 185 154 96 106 181 125 136 90 91 58 104 64 13 12 2 0 0 0 0 0 0 0 0
0 0 0 0 5 2 2 1 0 97 67 38 0 4 7 11 10 4 3 2 2 1 1 1 10 81 114 98 105 103 96 34 31 15 5 1 0 0 0 0 0 0 0

GFSSE_con_sbcape_117.txt.gz
CAPE
404 1017 1929 2056 1876 1974 1952 2133 2145 1942 1921 1867 997 1276 1320 1133 813 509 89 162 197 89 0 31 350 449 171 318 471 702 519 281 473 560 697 629 229 436 278 75 9 0 25
486 1096 1901 2185 1819 1781 1911 2077 1860 2186 2118 1923 1679 1616 1364 1255 817 254 4 235 204 49 0 60 325 606 372 623 591 428 476 537 399 507 273 218 327 344 142 26 32 1 2
672 1156 1599 2249 2129 2016 2117 2047 1717 1951 1844 1637 1527 1500 1253 1191 853 256 50 21 288 105 19 44 507 674 423 491 376 189 248 279 204 217 66 0 26 154 44 9 2 2 2
603 1220 1228 2124 1985 2185 2232 2236 1858 1835 1713 1773 1663 1544 1380 1134 1132 570 275 56 211 325 679 461 884 927 318 312 25 68 88 41 5 20 0 0 3 23 3 0 0 2 4
365 876 1113 1537 1496 1517 1549 1758 2031 1943 1843 1784 1673 1453 1455 1271 1133 880 621 365 476 805 1066 1040 908 625 358 294 3 0 0 0 0 0 0 0 0 0 0 0 1 2 0
286 592 1083 1181 1295 1337 1405 1381 1370 1491 1506 1508 1590 1467 1484 1079 1044 1090 1021 883 596 697 941 1277 729 406 540 383 60 0 0 0 0 0 0 0 0 0 6 1 0 2 3
0 400 1014 1173 1249 1323 1222 1230 1313 1376 1392 1348 1309 1390 1350 1118 1141 1070 1248 1135 1014 1057 1044 894 624 365 182 210 22 34 0 0 0 0 0 0 0 0 0 2 3 4 4
0 0 250 833 1090 1159 1241 1257 1243 1355 1395 1425 1409 1432 1443 1311 1413 1209 1294 1218 1413 1200 1153 710 811 418 138 90 74 27 0 0 0 0 0 0 0 0 2 1 0 1 4
0 0 0 0 630 697 903 1059 1228 1334 1203 1252 1469 1455 1258 1190 1226 1178 1357 1294 1254 1475 1176 820 948 647 188 145 216 0 0 0 0 0 0 0 54 0 1 0 0 1 1
0 0 0 0 0 0 491 726 833 1000 1010 1148 1138 1112 908 767 633 1004 1013 1015 1253 1163 1139 993 1018 631 452 363 370 140 0 0 0 0 0 0 165 0 1 0 0 0 0
0 0 0 0 0 0 0 429 454 695 753 854 841 858 742 524 429 405 472 495 712 1043 1088 1185 939 667 384 206 118 101 0 0 0 0 0 9 106 9 0 0 0 1 0
0 0 0 0 0 0 0 0 76 340 270 314 448 507 421 401 356 308 252 202 332 731 783 1210 1002 572 112 0 3 0 0 0 0 0 0 67 227 68 6 0 0 0 0
0 0 0 0 0 0 0 0 0 24 176 89 0 16 63 362 140 95 3 29 57 314 379 593 610 186 6 0 0 0 0 0 0 0 0 79 470 62 34 2 0 2 1
0 0 0 0 0 0 0 0 0 0 54 163 209 155 20 2 0 8 0 36 97 184 199 153 63 37 4 0 0 0 0 0 0 0 0 0 339 239 35 73 9 1 2
0 0 0 0 0 0 0 0 0 0 1 102 222 232 53 5 64 43 32 80 183 159 164 116 77 49 25 1 0 0 0 0 0 0 0 0 28 296 358 159 181 88 13
0 0 0 0 0 0 0 0 0 0 0 14 95 205 215 0 41 58 20 86 129 220 181 208 147 107 62 29 0 0 0 0 0 0 0 0 0 83 327 560 281 318 257
0 0 0 0 0 0 0 0 0 0 0 0 58 121 6 4 2 94 73 76 189 278 261 138 103 166 93 3 15 0 0 0 0 0 0 0 0 2 65 335 332 551 752
0 0 0 0 0 0 0 0 0 0 0 0 11 140 0 0 0 2 58 236 214 247 250 193 235 203 182 39 5 0 0 0 0 0 0 0 0 0 0 44 146 284 484
0 0 0 0 0 0 0 0 0 0 0 0 10 109 187 25 0 13 90 79 13 41 95 98 126 138 96 115 52 5 0 0 0 0 0 0 0 0 0 0 3 40 114
0 0 0 0 0 0 0 0 0 0 0 0 0 104 284 167 60 0 51 49 11 6 5 11 50 40 44 9 43 55 29 9 0 0 0 0 0 0 0 0 0 0 3
0 0 0 0 0 0 0 0 0 0 0 0 0 137 221 123 41 105 55 25 11 0 0 0 46 21 7 16 34 40 17 20 8 8 0 0 0 0 0 0 0 0 0
0 0 0 0 0 1 5 0 0 0 0 5 38 36 63 173 257 322 234 106 19 0 0 6 91 116 134 137 37 35 27 42 37 59 70 50 9 0 0 0 0 0 0
0 0 0 0 0 2 0 0 0 0 0 51 22 6 11 147 210 385 414 326 121 24 38 88 105 126 97 76 90 46 45 31 5 34 87 69 47 8 0 0 0 0 0
0 0 0 0 5 3 1 0 0 0 0 2 0 0 54 13 10 11 204 324 179 129 55 112 54 39 17 36 47 59 39 7 0 0 0 21 48 16 0 0 0 0 0
0 0 0 0 0 2 1 0 0 0 0 0 1 2 1 2 1 0 2 58 50 69 20 19 89 152 154 195 116 41 39 52 49 50 41 1 0 0 0 0 0 0 0
0 0 0 0 0 0 8 4 0 2 2 2 2 5 12 5 7 3 0 5 4 4 2 3 2 1 1 28 22 21 54 57 34 42 36 20 5 0 0 0 0 0 0